<?xml version="1.0" encoding="UTF-8" standalone="no" ?>
<gpx xmlns="http://www.topografix.com/GPX/1/1" xmlns:xsi="http://www.w3.org/2001/XMLSchema-instance" xsi:schemaLocation="http://www.topografix.com/GPX/1/1 http://www.topografix.com/GPX/1/1/gpx.xsd" version="1.1" creator="VisuGPX - https://www.visugpx.com">
  <metadata>
    <name>10947291-68.5KM 2020</name>
  </metadata>
  <trk>
    <name><![CDATA[10947291-68.5KM 2020]]></name>
    <trkseg>
      <trkpt lat="46.24858" lon="6.47248">
        <ele>954</ele>
        <time>2020-08-30T17:03:58Z</time>
      </trkpt>
      <trkpt lat="46.24811" lon="6.47316">
        <ele>956</ele>
        <time>2020-08-30T17:04:14Z</time>
      </trkpt>
      <trkpt lat="46.24852" lon="6.47341">
        <ele>959</ele>
        <time>2020-08-30T17:04:24Z</time>
      </trkpt>
      <trkpt lat="46.2486" lon="6.47339">
        <ele>960</ele>
        <time>2020-08-30T17:04:26Z</time>
      </trkpt>
      <trkpt lat="46.24877" lon="6.47328">
        <ele>960</ele>
        <time>2020-08-30T17:04:30Z</time>
      </trkpt>
      <trkpt lat="46.24961" lon="6.47268">
        <ele>962</ele>
        <time>2020-08-30T17:04:52Z</time>
      </trkpt>
      <trkpt lat="46.24972" lon="6.47258">
        <ele>962</ele>
        <time>2020-08-30T17:04:55Z</time>
      </trkpt>
      <trkpt lat="46.24984" lon="6.47252">
        <ele>963</ele>
        <time>2020-08-30T17:04:58Z</time>
      </trkpt>
      <trkpt lat="46.24995" lon="6.4725">
        <ele>964</ele>
        <time>2020-08-30T17:05:01Z</time>
      </trkpt>
      <trkpt lat="46.25048" lon="6.47256">
        <ele>966</ele>
        <time>2020-08-30T17:05:13Z</time>
      </trkpt>
      <trkpt lat="46.25069" lon="6.47286">
        <ele>969</ele>
        <time>2020-08-30T17:05:20Z</time>
      </trkpt>
      <trkpt lat="46.25094" lon="6.47295">
        <ele>971</ele>
        <time>2020-08-30T17:05:26Z</time>
      </trkpt>
      <trkpt lat="46.25211" lon="6.47354">
        <ele>982</ele>
        <time>2020-08-30T17:05:55Z</time>
      </trkpt>
      <trkpt lat="46.2524" lon="6.47362">
        <ele>984</ele>
        <time>2020-08-30T17:06:02Z</time>
      </trkpt>
      <trkpt lat="46.25272" lon="6.47384">
        <ele>988</ele>
        <time>2020-08-30T17:06:10Z</time>
      </trkpt>
      <trkpt lat="46.25357" lon="6.47401">
        <ele>995</ele>
        <time>2020-08-30T17:06:30Z</time>
      </trkpt>
      <trkpt lat="46.25386" lon="6.474">
        <ele>996</ele>
        <time>2020-08-30T17:06:37Z</time>
      </trkpt>
      <trkpt lat="46.25401" lon="6.4739">
        <ele>995</ele>
        <time>2020-08-30T17:06:41Z</time>
      </trkpt>
      <trkpt lat="46.25445" lon="6.47418">
        <ele>999</ele>
        <time>2020-08-30T17:06:52Z</time>
      </trkpt>
      <trkpt lat="46.2547" lon="6.47429">
        <ele>1001</ele>
        <time>2020-08-30T17:06:58Z</time>
      </trkpt>
      <trkpt lat="46.25509" lon="6.47453">
        <ele>1004</ele>
        <time>2020-08-30T17:07:08Z</time>
      </trkpt>
      <trkpt lat="46.25543" lon="6.47479">
        <ele>1004</ele>
        <time>2020-08-30T17:07:17Z</time>
      </trkpt>
      <trkpt lat="46.25582" lon="6.47489">
        <ele>1000</ele>
        <time>2020-08-30T17:07:26Z</time>
      </trkpt>
      <trkpt lat="46.25595" lon="6.47495">
        <ele>1001</ele>
        <time>2020-08-30T17:07:29Z</time>
      </trkpt>
      <trkpt lat="46.25626" lon="6.47518">
        <ele>1001</ele>
        <time>2020-08-30T17:07:38Z</time>
      </trkpt>
      <trkpt lat="46.25629" lon="6.47518">
        <ele>1001</ele>
        <time>2020-08-30T17:07:38Z</time>
      </trkpt>
      <trkpt lat="46.25635" lon="6.47531">
        <ele>1002</ele>
        <time>2020-08-30T17:07:41Z</time>
      </trkpt>
      <trkpt lat="46.25662" lon="6.47571">
        <ele>1004</ele>
        <time>2020-08-30T17:07:50Z</time>
      </trkpt>
      <trkpt lat="46.25709" lon="6.47636">
        <ele>1009</ele>
        <time>2020-08-30T17:08:05Z</time>
      </trkpt>
      <trkpt lat="46.25752" lon="6.4768">
        <ele>1012</ele>
        <time>2020-08-30T17:08:17Z</time>
      </trkpt>
      <trkpt lat="46.25813" lon="6.47721">
        <ele>1013</ele>
        <time>2020-08-30T17:08:33Z</time>
      </trkpt>
      <trkpt lat="46.25825" lon="6.47725">
        <ele>1013</ele>
        <time>2020-08-30T17:08:36Z</time>
      </trkpt>
      <trkpt lat="46.25852" lon="6.47728">
        <ele>1013</ele>
        <time>2020-08-30T17:08:42Z</time>
      </trkpt>
      <trkpt lat="46.25889" lon="6.4774">
        <ele>1014</ele>
        <time>2020-08-30T17:08:51Z</time>
      </trkpt>
      <trkpt lat="46.25892" lon="6.47746">
        <ele>1014</ele>
        <time>2020-08-30T17:08:52Z</time>
      </trkpt>
      <trkpt lat="46.25933" lon="6.47786">
        <ele>1018</ele>
        <time>2020-08-30T17:09:04Z</time>
      </trkpt>
      <trkpt lat="46.25937" lon="6.47795">
        <ele>1019</ele>
        <time>2020-08-30T17:09:05Z</time>
      </trkpt>
      <trkpt lat="46.25936" lon="6.47792">
        <ele>1019</ele>
        <time>2020-08-30T17:09:06Z</time>
      </trkpt>
      <trkpt lat="46.25964" lon="6.47782">
        <ele>1021</ele>
        <time>2020-08-30T17:09:13Z</time>
      </trkpt>
      <trkpt lat="46.25977" lon="6.47769">
        <ele>1021</ele>
        <time>2020-08-30T17:09:16Z</time>
      </trkpt>
      <trkpt lat="46.25987" lon="6.47714">
        <ele>1019</ele>
        <time>2020-08-30T17:09:26Z</time>
      </trkpt>
      <trkpt lat="46.2599" lon="6.47708">
        <ele>1019</ele>
        <time>2020-08-30T17:09:27Z</time>
      </trkpt>
      <trkpt lat="46.26013" lon="6.47704">
        <ele>1023</ele>
        <time>2020-08-30T17:09:32Z</time>
      </trkpt>
      <trkpt lat="46.26034" lon="6.47718">
        <ele>1030</ele>
        <time>2020-08-30T17:09:38Z</time>
      </trkpt>
      <trkpt lat="46.2606" lon="6.47706">
        <ele>1035</ele>
        <time>2020-08-30T17:09:44Z</time>
      </trkpt>
      <trkpt lat="46.26057" lon="6.47701">
        <ele>1034</ele>
        <time>2020-08-30T17:09:45Z</time>
      </trkpt>
      <trkpt lat="46.2606" lon="6.47705">
        <ele>1035</ele>
        <time>2020-08-30T17:09:46Z</time>
      </trkpt>
      <trkpt lat="46.26067" lon="6.47707">
        <ele>1037</ele>
        <time>2020-08-30T17:09:48Z</time>
      </trkpt>
      <trkpt lat="46.26086" lon="6.47697">
        <ele>1040</ele>
        <time>2020-08-30T17:09:52Z</time>
      </trkpt>
      <trkpt lat="46.261" lon="6.47693">
        <ele>1043</ele>
        <time>2020-08-30T17:09:56Z</time>
      </trkpt>
      <trkpt lat="46.26105" lon="6.4769">
        <ele>1043</ele>
        <time>2020-08-30T17:09:57Z</time>
      </trkpt>
      <trkpt lat="46.26125" lon="6.47657">
        <ele>1042</ele>
        <time>2020-08-30T17:10:04Z</time>
      </trkpt>
      <trkpt lat="46.26139" lon="6.47639">
        <ele>1042</ele>
        <time>2020-08-30T17:10:08Z</time>
      </trkpt>
      <trkpt lat="46.26196" lon="6.47593">
        <ele>1044</ele>
        <time>2020-08-30T17:10:24Z</time>
      </trkpt>
      <trkpt lat="46.26208" lon="6.47587">
        <ele>1044</ele>
        <time>2020-08-30T17:10:27Z</time>
      </trkpt>
      <trkpt lat="46.26262" lon="6.47572">
        <ele>1051</ele>
        <time>2020-08-30T17:10:40Z</time>
      </trkpt>
      <trkpt lat="46.26269" lon="6.47567">
        <ele>1051</ele>
        <time>2020-08-30T17:10:41Z</time>
      </trkpt>
      <trkpt lat="46.26302" lon="6.4753">
        <ele>1051</ele>
        <time>2020-08-30T17:10:51Z</time>
      </trkpt>
      <trkpt lat="46.26323" lon="6.47514">
        <ele>1052</ele>
        <time>2020-08-30T17:10:57Z</time>
      </trkpt>
      <trkpt lat="46.26329" lon="6.47511">
        <ele>1052</ele>
        <time>2020-08-30T17:10:58Z</time>
      </trkpt>
      <trkpt lat="46.26349" lon="6.47509">
        <ele>1056</ele>
        <time>2020-08-30T17:11:03Z</time>
      </trkpt>
      <trkpt lat="46.26354" lon="6.47505">
        <ele>1056</ele>
        <time>2020-08-30T17:11:04Z</time>
      </trkpt>
      <trkpt lat="46.26364" lon="6.47488">
        <ele>1056</ele>
        <time>2020-08-30T17:11:08Z</time>
      </trkpt>
      <trkpt lat="46.26369" lon="6.47463">
        <ele>1055</ele>
        <time>2020-08-30T17:11:12Z</time>
      </trkpt>
      <trkpt lat="46.26377" lon="6.47469">
        <ele>1057</ele>
        <time>2020-08-30T17:11:14Z</time>
      </trkpt>
      <trkpt lat="46.26384" lon="6.47469">
        <ele>1059</ele>
        <time>2020-08-30T17:11:16Z</time>
      </trkpt>
      <trkpt lat="46.26469" lon="6.47378">
        <ele>1072</ele>
        <time>2020-08-30T17:11:40Z</time>
      </trkpt>
      <trkpt lat="46.26496" lon="6.47367">
        <ele>1078</ele>
        <time>2020-08-30T17:11:47Z</time>
      </trkpt>
      <trkpt lat="46.26509" lon="6.47354">
        <ele>1081</ele>
        <time>2020-08-30T17:11:51Z</time>
      </trkpt>
      <trkpt lat="46.2653" lon="6.47302">
        <ele>1081</ele>
        <time>2020-08-30T17:12:00Z</time>
      </trkpt>
      <trkpt lat="46.26567" lon="6.47256">
        <ele>1087</ele>
        <time>2020-08-30T17:12:12Z</time>
      </trkpt>
      <trkpt lat="46.26587" lon="6.47238">
        <ele>1090</ele>
        <time>2020-08-30T17:12:17Z</time>
      </trkpt>
      <trkpt lat="46.26625" lon="6.47223">
        <ele>1097</ele>
        <time>2020-08-30T17:12:26Z</time>
      </trkpt>
      <trkpt lat="46.2666" lon="6.47193">
        <ele>1102</ele>
        <time>2020-08-30T17:12:36Z</time>
      </trkpt>
      <trkpt lat="46.26688" lon="6.4713">
        <ele>1107</ele>
        <time>2020-08-30T17:12:48Z</time>
      </trkpt>
      <trkpt lat="46.26694" lon="6.47074">
        <ele>1104</ele>
        <time>2020-08-30T17:12:57Z</time>
      </trkpt>
      <trkpt lat="46.2671" lon="6.47023">
        <ele>1102</ele>
        <time>2020-08-30T17:13:06Z</time>
      </trkpt>
      <trkpt lat="46.26734" lon="6.46983">
        <ele>1102</ele>
        <time>2020-08-30T17:13:15Z</time>
      </trkpt>
      <trkpt lat="46.26804" lon="6.46888">
        <ele>1097</ele>
        <time>2020-08-30T17:13:37Z</time>
      </trkpt>
      <trkpt lat="46.26821" lon="6.46883">
        <ele>1100</ele>
        <time>2020-08-30T17:13:41Z</time>
      </trkpt>
      <trkpt lat="46.26822" lon="6.46888">
        <ele>1102</ele>
        <time>2020-08-30T17:13:42Z</time>
      </trkpt>
      <trkpt lat="46.26814" lon="6.4689">
        <ele>1100</ele>
        <time>2020-08-30T17:13:44Z</time>
      </trkpt>
      <trkpt lat="46.26823" lon="6.46868">
        <ele>1097</ele>
        <time>2020-08-30T17:13:48Z</time>
      </trkpt>
      <trkpt lat="46.26852" lon="6.46834">
        <ele>1092</ele>
        <time>2020-08-30T17:13:57Z</time>
      </trkpt>
      <trkpt lat="46.26883" lon="6.46792">
        <ele>1090</ele>
        <time>2020-08-30T17:14:07Z</time>
      </trkpt>
      <trkpt lat="46.26903" lon="6.4675">
        <ele>1087</ele>
        <time>2020-08-30T17:14:15Z</time>
      </trkpt>
      <trkpt lat="46.26913" lon="6.46705">
        <ele>1086</ele>
        <time>2020-08-30T17:14:23Z</time>
      </trkpt>
      <trkpt lat="46.26912" lon="6.46678">
        <ele>1084</ele>
        <time>2020-08-30T17:14:27Z</time>
      </trkpt>
      <trkpt lat="46.26937" lon="6.467">
        <ele>1088</ele>
        <time>2020-08-30T17:14:34Z</time>
      </trkpt>
      <trkpt lat="46.26956" lon="6.4671">
        <ele>1090</ele>
        <time>2020-08-30T17:14:39Z</time>
      </trkpt>
      <trkpt lat="46.27006" lon="6.46721">
        <ele>1094</ele>
        <time>2020-08-30T17:14:50Z</time>
      </trkpt>
      <trkpt lat="46.27058" lon="6.46728">
        <ele>1098</ele>
        <time>2020-08-30T17:15:03Z</time>
      </trkpt>
      <trkpt lat="46.27152" lon="6.46728">
        <ele>1100</ele>
        <time>2020-08-30T17:15:24Z</time>
      </trkpt>
      <trkpt lat="46.27265" lon="6.46722">
        <ele>1105</ele>
        <time>2020-08-30T17:15:51Z</time>
      </trkpt>
      <trkpt lat="46.27288" lon="6.46716">
        <ele>1106</ele>
        <time>2020-08-30T17:15:56Z</time>
      </trkpt>
      <trkpt lat="46.27344" lon="6.4669">
        <ele>1107</ele>
        <time>2020-08-30T17:16:10Z</time>
      </trkpt>
      <trkpt lat="46.27388" lon="6.46681">
        <ele>1108</ele>
        <time>2020-08-30T17:16:20Z</time>
      </trkpt>
      <trkpt lat="46.27418" lon="6.46682">
        <ele>1110</ele>
        <time>2020-08-30T17:16:27Z</time>
      </trkpt>
      <trkpt lat="46.27441" lon="6.46688">
        <ele>1113</ele>
        <time>2020-08-30T17:16:33Z</time>
      </trkpt>
      <trkpt lat="46.27547" lon="6.4674">
        <ele>1126</ele>
        <time>2020-08-30T17:16:59Z</time>
      </trkpt>
      <trkpt lat="46.27592" lon="6.4676">
        <ele>1131</ele>
        <time>2020-08-30T17:17:10Z</time>
      </trkpt>
      <trkpt lat="46.27619" lon="6.46769">
        <ele>1133</ele>
        <time>2020-08-30T17:17:17Z</time>
      </trkpt>
      <trkpt lat="46.27691" lon="6.46779">
        <ele>1135</ele>
        <time>2020-08-30T17:17:33Z</time>
      </trkpt>
      <trkpt lat="46.2778" lon="6.46764">
        <ele>1128</ele>
        <time>2020-08-30T17:17:54Z</time>
      </trkpt>
      <trkpt lat="46.27807" lon="6.46765">
        <ele>1127</ele>
        <time>2020-08-30T17:18:01Z</time>
      </trkpt>
      <trkpt lat="46.27831" lon="6.4677">
        <ele>1127</ele>
        <time>2020-08-30T17:18:06Z</time>
      </trkpt>
      <trkpt lat="46.27872" lon="6.46783">
        <ele>1126</ele>
        <time>2020-08-30T17:18:16Z</time>
      </trkpt>
      <trkpt lat="46.2789" lon="6.46791">
        <ele>1125</ele>
        <time>2020-08-30T17:18:21Z</time>
      </trkpt>
      <trkpt lat="46.27889" lon="6.46796">
        <ele>1125</ele>
        <time>2020-08-30T17:18:21Z</time>
      </trkpt>
      <trkpt lat="46.27896" lon="6.46806">
        <ele>1126</ele>
        <time>2020-08-30T17:18:24Z</time>
      </trkpt>
      <trkpt lat="46.27931" lon="6.46848">
        <ele>1126</ele>
        <time>2020-08-30T17:18:34Z</time>
      </trkpt>
      <trkpt lat="46.27924" lon="6.46896">
        <ele>1132</ele>
        <time>2020-08-30T17:18:42Z</time>
      </trkpt>
      <trkpt lat="46.27899" lon="6.46927">
        <ele>1141</ele>
        <time>2020-08-30T17:18:50Z</time>
      </trkpt>
      <trkpt lat="46.27894" lon="6.46957">
        <ele>1149</ele>
        <time>2020-08-30T17:18:55Z</time>
      </trkpt>
      <trkpt lat="46.27955" lon="6.47113">
        <ele>1157</ele>
        <time>2020-08-30T17:19:24Z</time>
      </trkpt>
      <trkpt lat="46.27982" lon="6.47192">
        <ele>1161</ele>
        <time>2020-08-30T17:19:38Z</time>
      </trkpt>
      <trkpt lat="46.28042" lon="6.47292">
        <ele>1158</ele>
        <time>2020-08-30T17:19:59Z</time>
      </trkpt>
      <trkpt lat="46.28089" lon="6.47399">
        <ele>1159</ele>
        <time>2020-08-30T17:20:20Z</time>
      </trkpt>
      <trkpt lat="46.28142" lon="6.4759">
        <ele>1147</ele>
        <time>2020-08-30T17:20:53Z</time>
      </trkpt>
      <trkpt lat="46.28128" lon="6.47639">
        <ele>1156</ele>
        <time>2020-08-30T17:21:02Z</time>
      </trkpt>
      <trkpt lat="46.28144" lon="6.47651">
        <ele>1149</ele>
        <time>2020-08-30T17:21:06Z</time>
      </trkpt>
      <trkpt lat="46.28167" lon="6.47626">
        <ele>1137</ele>
        <time>2020-08-30T17:21:13Z</time>
      </trkpt>
      <trkpt lat="46.28174" lon="6.47506">
        <ele>1134</ele>
        <time>2020-08-30T17:21:32Z</time>
      </trkpt>
      <trkpt lat="46.2819" lon="6.47483">
        <ele>1127</ele>
        <time>2020-08-30T17:21:37Z</time>
      </trkpt>
      <trkpt lat="46.28209" lon="6.47503">
        <ele>1122</ele>
        <time>2020-08-30T17:21:43Z</time>
      </trkpt>
      <trkpt lat="46.28197" lon="6.47452">
        <ele>1122</ele>
        <time>2020-08-30T17:21:51Z</time>
      </trkpt>
      <trkpt lat="46.28185" lon="6.47427">
        <ele>1124</ele>
        <time>2020-08-30T17:21:56Z</time>
      </trkpt>
      <trkpt lat="46.28183" lon="6.47345">
        <ele>1117</ele>
        <time>2020-08-30T17:22:10Z</time>
      </trkpt>
      <trkpt lat="46.28171" lon="6.47286">
        <ele>1115</ele>
        <time>2020-08-30T17:22:20Z</time>
      </trkpt>
      <trkpt lat="46.28151" lon="6.47241">
        <ele>1116</ele>
        <time>2020-08-30T17:22:28Z</time>
      </trkpt>
      <trkpt lat="46.28104" lon="6.472">
        <ele>1125</ele>
        <time>2020-08-30T17:22:41Z</time>
      </trkpt>
      <trkpt lat="46.28021" lon="6.4698">
        <ele>1124</ele>
        <time>2020-08-30T17:23:21Z</time>
      </trkpt>
      <trkpt lat="46.28015" lon="6.46945">
        <ele>1122</ele>
        <time>2020-08-30T17:23:27Z</time>
      </trkpt>
      <trkpt lat="46.28035" lon="6.46863">
        <ele>1115</ele>
        <time>2020-08-30T17:23:41Z</time>
      </trkpt>
      <trkpt lat="46.28068" lon="6.4684">
        <ele>1109</ele>
        <time>2020-08-30T17:23:50Z</time>
      </trkpt>
      <trkpt lat="46.28091" lon="6.46804">
        <ele>1104</ele>
        <time>2020-08-30T17:23:58Z</time>
      </trkpt>
      <trkpt lat="46.28093" lon="6.46748">
        <ele>1104</ele>
        <time>2020-08-30T17:24:07Z</time>
      </trkpt>
      <trkpt lat="46.28084" lon="6.4673">
        <ele>1107</ele>
        <time>2020-08-30T17:24:10Z</time>
      </trkpt>
      <trkpt lat="46.28086" lon="6.46687">
        <ele>1109</ele>
        <time>2020-08-30T17:24:17Z</time>
      </trkpt>
      <trkpt lat="46.281" lon="6.466">
        <ele>1114</ele>
        <time>2020-08-30T17:24:32Z</time>
      </trkpt>
      <trkpt lat="46.28114" lon="6.46567">
        <ele>1113</ele>
        <time>2020-08-30T17:24:38Z</time>
      </trkpt>
      <trkpt lat="46.28137" lon="6.46529">
        <ele>1111</ele>
        <time>2020-08-30T17:24:46Z</time>
      </trkpt>
      <trkpt lat="46.28149" lon="6.46485">
        <ele>1112</ele>
        <time>2020-08-30T17:24:54Z</time>
      </trkpt>
      <trkpt lat="46.2813" lon="6.46434">
        <ele>1120</ele>
        <time>2020-08-30T17:25:03Z</time>
      </trkpt>
      <trkpt lat="46.28105" lon="6.46462">
        <ele>1122</ele>
        <time>2020-08-30T17:25:11Z</time>
      </trkpt>
      <trkpt lat="46.28072" lon="6.46518">
        <ele>1124</ele>
        <time>2020-08-30T17:25:22Z</time>
      </trkpt>
      <trkpt lat="46.28037" lon="6.46585">
        <ele>1123</ele>
        <time>2020-08-30T17:25:36Z</time>
      </trkpt>
      <trkpt lat="46.27999" lon="6.46613">
        <ele>1123</ele>
        <time>2020-08-30T17:25:46Z</time>
      </trkpt>
      <trkpt lat="46.27985" lon="6.46577">
        <ele>1127</ele>
        <time>2020-08-30T17:25:53Z</time>
      </trkpt>
      <trkpt lat="46.28017" lon="6.46529">
        <ele>1129</ele>
        <time>2020-08-30T17:26:03Z</time>
      </trkpt>
      <trkpt lat="46.28031" lon="6.4649">
        <ele>1131</ele>
        <time>2020-08-30T17:26:10Z</time>
      </trkpt>
      <trkpt lat="46.28019" lon="6.46462">
        <ele>1135</ele>
        <time>2020-08-30T17:26:16Z</time>
      </trkpt>
      <trkpt lat="46.27998" lon="6.46434">
        <ele>1141</ele>
        <time>2020-08-30T17:26:22Z</time>
      </trkpt>
      <trkpt lat="46.27966" lon="6.46363">
        <ele>1150</ele>
        <time>2020-08-30T17:26:36Z</time>
      </trkpt>
      <trkpt lat="46.27929" lon="6.46347">
        <ele>1154</ele>
        <time>2020-08-30T17:26:45Z</time>
      </trkpt>
      <trkpt lat="46.2789" lon="6.4634">
        <ele>1155</ele>
        <time>2020-08-30T17:26:54Z</time>
      </trkpt>
      <trkpt lat="46.27858" lon="6.46324">
        <ele>1157</ele>
        <time>2020-08-30T17:27:02Z</time>
      </trkpt>
      <trkpt lat="46.2782" lon="6.46322">
        <ele>1155</ele>
        <time>2020-08-30T17:27:11Z</time>
      </trkpt>
      <trkpt lat="46.27795" lon="6.4634">
        <ele>1150</ele>
        <time>2020-08-30T17:27:18Z</time>
      </trkpt>
      <trkpt lat="46.27756" lon="6.4634">
        <ele>1145</ele>
        <time>2020-08-30T17:27:27Z</time>
      </trkpt>
      <trkpt lat="46.27707" lon="6.46289">
        <ele>1145</ele>
        <time>2020-08-30T17:27:41Z</time>
      </trkpt>
      <trkpt lat="46.27666" lon="6.46279">
        <ele>1140</ele>
        <time>2020-08-30T17:27:51Z</time>
      </trkpt>
      <trkpt lat="46.27597" lon="6.46256">
        <ele>1134</ele>
        <time>2020-08-30T17:28:07Z</time>
      </trkpt>
      <trkpt lat="46.27421" lon="6.46184">
        <ele>1128</ele>
        <time>2020-08-30T17:28:50Z</time>
      </trkpt>
      <trkpt lat="46.27335" lon="6.46146">
        <ele>1125</ele>
        <time>2020-08-30T17:29:11Z</time>
      </trkpt>
      <trkpt lat="46.27298" lon="6.46141">
        <ele>1123</ele>
        <time>2020-08-30T17:29:19Z</time>
      </trkpt>
      <trkpt lat="46.27271" lon="6.46125">
        <ele>1123</ele>
        <time>2020-08-30T17:29:26Z</time>
      </trkpt>
      <trkpt lat="46.27243" lon="6.4608">
        <ele>1126</ele>
        <time>2020-08-30T17:29:36Z</time>
      </trkpt>
      <trkpt lat="46.27225" lon="6.46074">
        <ele>1126</ele>
        <time>2020-08-30T17:29:40Z</time>
      </trkpt>
      <trkpt lat="46.27197" lon="6.4608">
        <ele>1122</ele>
        <time>2020-08-30T17:29:47Z</time>
      </trkpt>
      <trkpt lat="46.27169" lon="6.46077">
        <ele>1120</ele>
        <time>2020-08-30T17:29:54Z</time>
      </trkpt>
      <trkpt lat="46.27096" lon="6.46036">
        <ele>1123</ele>
        <time>2020-08-30T17:30:12Z</time>
      </trkpt>
      <trkpt lat="46.27075" lon="6.46028">
        <ele>1123</ele>
        <time>2020-08-30T17:30:17Z</time>
      </trkpt>
      <trkpt lat="46.2704" lon="6.46028">
        <ele>1122</ele>
        <time>2020-08-30T17:30:25Z</time>
      </trkpt>
      <trkpt lat="46.2698" lon="6.46077">
        <ele>1109</ele>
        <time>2020-08-30T17:30:41Z</time>
      </trkpt>
      <trkpt lat="46.26939" lon="6.46087">
        <ele>1107</ele>
        <time>2020-08-30T17:30:51Z</time>
      </trkpt>
      <trkpt lat="46.26857" lon="6.46095">
        <ele>1102</ele>
        <time>2020-08-30T17:31:10Z</time>
      </trkpt>
      <trkpt lat="46.26798" lon="6.46074">
        <ele>1100</ele>
        <time>2020-08-30T17:31:24Z</time>
      </trkpt>
      <trkpt lat="46.26761" lon="6.46064">
        <ele>1098</ele>
        <time>2020-08-30T17:31:33Z</time>
      </trkpt>
      <trkpt lat="46.2674" lon="6.46072">
        <ele>1095</ele>
        <time>2020-08-30T17:31:38Z</time>
      </trkpt>
      <trkpt lat="46.26726" lon="6.46115">
        <ele>1090</ele>
        <time>2020-08-30T17:31:46Z</time>
      </trkpt>
      <trkpt lat="46.26638" lon="6.46074">
        <ele>1091</ele>
        <time>2020-08-30T17:32:07Z</time>
      </trkpt>
      <trkpt lat="46.26603" lon="6.46092">
        <ele>1087</ele>
        <time>2020-08-30T17:32:16Z</time>
      </trkpt>
      <trkpt lat="46.26551" lon="6.4611">
        <ele>1079</ele>
        <time>2020-08-30T17:32:29Z</time>
      </trkpt>
      <trkpt lat="46.26527" lon="6.46043">
        <ele>1084</ele>
        <time>2020-08-30T17:32:41Z</time>
      </trkpt>
      <trkpt lat="46.26504" lon="6.46001">
        <ele>1086</ele>
        <time>2020-08-30T17:32:49Z</time>
      </trkpt>
      <trkpt lat="46.26478" lon="6.45965">
        <ele>1090</ele>
        <time>2020-08-30T17:32:58Z</time>
      </trkpt>
      <trkpt lat="46.26454" lon="6.45924">
        <ele>1095</ele>
        <time>2020-08-30T17:33:06Z</time>
      </trkpt>
      <trkpt lat="46.26357" lon="6.45813">
        <ele>1098</ele>
        <time>2020-08-30T17:33:35Z</time>
      </trkpt>
      <trkpt lat="46.2625" lon="6.45721">
        <ele>1101</ele>
        <time>2020-08-30T17:34:04Z</time>
      </trkpt>
      <trkpt lat="46.26228" lon="6.45691">
        <ele>1103</ele>
        <time>2020-08-30T17:34:11Z</time>
      </trkpt>
      <trkpt lat="46.26215" lon="6.4566">
        <ele>1107</ele>
        <time>2020-08-30T17:34:17Z</time>
      </trkpt>
      <trkpt lat="46.2621" lon="6.45663">
        <ele>1106</ele>
        <time>2020-08-30T17:34:19Z</time>
      </trkpt>
      <trkpt lat="46.26209" lon="6.45656">
        <ele>1107</ele>
        <time>2020-08-30T17:34:20Z</time>
      </trkpt>
      <trkpt lat="46.26199" lon="6.4566">
        <ele>1107</ele>
        <time>2020-08-30T17:34:22Z</time>
      </trkpt>
      <trkpt lat="46.26188" lon="6.4566">
        <ele>1107</ele>
        <time>2020-08-30T17:34:25Z</time>
      </trkpt>
      <trkpt lat="46.26178" lon="6.45656">
        <ele>1107</ele>
        <time>2020-08-30T17:34:27Z</time>
      </trkpt>
      <trkpt lat="46.26168" lon="6.45645">
        <ele>1109</ele>
        <time>2020-08-30T17:34:30Z</time>
      </trkpt>
      <trkpt lat="46.26151" lon="6.45593">
        <ele>1116</ele>
        <time>2020-08-30T17:34:39Z</time>
      </trkpt>
      <trkpt lat="46.26133" lon="6.45574">
        <ele>1121</ele>
        <time>2020-08-30T17:34:45Z</time>
      </trkpt>
      <trkpt lat="46.26122" lon="6.45573">
        <ele>1122</ele>
        <time>2020-08-30T17:34:47Z</time>
      </trkpt>
      <trkpt lat="46.26066" lon="6.45591">
        <ele>1122</ele>
        <time>2020-08-30T17:35:01Z</time>
      </trkpt>
      <trkpt lat="46.26042" lon="6.45594">
        <ele>1122</ele>
        <time>2020-08-30T17:35:06Z</time>
      </trkpt>
      <trkpt lat="46.26021" lon="6.45594">
        <ele>1122</ele>
        <time>2020-08-30T17:35:11Z</time>
      </trkpt>
      <trkpt lat="46.26001" lon="6.45588">
        <ele>1125</ele>
        <time>2020-08-30T17:35:16Z</time>
      </trkpt>
      <trkpt lat="46.25978" lon="6.45587">
        <ele>1127</ele>
        <time>2020-08-30T17:35:21Z</time>
      </trkpt>
      <trkpt lat="46.25958" lon="6.45594">
        <ele>1127</ele>
        <time>2020-08-30T17:35:26Z</time>
      </trkpt>
      <trkpt lat="46.25912" lon="6.45631">
        <ele>1120</ele>
        <time>2020-08-30T17:35:38Z</time>
      </trkpt>
      <trkpt lat="46.25887" lon="6.4564">
        <ele>1117</ele>
        <time>2020-08-30T17:35:44Z</time>
      </trkpt>
      <trkpt lat="46.25841" lon="6.45643">
        <ele>1117</ele>
        <time>2020-08-30T17:35:55Z</time>
      </trkpt>
      <trkpt lat="46.25824" lon="6.45642">
        <ele>1116</ele>
        <time>2020-08-30T17:35:59Z</time>
      </trkpt>
      <trkpt lat="46.25765" lon="6.45625">
        <ele>1118</ele>
        <time>2020-08-30T17:36:13Z</time>
      </trkpt>
      <trkpt lat="46.25743" lon="6.45611">
        <ele>1122</ele>
        <time>2020-08-30T17:36:19Z</time>
      </trkpt>
      <trkpt lat="46.25725" lon="6.45608">
        <ele>1122</ele>
        <time>2020-08-30T17:36:23Z</time>
      </trkpt>
      <trkpt lat="46.25679" lon="6.45607">
        <ele>1119</ele>
        <time>2020-08-30T17:36:34Z</time>
      </trkpt>
      <trkpt lat="46.25647" lon="6.45602">
        <ele>1122</ele>
        <time>2020-08-30T17:36:41Z</time>
      </trkpt>
      <trkpt lat="46.25566" lon="6.45596">
        <ele>1133</ele>
        <time>2020-08-30T17:37:00Z</time>
      </trkpt>
      <trkpt lat="46.25529" lon="6.45601">
        <ele>1133</ele>
        <time>2020-08-30T17:37:09Z</time>
      </trkpt>
      <trkpt lat="46.25485" lon="6.45602">
        <ele>1133</ele>
        <time>2020-08-30T17:37:19Z</time>
      </trkpt>
      <trkpt lat="46.25472" lon="6.45598">
        <ele>1134</ele>
        <time>2020-08-30T17:37:22Z</time>
      </trkpt>
      <trkpt lat="46.25451" lon="6.45578">
        <ele>1139</ele>
        <time>2020-08-30T17:37:28Z</time>
      </trkpt>
      <trkpt lat="46.25441" lon="6.45572">
        <ele>1139</ele>
        <time>2020-08-30T17:37:31Z</time>
      </trkpt>
      <trkpt lat="46.25387" lon="6.45561">
        <ele>1132</ele>
        <time>2020-08-30T17:37:43Z</time>
      </trkpt>
      <trkpt lat="46.25329" lon="6.45535">
        <ele>1129</ele>
        <time>2020-08-30T17:37:58Z</time>
      </trkpt>
      <trkpt lat="46.25297" lon="6.45526">
        <ele>1125</ele>
        <time>2020-08-30T17:38:05Z</time>
      </trkpt>
      <trkpt lat="46.25279" lon="6.45516">
        <ele>1125</ele>
        <time>2020-08-30T17:38:10Z</time>
      </trkpt>
      <trkpt lat="46.25264" lon="6.455">
        <ele>1128</ele>
        <time>2020-08-30T17:38:14Z</time>
      </trkpt>
      <trkpt lat="46.25254" lon="6.45485">
        <ele>1130</ele>
        <time>2020-08-30T17:38:17Z</time>
      </trkpt>
      <trkpt lat="46.25237" lon="6.45475">
        <ele>1131</ele>
        <time>2020-08-30T17:38:22Z</time>
      </trkpt>
      <trkpt lat="46.25225" lon="6.45472">
        <ele>1130</ele>
        <time>2020-08-30T17:38:24Z</time>
      </trkpt>
      <trkpt lat="46.25163" lon="6.45469">
        <ele>1124</ele>
        <time>2020-08-30T17:38:39Z</time>
      </trkpt>
      <trkpt lat="46.25109" lon="6.45437">
        <ele>1121</ele>
        <time>2020-08-30T17:38:53Z</time>
      </trkpt>
      <trkpt lat="46.25097" lon="6.45422">
        <ele>1122</ele>
        <time>2020-08-30T17:38:56Z</time>
      </trkpt>
      <trkpt lat="46.25093" lon="6.45405">
        <ele>1123</ele>
        <time>2020-08-30T17:38:59Z</time>
      </trkpt>
      <trkpt lat="46.25093" lon="6.45381">
        <ele>1124</ele>
        <time>2020-08-30T17:39:03Z</time>
      </trkpt>
      <trkpt lat="46.25102" lon="6.45344">
        <ele>1128</ele>
        <time>2020-08-30T17:39:09Z</time>
      </trkpt>
      <trkpt lat="46.25145" lon="6.4529">
        <ele>1131</ele>
        <time>2020-08-30T17:39:23Z</time>
      </trkpt>
      <trkpt lat="46.25163" lon="6.45255">
        <ele>1129</ele>
        <time>2020-08-30T17:39:30Z</time>
      </trkpt>
      <trkpt lat="46.25185" lon="6.45233">
        <ele>1129</ele>
        <time>2020-08-30T17:39:36Z</time>
      </trkpt>
      <trkpt lat="46.25204" lon="6.4522">
        <ele>1130</ele>
        <time>2020-08-30T17:39:41Z</time>
      </trkpt>
      <trkpt lat="46.25264" lon="6.45202">
        <ele>1140</ele>
        <time>2020-08-30T17:39:55Z</time>
      </trkpt>
      <trkpt lat="46.25276" lon="6.4518">
        <ele>1140</ele>
        <time>2020-08-30T17:40:00Z</time>
      </trkpt>
      <trkpt lat="46.25291" lon="6.45164">
        <ele>1141</ele>
        <time>2020-08-30T17:40:04Z</time>
      </trkpt>
      <trkpt lat="46.25291" lon="6.45151">
        <ele>1140</ele>
        <time>2020-08-30T17:40:06Z</time>
      </trkpt>
      <trkpt lat="46.25305" lon="6.45123">
        <ele>1141</ele>
        <time>2020-08-30T17:40:12Z</time>
      </trkpt>
      <trkpt lat="46.25311" lon="6.45095">
        <ele>1141</ele>
        <time>2020-08-30T17:40:17Z</time>
      </trkpt>
      <trkpt lat="46.25341" lon="6.45066">
        <ele>1148</ele>
        <time>2020-08-30T17:40:25Z</time>
      </trkpt>
      <trkpt lat="46.25348" lon="6.45051">
        <ele>1149</ele>
        <time>2020-08-30T17:40:28Z</time>
      </trkpt>
      <trkpt lat="46.25334" lon="6.44982">
        <ele>1145</ele>
        <time>2020-08-30T17:40:39Z</time>
      </trkpt>
      <trkpt lat="46.25336" lon="6.44965">
        <ele>1146</ele>
        <time>2020-08-30T17:40:42Z</time>
      </trkpt>
      <trkpt lat="46.25341" lon="6.44945">
        <ele>1147</ele>
        <time>2020-08-30T17:40:46Z</time>
      </trkpt>
      <trkpt lat="46.25367" lon="6.44922">
        <ele>1154</ele>
        <time>2020-08-30T17:40:53Z</time>
      </trkpt>
      <trkpt lat="46.2538" lon="6.44903">
        <ele>1157</ele>
        <time>2020-08-30T17:40:57Z</time>
      </trkpt>
      <trkpt lat="46.25386" lon="6.44856">
        <ele>1158</ele>
        <time>2020-08-30T17:41:05Z</time>
      </trkpt>
      <trkpt lat="46.25377" lon="6.44807">
        <ele>1157</ele>
        <time>2020-08-30T17:41:13Z</time>
      </trkpt>
      <trkpt lat="46.25385" lon="6.44748">
        <ele>1160</ele>
        <time>2020-08-30T17:41:23Z</time>
      </trkpt>
      <trkpt lat="46.25396" lon="6.44752">
        <ele>1162</ele>
        <time>2020-08-30T17:41:25Z</time>
      </trkpt>
      <trkpt lat="46.2541" lon="6.44798">
        <ele>1164</ele>
        <time>2020-08-30T17:41:33Z</time>
      </trkpt>
      <trkpt lat="46.25438" lon="6.44875">
        <ele>1172</ele>
        <time>2020-08-30T17:41:48Z</time>
      </trkpt>
      <trkpt lat="46.25437" lon="6.44909">
        <ele>1172</ele>
        <time>2020-08-30T17:41:53Z</time>
      </trkpt>
      <trkpt lat="46.25431" lon="6.44938">
        <ele>1171</ele>
        <time>2020-08-30T17:41:58Z</time>
      </trkpt>
      <trkpt lat="46.25422" lon="6.44956">
        <ele>1169</ele>
        <time>2020-08-30T17:42:02Z</time>
      </trkpt>
      <trkpt lat="46.25418" lon="6.44977">
        <ele>1168</ele>
        <time>2020-08-30T17:42:05Z</time>
      </trkpt>
      <trkpt lat="46.25427" lon="6.44985">
        <ele>1171</ele>
        <time>2020-08-30T17:42:08Z</time>
      </trkpt>
      <trkpt lat="46.25435" lon="6.44965">
        <ele>1173</ele>
        <time>2020-08-30T17:42:11Z</time>
      </trkpt>
      <trkpt lat="46.25449" lon="6.44963">
        <ele>1177</ele>
        <time>2020-08-30T17:42:15Z</time>
      </trkpt>
      <trkpt lat="46.25455" lon="6.44958">
        <ele>1179</ele>
        <time>2020-08-30T17:42:16Z</time>
      </trkpt>
      <trkpt lat="46.25458" lon="6.44931">
        <ele>1179</ele>
        <time>2020-08-30T17:42:21Z</time>
      </trkpt>
      <trkpt lat="46.25463" lon="6.44917">
        <ele>1180</ele>
        <time>2020-08-30T17:42:23Z</time>
      </trkpt>
      <trkpt lat="46.25462" lon="6.44882">
        <ele>1179</ele>
        <time>2020-08-30T17:42:29Z</time>
      </trkpt>
      <trkpt lat="46.25478" lon="6.4485">
        <ele>1181</ele>
        <time>2020-08-30T17:42:35Z</time>
      </trkpt>
      <trkpt lat="46.25493" lon="6.44836">
        <ele>1184</ele>
        <time>2020-08-30T17:42:39Z</time>
      </trkpt>
      <trkpt lat="46.25509" lon="6.44833">
        <ele>1188</ele>
        <time>2020-08-30T17:42:43Z</time>
      </trkpt>
      <trkpt lat="46.25526" lon="6.44823">
        <ele>1191</ele>
        <time>2020-08-30T17:42:47Z</time>
      </trkpt>
      <trkpt lat="46.25552" lon="6.44818">
        <ele>1195</ele>
        <time>2020-08-30T17:42:53Z</time>
      </trkpt>
      <trkpt lat="46.2558" lon="6.44749">
        <ele>1201</ele>
        <time>2020-08-30T17:43:06Z</time>
      </trkpt>
      <trkpt lat="46.25579" lon="6.44732">
        <ele>1203</ele>
        <time>2020-08-30T17:43:09Z</time>
      </trkpt>
      <trkpt lat="46.25578" lon="6.44725">
        <ele>1204</ele>
        <time>2020-08-30T17:43:10Z</time>
      </trkpt>
      <trkpt lat="46.25571" lon="6.4472">
        <ele>1204</ele>
        <time>2020-08-30T17:43:12Z</time>
      </trkpt>
      <trkpt lat="46.25535" lon="6.44715">
        <ele>1202</ele>
        <time>2020-08-30T17:43:21Z</time>
      </trkpt>
      <trkpt lat="46.25512" lon="6.44706">
        <ele>1202</ele>
        <time>2020-08-30T17:43:26Z</time>
      </trkpt>
      <trkpt lat="46.25467" lon="6.44669">
        <ele>1206</ele>
        <time>2020-08-30T17:43:38Z</time>
      </trkpt>
      <trkpt lat="46.2541" lon="6.44643">
        <ele>1203</ele>
        <time>2020-08-30T17:43:52Z</time>
      </trkpt>
      <trkpt lat="46.25379" lon="6.44622">
        <ele>1200</ele>
        <time>2020-08-30T17:44:00Z</time>
      </trkpt>
      <trkpt lat="46.25346" lon="6.44596">
        <ele>1201</ele>
        <time>2020-08-30T17:44:09Z</time>
      </trkpt>
      <trkpt lat="46.25255" lon="6.4451">
        <ele>1195</ele>
        <time>2020-08-30T17:44:34Z</time>
      </trkpt>
      <trkpt lat="46.25241" lon="6.44502">
        <ele>1193</ele>
        <time>2020-08-30T17:44:38Z</time>
      </trkpt>
      <trkpt lat="46.25224" lon="6.44502">
        <ele>1189</ele>
        <time>2020-08-30T17:44:42Z</time>
      </trkpt>
      <trkpt lat="46.25213" lon="6.44486">
        <ele>1189</ele>
        <time>2020-08-30T17:44:45Z</time>
      </trkpt>
      <trkpt lat="46.25144" lon="6.44464">
        <ele>1177</ele>
        <time>2020-08-30T17:45:02Z</time>
      </trkpt>
      <trkpt lat="46.25127" lon="6.44452">
        <ele>1173</ele>
        <time>2020-08-30T17:45:06Z</time>
      </trkpt>
      <trkpt lat="46.2511" lon="6.44439">
        <ele>1169</ele>
        <time>2020-08-30T17:45:11Z</time>
      </trkpt>
      <trkpt lat="46.25095" lon="6.444">
        <ele>1167</ele>
        <time>2020-08-30T17:45:18Z</time>
      </trkpt>
      <trkpt lat="46.25084" lon="6.44358">
        <ele>1166</ele>
        <time>2020-08-30T17:45:25Z</time>
      </trkpt>
      <trkpt lat="46.25074" lon="6.44349">
        <ele>1165</ele>
        <time>2020-08-30T17:45:28Z</time>
      </trkpt>
      <trkpt lat="46.2505" lon="6.44345">
        <ele>1162</ele>
        <time>2020-08-30T17:45:34Z</time>
      </trkpt>
      <trkpt lat="46.25038" lon="6.44346">
        <ele>1160</ele>
        <time>2020-08-30T17:45:37Z</time>
      </trkpt>
      <trkpt lat="46.25025" lon="6.44352">
        <ele>1158</ele>
        <time>2020-08-30T17:45:40Z</time>
      </trkpt>
      <trkpt lat="46.25012" lon="6.44351">
        <ele>1156</ele>
        <time>2020-08-30T17:45:43Z</time>
      </trkpt>
      <trkpt lat="46.24991" lon="6.44337">
        <ele>1156</ele>
        <time>2020-08-30T17:45:48Z</time>
      </trkpt>
      <trkpt lat="46.24976" lon="6.44337">
        <ele>1155</ele>
        <time>2020-08-30T17:45:52Z</time>
      </trkpt>
      <trkpt lat="46.24959" lon="6.44341">
        <ele>1155</ele>
        <time>2020-08-30T17:45:56Z</time>
      </trkpt>
      <trkpt lat="46.24953" lon="6.44338">
        <ele>1155</ele>
        <time>2020-08-30T17:45:57Z</time>
      </trkpt>
      <trkpt lat="46.24954" lon="6.44314">
        <ele>1154</ele>
        <time>2020-08-30T17:46:01Z</time>
      </trkpt>
      <trkpt lat="46.24978" lon="6.44257">
        <ele>1154</ele>
        <time>2020-08-30T17:46:12Z</time>
      </trkpt>
      <trkpt lat="46.2501" lon="6.44215">
        <ele>1153</ele>
        <time>2020-08-30T17:46:22Z</time>
      </trkpt>
      <trkpt lat="46.25034" lon="6.44211">
        <ele>1156</ele>
        <time>2020-08-30T17:46:28Z</time>
      </trkpt>
      <trkpt lat="46.25052" lon="6.44189">
        <ele>1156</ele>
        <time>2020-08-30T17:46:33Z</time>
      </trkpt>
      <trkpt lat="46.25078" lon="6.44163">
        <ele>1157</ele>
        <time>2020-08-30T17:46:40Z</time>
      </trkpt>
      <trkpt lat="46.25116" lon="6.4415">
        <ele>1157</ele>
        <time>2020-08-30T17:46:50Z</time>
      </trkpt>
      <trkpt lat="46.25137" lon="6.44131">
        <ele>1153</ele>
        <time>2020-08-30T17:46:55Z</time>
      </trkpt>
      <trkpt lat="46.25158" lon="6.44124">
        <ele>1153</ele>
        <time>2020-08-30T17:47:00Z</time>
      </trkpt>
      <trkpt lat="46.25172" lon="6.44097">
        <ele>1147</ele>
        <time>2020-08-30T17:47:06Z</time>
      </trkpt>
      <trkpt lat="46.25194" lon="6.44064">
        <ele>1143</ele>
        <time>2020-08-30T17:47:13Z</time>
      </trkpt>
      <trkpt lat="46.25218" lon="6.44035">
        <ele>1141</ele>
        <time>2020-08-30T17:47:21Z</time>
      </trkpt>
      <trkpt lat="46.25276" lon="6.43983">
        <ele>1143</ele>
        <time>2020-08-30T17:47:36Z</time>
      </trkpt>
      <trkpt lat="46.25301" lon="6.43927">
        <ele>1140</ele>
        <time>2020-08-30T17:47:47Z</time>
      </trkpt>
      <trkpt lat="46.25308" lon="6.43894">
        <ele>1135</ele>
        <time>2020-08-30T17:47:53Z</time>
      </trkpt>
      <trkpt lat="46.25377" lon="6.43853">
        <ele>1142</ele>
        <time>2020-08-30T17:48:10Z</time>
      </trkpt>
      <trkpt lat="46.25396" lon="6.4385">
        <ele>1145</ele>
        <time>2020-08-30T17:48:15Z</time>
      </trkpt>
      <trkpt lat="46.25462" lon="6.43798">
        <ele>1147</ele>
        <time>2020-08-30T17:48:32Z</time>
      </trkpt>
      <trkpt lat="46.25478" lon="6.4376">
        <ele>1144</ele>
        <time>2020-08-30T17:48:39Z</time>
      </trkpt>
      <trkpt lat="46.25539" lon="6.43709">
        <ele>1148</ele>
        <time>2020-08-30T17:48:56Z</time>
      </trkpt>
      <trkpt lat="46.25565" lon="6.43691">
        <ele>1151</ele>
        <time>2020-08-30T17:49:03Z</time>
      </trkpt>
      <trkpt lat="46.2558" lon="6.4371">
        <ele>1152</ele>
        <time>2020-08-30T17:49:07Z</time>
      </trkpt>
      <trkpt lat="46.25621" lon="6.43725">
        <ele>1154</ele>
        <time>2020-08-30T17:49:17Z</time>
      </trkpt>
      <trkpt lat="46.25625" lon="6.43676">
        <ele>1157</ele>
        <time>2020-08-30T17:49:25Z</time>
      </trkpt>
      <trkpt lat="46.25613" lon="6.43663">
        <ele>1157</ele>
        <time>2020-08-30T17:49:29Z</time>
      </trkpt>
      <trkpt lat="46.25593" lon="6.43615">
        <ele>1157</ele>
        <time>2020-08-30T17:49:38Z</time>
      </trkpt>
      <trkpt lat="46.2559" lon="6.43591">
        <ele>1157</ele>
        <time>2020-08-30T17:49:42Z</time>
      </trkpt>
      <trkpt lat="46.25577" lon="6.43559">
        <ele>1157</ele>
        <time>2020-08-30T17:49:48Z</time>
      </trkpt>
      <trkpt lat="46.25573" lon="6.4354">
        <ele>1158</ele>
        <time>2020-08-30T17:49:51Z</time>
      </trkpt>
      <trkpt lat="46.25565" lon="6.43518">
        <ele>1158</ele>
        <time>2020-08-30T17:49:55Z</time>
      </trkpt>
      <trkpt lat="46.25546" lon="6.43483">
        <ele>1158</ele>
        <time>2020-08-30T17:50:02Z</time>
      </trkpt>
      <trkpt lat="46.25538" lon="6.43462">
        <ele>1159</ele>
        <time>2020-08-30T17:50:06Z</time>
      </trkpt>
      <trkpt lat="46.25536" lon="6.43434">
        <ele>1160</ele>
        <time>2020-08-30T17:50:10Z</time>
      </trkpt>
      <trkpt lat="46.25541" lon="6.43404">
        <ele>1163</ele>
        <time>2020-08-30T17:50:15Z</time>
      </trkpt>
      <trkpt lat="46.25527" lon="6.43403">
        <ele>1161</ele>
        <time>2020-08-30T17:50:19Z</time>
      </trkpt>
      <trkpt lat="46.25512" lon="6.43389">
        <ele>1160</ele>
        <time>2020-08-30T17:50:23Z</time>
      </trkpt>
      <trkpt lat="46.25482" lon="6.43382">
        <ele>1156</ele>
        <time>2020-08-30T17:50:30Z</time>
      </trkpt>
      <trkpt lat="46.25463" lon="6.43381">
        <ele>1153</ele>
        <time>2020-08-30T17:50:34Z</time>
      </trkpt>
      <trkpt lat="46.25453" lon="6.43386">
        <ele>1152</ele>
        <time>2020-08-30T17:50:37Z</time>
      </trkpt>
      <trkpt lat="46.25435" lon="6.43404">
        <ele>1148</ele>
        <time>2020-08-30T17:50:42Z</time>
      </trkpt>
      <trkpt lat="46.25419" lon="6.43375">
        <ele>1147</ele>
        <time>2020-08-30T17:50:48Z</time>
      </trkpt>
      <trkpt lat="46.25389" lon="6.43266">
        <ele>1152</ele>
        <time>2020-08-30T17:51:07Z</time>
      </trkpt>
      <trkpt lat="46.25368" lon="6.43213">
        <ele>1159</ele>
        <time>2020-08-30T17:51:17Z</time>
      </trkpt>
      <trkpt lat="46.25336" lon="6.43173">
        <ele>1165</ele>
        <time>2020-08-30T17:51:27Z</time>
      </trkpt>
      <trkpt lat="46.25279" lon="6.43128">
        <ele>1166</ele>
        <time>2020-08-30T17:51:42Z</time>
      </trkpt>
      <trkpt lat="46.25234" lon="6.43077">
        <ele>1172</ele>
        <time>2020-08-30T17:51:55Z</time>
      </trkpt>
      <trkpt lat="46.25207" lon="6.43052">
        <ele>1175</ele>
        <time>2020-08-30T17:52:03Z</time>
      </trkpt>
      <trkpt lat="46.25169" lon="6.43074">
        <ele>1168</ele>
        <time>2020-08-30T17:52:12Z</time>
      </trkpt>
      <trkpt lat="46.25135" lon="6.43102">
        <ele>1161</ele>
        <time>2020-08-30T17:52:21Z</time>
      </trkpt>
      <trkpt lat="46.25112" lon="6.43147">
        <ele>1151</ele>
        <time>2020-08-30T17:52:30Z</time>
      </trkpt>
      <trkpt lat="46.25073" lon="6.43205">
        <ele>1140</ele>
        <time>2020-08-30T17:52:43Z</time>
      </trkpt>
      <trkpt lat="46.25024" lon="6.43302">
        <ele>1126</ele>
        <time>2020-08-30T17:53:03Z</time>
      </trkpt>
      <trkpt lat="46.24997" lon="6.43331">
        <ele>1121</ele>
        <time>2020-08-30T17:53:11Z</time>
      </trkpt>
      <trkpt lat="46.24971" lon="6.43331">
        <ele>1116</ele>
        <time>2020-08-30T17:53:17Z</time>
      </trkpt>
      <trkpt lat="46.24938" lon="6.4334">
        <ele>1110</ele>
        <time>2020-08-30T17:53:25Z</time>
      </trkpt>
      <trkpt lat="46.24907" lon="6.43393">
        <ele>1101</ele>
        <time>2020-08-30T17:53:36Z</time>
      </trkpt>
      <trkpt lat="46.24849" lon="6.43464">
        <ele>1091</ele>
        <time>2020-08-30T17:53:54Z</time>
      </trkpt>
      <trkpt lat="46.2481" lon="6.43487">
        <ele>1086</ele>
        <time>2020-08-30T17:54:03Z</time>
      </trkpt>
      <trkpt lat="46.24775" lon="6.43515">
        <ele>1080</ele>
        <time>2020-08-30T17:54:13Z</time>
      </trkpt>
      <trkpt lat="46.24748" lon="6.43495">
        <ele>1078</ele>
        <time>2020-08-30T17:54:20Z</time>
      </trkpt>
      <trkpt lat="46.24722" lon="6.43487">
        <ele>1074</ele>
        <time>2020-08-30T17:54:26Z</time>
      </trkpt>
      <trkpt lat="46.2472" lon="6.43576">
        <ele>1065</ele>
        <time>2020-08-30T17:54:40Z</time>
      </trkpt>
      <trkpt lat="46.24665" lon="6.43533">
        <ele>1063</ele>
        <time>2020-08-30T17:54:55Z</time>
      </trkpt>
      <trkpt lat="46.24656" lon="6.43574">
        <ele>1058</ele>
        <time>2020-08-30T17:55:02Z</time>
      </trkpt>
      <trkpt lat="46.24639" lon="6.43625">
        <ele>1054</ele>
        <time>2020-08-30T17:55:11Z</time>
      </trkpt>
      <trkpt lat="46.24612" lon="6.43658">
        <ele>1050</ele>
        <time>2020-08-30T17:55:19Z</time>
      </trkpt>
      <trkpt lat="46.24581" lon="6.43643">
        <ele>1048</ele>
        <time>2020-08-30T17:55:27Z</time>
      </trkpt>
      <trkpt lat="46.24559" lon="6.43673">
        <ele>1048</ele>
        <time>2020-08-30T17:55:34Z</time>
      </trkpt>
      <trkpt lat="46.24545" lon="6.43727">
        <ele>1046</ele>
        <time>2020-08-30T17:55:43Z</time>
      </trkpt>
      <trkpt lat="46.24519" lon="6.43757">
        <ele>1043</ele>
        <time>2020-08-30T17:55:51Z</time>
      </trkpt>
      <trkpt lat="46.24491" lon="6.4378">
        <ele>1040</ele>
        <time>2020-08-30T17:55:59Z</time>
      </trkpt>
      <trkpt lat="46.24464" lon="6.43765">
        <ele>1041</ele>
        <time>2020-08-30T17:56:05Z</time>
      </trkpt>
      <trkpt lat="46.24443" lon="6.43742">
        <ele>1042</ele>
        <time>2020-08-30T17:56:12Z</time>
      </trkpt>
      <trkpt lat="46.24423" lon="6.43801">
        <ele>1037</ele>
        <time>2020-08-30T17:56:22Z</time>
      </trkpt>
      <trkpt lat="46.24411" lon="6.43867">
        <ele>1030</ele>
        <time>2020-08-30T17:56:33Z</time>
      </trkpt>
      <trkpt lat="46.24385" lon="6.43903">
        <ele>1025</ele>
        <time>2020-08-30T17:56:42Z</time>
      </trkpt>
      <trkpt lat="46.24355" lon="6.43913">
        <ele>1024</ele>
        <time>2020-08-30T17:56:49Z</time>
      </trkpt>
      <trkpt lat="46.24316" lon="6.43921">
        <ele>1021</ele>
        <time>2020-08-30T17:56:58Z</time>
      </trkpt>
      <trkpt lat="46.24279" lon="6.43923">
        <ele>1013</ele>
        <time>2020-08-30T17:57:07Z</time>
      </trkpt>
      <trkpt lat="46.24245" lon="6.43908">
        <ele>1008</ele>
        <time>2020-08-30T17:57:15Z</time>
      </trkpt>
      <trkpt lat="46.24219" lon="6.43921">
        <ele>1003</ele>
        <time>2020-08-30T17:57:21Z</time>
      </trkpt>
      <trkpt lat="46.24141" lon="6.43977">
        <ele>986</ele>
        <time>2020-08-30T17:57:42Z</time>
      </trkpt>
      <trkpt lat="46.24109" lon="6.43997">
        <ele>980</ele>
        <time>2020-08-30T17:57:50Z</time>
      </trkpt>
      <trkpt lat="46.24079" lon="6.44025">
        <ele>974</ele>
        <time>2020-08-30T17:57:58Z</time>
      </trkpt>
      <trkpt lat="46.24058" lon="6.44061">
        <ele>968</ele>
        <time>2020-08-30T17:58:06Z</time>
      </trkpt>
      <trkpt lat="46.24032" lon="6.44076">
        <ele>963</ele>
        <time>2020-08-30T17:58:12Z</time>
      </trkpt>
      <trkpt lat="46.2398" lon="6.44066">
        <ele>957</ele>
        <time>2020-08-30T17:58:25Z</time>
      </trkpt>
      <trkpt lat="46.23933" lon="6.44069">
        <ele>953</ele>
        <time>2020-08-30T17:58:36Z</time>
      </trkpt>
      <trkpt lat="46.23915" lon="6.44143">
        <ele>946</ele>
        <time>2020-08-30T17:58:48Z</time>
      </trkpt>
      <trkpt lat="46.23876" lon="6.44143">
        <ele>942</ele>
        <time>2020-08-30T17:58:57Z</time>
      </trkpt>
      <trkpt lat="46.23845" lon="6.44138">
        <ele>938</ele>
        <time>2020-08-30T17:59:05Z</time>
      </trkpt>
      <trkpt lat="46.23825" lon="6.44153">
        <ele>935</ele>
        <time>2020-08-30T17:59:10Z</time>
      </trkpt>
      <trkpt lat="46.238" lon="6.44178">
        <ele>931</ele>
        <time>2020-08-30T17:59:17Z</time>
      </trkpt>
      <trkpt lat="46.23765" lon="6.44191">
        <ele>927</ele>
        <time>2020-08-30T17:59:25Z</time>
      </trkpt>
      <trkpt lat="46.23746" lon="6.44173">
        <ele>926</ele>
        <time>2020-08-30T17:59:31Z</time>
      </trkpt>
      <trkpt lat="46.23726" lon="6.44171">
        <ele>922</ele>
        <time>2020-08-30T17:59:35Z</time>
      </trkpt>
      <trkpt lat="46.23707" lon="6.44184">
        <ele>918</ele>
        <time>2020-08-30T17:59:40Z</time>
      </trkpt>
      <trkpt lat="46.23682" lon="6.44209">
        <ele>913</ele>
        <time>2020-08-30T17:59:47Z</time>
      </trkpt>
      <trkpt lat="46.2365" lon="6.44224">
        <ele>907</ele>
        <time>2020-08-30T17:59:55Z</time>
      </trkpt>
      <trkpt lat="46.23624" lon="6.44224">
        <ele>903</ele>
        <time>2020-08-30T18:00:01Z</time>
      </trkpt>
      <trkpt lat="46.23597" lon="6.44235">
        <ele>898</ele>
        <time>2020-08-30T18:00:08Z</time>
      </trkpt>
      <trkpt lat="46.23583" lon="6.44222">
        <ele>896</ele>
        <time>2020-08-30T18:00:12Z</time>
      </trkpt>
      <trkpt lat="46.23575" lon="6.44204">
        <ele>896</ele>
        <time>2020-08-30T18:00:15Z</time>
      </trkpt>
      <trkpt lat="46.23605" lon="6.44166">
        <ele>902</ele>
        <time>2020-08-30T18:00:25Z</time>
      </trkpt>
      <trkpt lat="46.23576" lon="6.44122">
        <ele>902</ele>
        <time>2020-08-30T18:00:34Z</time>
      </trkpt>
      <trkpt lat="46.23516" lon="6.44013">
        <ele>905</ele>
        <time>2020-08-30T18:00:57Z</time>
      </trkpt>
      <trkpt lat="46.23516" lon="6.44009">
        <ele>905</ele>
        <time>2020-08-30T18:00:58Z</time>
      </trkpt>
      <trkpt lat="46.23534" lon="6.44004">
        <ele>909</ele>
        <time>2020-08-30T18:01:02Z</time>
      </trkpt>
      <trkpt lat="46.23549" lon="6.44017">
        <ele>910</ele>
        <time>2020-08-30T18:01:06Z</time>
      </trkpt>
      <trkpt lat="46.23571" lon="6.44072">
        <ele>906</ele>
        <time>2020-08-30T18:01:16Z</time>
      </trkpt>
      <trkpt lat="46.23579" lon="6.44086">
        <ele>905</ele>
        <time>2020-08-30T18:01:19Z</time>
      </trkpt>
      <trkpt lat="46.23593" lon="6.44092">
        <ele>907</ele>
        <time>2020-08-30T18:01:23Z</time>
      </trkpt>
      <trkpt lat="46.23675" lon="6.44106">
        <ele>920</ele>
        <time>2020-08-30T18:01:42Z</time>
      </trkpt>
      <trkpt lat="46.23754" lon="6.44152">
        <ele>928</ele>
        <time>2020-08-30T18:02:02Z</time>
      </trkpt>
      <trkpt lat="46.23762" lon="6.44154">
        <ele>929</ele>
        <time>2020-08-30T18:02:04Z</time>
      </trkpt>
      <trkpt lat="46.23774" lon="6.44152">
        <ele>930</ele>
        <time>2020-08-30T18:02:06Z</time>
      </trkpt>
      <trkpt lat="46.23781" lon="6.44141">
        <ele>931</ele>
        <time>2020-08-30T18:02:09Z</time>
      </trkpt>
      <trkpt lat="46.23783" lon="6.44122">
        <ele>933</ele>
        <time>2020-08-30T18:02:12Z</time>
      </trkpt>
      <trkpt lat="46.23779" lon="6.44111">
        <ele>933</ele>
        <time>2020-08-30T18:02:14Z</time>
      </trkpt>
      <trkpt lat="46.23757" lon="6.44077">
        <ele>932</ele>
        <time>2020-08-30T18:02:21Z</time>
      </trkpt>
      <trkpt lat="46.23748" lon="6.44058">
        <ele>933</ele>
        <time>2020-08-30T18:02:25Z</time>
      </trkpt>
      <trkpt lat="46.23744" lon="6.44036">
        <ele>935</ele>
        <time>2020-08-30T18:02:29Z</time>
      </trkpt>
      <trkpt lat="46.23743" lon="6.44012">
        <ele>937</ele>
        <time>2020-08-30T18:02:33Z</time>
      </trkpt>
      <trkpt lat="46.23761" lon="6.43939">
        <ele>948</ele>
        <time>2020-08-30T18:02:45Z</time>
      </trkpt>
      <trkpt lat="46.23771" lon="6.43921">
        <ele>951</ele>
        <time>2020-08-30T18:02:49Z</time>
      </trkpt>
      <trkpt lat="46.23781" lon="6.43911">
        <ele>953</ele>
        <time>2020-08-30T18:02:52Z</time>
      </trkpt>
      <trkpt lat="46.23788" lon="6.43911">
        <ele>954</ele>
        <time>2020-08-30T18:02:53Z</time>
      </trkpt>
      <trkpt lat="46.23838" lon="6.43926">
        <ele>958</ele>
        <time>2020-08-30T18:03:05Z</time>
      </trkpt>
      <trkpt lat="46.23872" lon="6.43943">
        <ele>960</ele>
        <time>2020-08-30T18:03:14Z</time>
      </trkpt>
      <trkpt lat="46.23892" lon="6.43946">
        <ele>962</ele>
        <time>2020-08-30T18:03:18Z</time>
      </trkpt>
      <trkpt lat="46.23909" lon="6.43943">
        <ele>965</ele>
        <time>2020-08-30T18:03:22Z</time>
      </trkpt>
      <trkpt lat="46.23951" lon="6.43924">
        <ele>971</ele>
        <time>2020-08-30T18:03:33Z</time>
      </trkpt>
      <trkpt lat="46.23992" lon="6.43893">
        <ele>978</ele>
        <time>2020-08-30T18:03:44Z</time>
      </trkpt>
      <trkpt lat="46.24001" lon="6.4388">
        <ele>979</ele>
        <time>2020-08-30T18:03:47Z</time>
      </trkpt>
      <trkpt lat="46.24004" lon="6.43862">
        <ele>980</ele>
        <time>2020-08-30T18:03:50Z</time>
      </trkpt>
      <trkpt lat="46.24004" lon="6.43823">
        <ele>981</ele>
        <time>2020-08-30T18:03:56Z</time>
      </trkpt>
      <trkpt lat="46.24009" lon="6.43778">
        <ele>985</ele>
        <time>2020-08-30T18:04:03Z</time>
      </trkpt>
      <trkpt lat="46.24027" lon="6.43694">
        <ele>993</ele>
        <time>2020-08-30T18:04:17Z</time>
      </trkpt>
      <trkpt lat="46.24072" lon="6.43575">
        <ele>1003</ele>
        <time>2020-08-30T18:04:39Z</time>
      </trkpt>
      <trkpt lat="46.24071" lon="6.43562">
        <ele>1003</ele>
        <time>2020-08-30T18:04:41Z</time>
      </trkpt>
      <trkpt lat="46.24064" lon="6.43553">
        <ele>1002</ele>
        <time>2020-08-30T18:04:44Z</time>
      </trkpt>
      <trkpt lat="46.2397" lon="6.43478">
        <ele>997</ele>
        <time>2020-08-30T18:05:09Z</time>
      </trkpt>
      <trkpt lat="46.23961" lon="6.43472">
        <ele>997</ele>
        <time>2020-08-30T18:05:11Z</time>
      </trkpt>
      <trkpt lat="46.2395" lon="6.43469">
        <ele>997</ele>
        <time>2020-08-30T18:05:14Z</time>
      </trkpt>
      <trkpt lat="46.23926" lon="6.4348">
        <ele>996</ele>
        <time>2020-08-30T18:05:19Z</time>
      </trkpt>
      <trkpt lat="46.23855" lon="6.43536">
        <ele>994</ele>
        <time>2020-08-30T18:05:38Z</time>
      </trkpt>
      <trkpt lat="46.23829" lon="6.43547">
        <ele>993</ele>
        <time>2020-08-30T18:05:45Z</time>
      </trkpt>
      <trkpt lat="46.2382" lon="6.43547">
        <ele>993</ele>
        <time>2020-08-30T18:05:47Z</time>
      </trkpt>
      <trkpt lat="46.23819" lon="6.43533">
        <ele>994</ele>
        <time>2020-08-30T18:05:49Z</time>
      </trkpt>
      <trkpt lat="46.23814" lon="6.43515">
        <ele>995</ele>
        <time>2020-08-30T18:05:52Z</time>
      </trkpt>
      <trkpt lat="46.23798" lon="6.43484">
        <ele>997</ele>
        <time>2020-08-30T18:05:58Z</time>
      </trkpt>
      <trkpt lat="46.23774" lon="6.43447">
        <ele>1000</ele>
        <time>2020-08-30T18:06:07Z</time>
      </trkpt>
      <trkpt lat="46.23766" lon="6.43439">
        <ele>1001</ele>
        <time>2020-08-30T18:06:09Z</time>
      </trkpt>
      <trkpt lat="46.23758" lon="6.43436">
        <ele>1001</ele>
        <time>2020-08-30T18:06:11Z</time>
      </trkpt>
      <trkpt lat="46.23713" lon="6.4343">
        <ele>1003</ele>
        <time>2020-08-30T18:06:21Z</time>
      </trkpt>
      <trkpt lat="46.23682" lon="6.43395">
        <ele>1006</ele>
        <time>2020-08-30T18:06:31Z</time>
      </trkpt>
      <trkpt lat="46.237" lon="6.43189">
        <ele>1040</ele>
        <time>2020-08-30T18:07:04Z</time>
      </trkpt>
      <trkpt lat="46.2365" lon="6.43125">
        <ele>1061</ele>
        <time>2020-08-30T18:07:20Z</time>
      </trkpt>
      <trkpt lat="46.23549" lon="6.43108">
        <ele>1056</ele>
        <time>2020-08-30T18:07:43Z</time>
      </trkpt>
      <trkpt lat="46.23519" lon="6.43086">
        <ele>1054</ele>
        <time>2020-08-30T18:07:51Z</time>
      </trkpt>
      <trkpt lat="46.23561" lon="6.43013">
        <ele>1080</ele>
        <time>2020-08-30T18:08:07Z</time>
      </trkpt>
      <trkpt lat="46.23599" lon="6.43018">
        <ele>1088</ele>
        <time>2020-08-30T18:08:16Z</time>
      </trkpt>
      <trkpt lat="46.23611" lon="6.42966">
        <ele>1099</ele>
        <time>2020-08-30T18:08:24Z</time>
      </trkpt>
      <trkpt lat="46.2367" lon="6.42936">
        <ele>1110</ele>
        <time>2020-08-30T18:08:39Z</time>
      </trkpt>
      <trkpt lat="46.23644" lon="6.42902">
        <ele>1111</ele>
        <time>2020-08-30T18:08:47Z</time>
      </trkpt>
      <trkpt lat="46.23626" lon="6.42859">
        <ele>1112</ele>
        <time>2020-08-30T18:08:55Z</time>
      </trkpt>
      <trkpt lat="46.23593" lon="6.42825">
        <ele>1110</ele>
        <time>2020-08-30T18:09:05Z</time>
      </trkpt>
      <trkpt lat="46.23567" lon="6.42807">
        <ele>1107</ele>
        <time>2020-08-30T18:09:12Z</time>
      </trkpt>
      <trkpt lat="46.23525" lon="6.42872">
        <ele>1093</ele>
        <time>2020-08-30T18:09:26Z</time>
      </trkpt>
      <trkpt lat="46.23472" lon="6.42893">
        <ele>1077</ele>
        <time>2020-08-30T18:09:39Z</time>
      </trkpt>
      <trkpt lat="46.23442" lon="6.42889">
        <ele>1069</ele>
        <time>2020-08-30T18:09:46Z</time>
      </trkpt>
      <trkpt lat="46.23368" lon="6.42833">
        <ele>1069</ele>
        <time>2020-08-30T18:10:05Z</time>
      </trkpt>
      <trkpt lat="46.23308" lon="6.42842">
        <ele>1059</ele>
        <time>2020-08-30T18:10:19Z</time>
      </trkpt>
      <trkpt lat="46.23213" lon="6.42872">
        <ele>1040</ele>
        <time>2020-08-30T18:10:42Z</time>
      </trkpt>
      <trkpt lat="46.23083" lon="6.4282">
        <ele>1026</ele>
        <time>2020-08-30T18:11:14Z</time>
      </trkpt>
      <trkpt lat="46.23023" lon="6.42893">
        <ele>996</ele>
        <time>2020-08-30T18:11:32Z</time>
      </trkpt>
      <trkpt lat="46.22973" lon="6.42965">
        <ele>980</ele>
        <time>2020-08-30T18:11:48Z</time>
      </trkpt>
      <trkpt lat="46.23049" lon="6.43012">
        <ele>983</ele>
        <time>2020-08-30T18:12:08Z</time>
      </trkpt>
      <trkpt lat="46.23115" lon="6.43044">
        <ele>988</ele>
        <time>2020-08-30T18:12:24Z</time>
      </trkpt>
      <trkpt lat="46.23159" lon="6.43075">
        <ele>989</ele>
        <time>2020-08-30T18:12:35Z</time>
      </trkpt>
      <trkpt lat="46.231" lon="6.43164">
        <ele>975</ele>
        <time>2020-08-30T18:12:55Z</time>
      </trkpt>
      <trkpt lat="46.23068" lon="6.43224">
        <ele>969</ele>
        <time>2020-08-30T18:13:07Z</time>
      </trkpt>
      <trkpt lat="46.23017" lon="6.4334">
        <ele>946</ele>
        <time>2020-08-30T18:13:30Z</time>
      </trkpt>
      <trkpt lat="46.23017" lon="6.43408">
        <ele>938</ele>
        <time>2020-08-30T18:13:41Z</time>
      </trkpt>
      <trkpt lat="46.22994" lon="6.43494">
        <ele>922</ele>
        <time>2020-08-30T18:13:56Z</time>
      </trkpt>
      <trkpt lat="46.22985" lon="6.43511">
        <ele>917</ele>
        <time>2020-08-30T18:13:59Z</time>
      </trkpt>
      <trkpt lat="46.22979" lon="6.43533">
        <ele>910</ele>
        <time>2020-08-30T18:14:03Z</time>
      </trkpt>
      <trkpt lat="46.22961" lon="6.43571">
        <ele>896</ele>
        <time>2020-08-30T18:14:10Z</time>
      </trkpt>
      <trkpt lat="46.22919" lon="6.43528">
        <ele>897</ele>
        <time>2020-08-30T18:14:22Z</time>
      </trkpt>
      <trkpt lat="46.22899" lon="6.43498">
        <ele>896</ele>
        <time>2020-08-30T18:14:29Z</time>
      </trkpt>
      <trkpt lat="46.22872" lon="6.43464">
        <ele>893</ele>
        <time>2020-08-30T18:14:37Z</time>
      </trkpt>
      <trkpt lat="46.22801" lon="6.43395">
        <ele>886</ele>
        <time>2020-08-30T18:14:57Z</time>
      </trkpt>
      <trkpt lat="46.22777" lon="6.43361">
        <ele>888</ele>
        <time>2020-08-30T18:15:05Z</time>
      </trkpt>
      <trkpt lat="46.22735" lon="6.43335">
        <ele>881</ele>
        <time>2020-08-30T18:15:16Z</time>
      </trkpt>
      <trkpt lat="46.22709" lon="6.43297">
        <ele>883</ele>
        <time>2020-08-30T18:15:25Z</time>
      </trkpt>
      <trkpt lat="46.22688" lon="6.43292">
        <ele>878</ele>
        <time>2020-08-30T18:15:30Z</time>
      </trkpt>
      <trkpt lat="46.22658" lon="6.4328">
        <ele>871</ele>
        <time>2020-08-30T18:15:37Z</time>
      </trkpt>
      <trkpt lat="46.22554" lon="6.43112">
        <ele>865</ele>
        <time>2020-08-30T18:16:13Z</time>
      </trkpt>
      <trkpt lat="46.22521" lon="6.43063">
        <ele>863</ele>
        <time>2020-08-30T18:16:24Z</time>
      </trkpt>
      <trkpt lat="46.22508" lon="6.43028">
        <ele>865</ele>
        <time>2020-08-30T18:16:31Z</time>
      </trkpt>
      <trkpt lat="46.225" lon="6.42979">
        <ele>870</ele>
        <time>2020-08-30T18:16:39Z</time>
      </trkpt>
      <trkpt lat="46.22485" lon="6.42918">
        <ele>876</ele>
        <time>2020-08-30T18:16:49Z</time>
      </trkpt>
      <trkpt lat="46.22466" lon="6.42882">
        <ele>878</ele>
        <time>2020-08-30T18:16:57Z</time>
      </trkpt>
      <trkpt lat="46.22429" lon="6.42849">
        <ele>878</ele>
        <time>2020-08-30T18:17:07Z</time>
      </trkpt>
      <trkpt lat="46.22395" lon="6.42792">
        <ele>878</ele>
        <time>2020-08-30T18:17:19Z</time>
      </trkpt>
      <trkpt lat="46.22392" lon="6.42781">
        <ele>878</ele>
        <time>2020-08-30T18:17:21Z</time>
      </trkpt>
      <trkpt lat="46.22394" lon="6.42768">
        <ele>879</ele>
        <time>2020-08-30T18:17:23Z</time>
      </trkpt>
      <trkpt lat="46.22408" lon="6.42772">
        <ele>881</ele>
        <time>2020-08-30T18:17:26Z</time>
      </trkpt>
      <trkpt lat="46.22423" lon="6.42772">
        <ele>883</ele>
        <time>2020-08-30T18:17:30Z</time>
      </trkpt>
      <trkpt lat="46.22435" lon="6.42765">
        <ele>885</ele>
        <time>2020-08-30T18:17:33Z</time>
      </trkpt>
      <trkpt lat="46.22444" lon="6.42751">
        <ele>888</ele>
        <time>2020-08-30T18:17:36Z</time>
      </trkpt>
      <trkpt lat="46.22449" lon="6.42732">
        <ele>891</ele>
        <time>2020-08-30T18:17:39Z</time>
      </trkpt>
      <trkpt lat="46.22451" lon="6.4271">
        <ele>894</ele>
        <time>2020-08-30T18:17:43Z</time>
      </trkpt>
      <trkpt lat="46.22447" lon="6.42688">
        <ele>896</ele>
        <time>2020-08-30T18:17:46Z</time>
      </trkpt>
      <trkpt lat="46.22409" lon="6.42587">
        <ele>899</ele>
        <time>2020-08-30T18:18:05Z</time>
      </trkpt>
      <trkpt lat="46.22393" lon="6.42535">
        <ele>902</ele>
        <time>2020-08-30T18:18:14Z</time>
      </trkpt>
      <trkpt lat="46.22386" lon="6.42479">
        <ele>905</ele>
        <time>2020-08-30T18:18:23Z</time>
      </trkpt>
      <trkpt lat="46.22388" lon="6.42459">
        <ele>906</ele>
        <time>2020-08-30T18:18:27Z</time>
      </trkpt>
      <trkpt lat="46.22395" lon="6.42445">
        <ele>908</ele>
        <time>2020-08-30T18:18:29Z</time>
      </trkpt>
      <trkpt lat="46.22408" lon="6.42431">
        <ele>911</ele>
        <time>2020-08-30T18:18:33Z</time>
      </trkpt>
      <trkpt lat="46.22436" lon="6.42417">
        <ele>917</ele>
        <time>2020-08-30T18:18:40Z</time>
      </trkpt>
      <trkpt lat="46.22442" lon="6.4241">
        <ele>918</ele>
        <time>2020-08-30T18:18:42Z</time>
      </trkpt>
      <trkpt lat="46.22456" lon="6.42364">
        <ele>919</ele>
        <time>2020-08-30T18:18:50Z</time>
      </trkpt>
      <trkpt lat="46.2247" lon="6.4235">
        <ele>922</ele>
        <time>2020-08-30T18:18:54Z</time>
      </trkpt>
      <trkpt lat="46.22482" lon="6.42348">
        <ele>925</ele>
        <time>2020-08-30T18:18:57Z</time>
      </trkpt>
      <trkpt lat="46.2249" lon="6.42351">
        <ele>927</ele>
        <time>2020-08-30T18:18:59Z</time>
      </trkpt>
      <trkpt lat="46.22504" lon="6.42369">
        <ele>930</ele>
        <time>2020-08-30T18:19:03Z</time>
      </trkpt>
      <trkpt lat="46.22539" lon="6.42462">
        <ele>937</ele>
        <time>2020-08-30T18:19:20Z</time>
      </trkpt>
      <trkpt lat="46.22572" lon="6.4245">
        <ele>943</ele>
        <time>2020-08-30T18:19:28Z</time>
      </trkpt>
      <trkpt lat="46.22579" lon="6.42444">
        <ele>944</ele>
        <time>2020-08-30T18:19:30Z</time>
      </trkpt>
      <trkpt lat="46.2258" lon="6.42435">
        <ele>945</ele>
        <time>2020-08-30T18:19:32Z</time>
      </trkpt>
      <trkpt lat="46.22573" lon="6.42399">
        <ele>945</ele>
        <time>2020-08-30T18:19:38Z</time>
      </trkpt>
      <trkpt lat="46.22571" lon="6.42321">
        <ele>948</ele>
        <time>2020-08-30T18:19:50Z</time>
      </trkpt>
      <trkpt lat="46.22583" lon="6.42247">
        <ele>960</ele>
        <time>2020-08-30T18:20:03Z</time>
      </trkpt>
      <trkpt lat="46.22601" lon="6.42194">
        <ele>968</ele>
        <time>2020-08-30T18:20:12Z</time>
      </trkpt>
      <trkpt lat="46.22621" lon="6.42151">
        <ele>975</ele>
        <time>2020-08-30T18:20:20Z</time>
      </trkpt>
      <trkpt lat="46.22626" lon="6.42128">
        <ele>976</ele>
        <time>2020-08-30T18:20:24Z</time>
      </trkpt>
      <trkpt lat="46.22632" lon="6.41976">
        <ele>982</ele>
        <time>2020-08-30T18:20:49Z</time>
      </trkpt>
      <trkpt lat="46.2264" lon="6.41965">
        <ele>985</ele>
        <time>2020-08-30T18:20:52Z</time>
      </trkpt>
      <trkpt lat="46.22646" lon="6.41965">
        <ele>987</ele>
        <time>2020-08-30T18:20:53Z</time>
      </trkpt>
      <trkpt lat="46.22651" lon="6.41968">
        <ele>988</ele>
        <time>2020-08-30T18:20:54Z</time>
      </trkpt>
      <trkpt lat="46.22657" lon="6.4198">
        <ele>990</ele>
        <time>2020-08-30T18:20:57Z</time>
      </trkpt>
      <trkpt lat="46.22669" lon="6.42105">
        <ele>989</ele>
        <time>2020-08-30T18:21:17Z</time>
      </trkpt>
      <trkpt lat="46.22675" lon="6.42128">
        <ele>991</ele>
        <time>2020-08-30T18:21:21Z</time>
      </trkpt>
      <trkpt lat="46.22689" lon="6.42153">
        <ele>996</ele>
        <time>2020-08-30T18:21:26Z</time>
      </trkpt>
      <trkpt lat="46.22692" lon="6.42174">
        <ele>997</ele>
        <time>2020-08-30T18:21:30Z</time>
      </trkpt>
      <trkpt lat="46.22677" lon="6.42228">
        <ele>993</ele>
        <time>2020-08-30T18:21:39Z</time>
      </trkpt>
      <trkpt lat="46.22682" lon="6.42257">
        <ele>995</ele>
        <time>2020-08-30T18:21:44Z</time>
      </trkpt>
      <trkpt lat="46.22746" lon="6.42344">
        <ele>1016</ele>
        <time>2020-08-30T18:22:04Z</time>
      </trkpt>
      <trkpt lat="46.22756" lon="6.42364">
        <ele>1017</ele>
        <time>2020-08-30T18:22:08Z</time>
      </trkpt>
      <trkpt lat="46.22784" lon="6.42444">
        <ele>1015</ele>
        <time>2020-08-30T18:22:23Z</time>
      </trkpt>
      <trkpt lat="46.22841" lon="6.4254">
        <ele>1016</ele>
        <time>2020-08-30T18:22:43Z</time>
      </trkpt>
      <trkpt lat="46.22886" lon="6.42578">
        <ele>1022</ele>
        <time>2020-08-30T18:22:55Z</time>
      </trkpt>
      <trkpt lat="46.22965" lon="6.42665">
        <ele>1028</ele>
        <time>2020-08-30T18:23:19Z</time>
      </trkpt>
      <trkpt lat="46.23003" lon="6.42684">
        <ele>1038</ele>
        <time>2020-08-30T18:23:28Z</time>
      </trkpt>
      <trkpt lat="46.23118" lon="6.42776">
        <ele>1044</ele>
        <time>2020-08-30T18:23:59Z</time>
      </trkpt>
      <trkpt lat="46.23131" lon="6.42781">
        <ele>1045</ele>
        <time>2020-08-30T18:24:02Z</time>
      </trkpt>
      <trkpt lat="46.23144" lon="6.42783">
        <ele>1048</ele>
        <time>2020-08-30T18:24:05Z</time>
      </trkpt>
      <trkpt lat="46.23156" lon="6.4278">
        <ele>1051</ele>
        <time>2020-08-30T18:24:08Z</time>
      </trkpt>
      <trkpt lat="46.23191" lon="6.42752">
        <ele>1063</ele>
        <time>2020-08-30T18:24:17Z</time>
      </trkpt>
      <trkpt lat="46.23205" lon="6.42749">
        <ele>1065</ele>
        <time>2020-08-30T18:24:20Z</time>
      </trkpt>
      <trkpt lat="46.23219" lon="6.42747">
        <ele>1068</ele>
        <time>2020-08-30T18:24:24Z</time>
      </trkpt>
      <trkpt lat="46.23301" lon="6.42754">
        <ele>1077</ele>
        <time>2020-08-30T18:24:43Z</time>
      </trkpt>
      <trkpt lat="46.2331" lon="6.42753">
        <ele>1078</ele>
        <time>2020-08-30T18:24:45Z</time>
      </trkpt>
      <trkpt lat="46.23318" lon="6.4275">
        <ele>1080</ele>
        <time>2020-08-30T18:24:47Z</time>
      </trkpt>
      <trkpt lat="46.23331" lon="6.42734">
        <ele>1086</ele>
        <time>2020-08-30T18:24:51Z</time>
      </trkpt>
      <trkpt lat="46.23342" lon="6.42727">
        <ele>1088</ele>
        <time>2020-08-30T18:24:54Z</time>
      </trkpt>
      <trkpt lat="46.23348" lon="6.42728">
        <ele>1088</ele>
        <time>2020-08-30T18:24:55Z</time>
      </trkpt>
      <trkpt lat="46.23358" lon="6.42735">
        <ele>1087</ele>
        <time>2020-08-30T18:24:58Z</time>
      </trkpt>
      <trkpt lat="46.23504" lon="6.42763">
        <ele>1098</ele>
        <time>2020-08-30T18:25:32Z</time>
      </trkpt>
      <trkpt lat="46.2352" lon="6.42768">
        <ele>1101</ele>
        <time>2020-08-30T18:25:36Z</time>
      </trkpt>
      <trkpt lat="46.23593" lon="6.42835">
        <ele>1108</ele>
        <time>2020-08-30T18:25:56Z</time>
      </trkpt>
      <trkpt lat="46.23599" lon="6.42835">
        <ele>1109</ele>
        <time>2020-08-30T18:25:58Z</time>
      </trkpt>
      <trkpt lat="46.23605" lon="6.42831">
        <ele>1111</ele>
        <time>2020-08-30T18:25:59Z</time>
      </trkpt>
      <trkpt lat="46.23609" lon="6.42809">
        <ele>1115</ele>
        <time>2020-08-30T18:26:03Z</time>
      </trkpt>
      <trkpt lat="46.23605" lon="6.428">
        <ele>1115</ele>
        <time>2020-08-30T18:26:04Z</time>
      </trkpt>
      <trkpt lat="46.23595" lon="6.42791">
        <ele>1114</ele>
        <time>2020-08-30T18:26:07Z</time>
      </trkpt>
      <trkpt lat="46.23483" lon="6.42653">
        <ele>1120</ele>
        <time>2020-08-30T18:26:42Z</time>
      </trkpt>
      <trkpt lat="46.23467" lon="6.42626">
        <ele>1122</ele>
        <time>2020-08-30T18:26:47Z</time>
      </trkpt>
      <trkpt lat="46.23431" lon="6.42546">
        <ele>1126</ele>
        <time>2020-08-30T18:27:03Z</time>
      </trkpt>
      <trkpt lat="46.23419" lon="6.42536">
        <ele>1125</ele>
        <time>2020-08-30T18:27:06Z</time>
      </trkpt>
      <trkpt lat="46.23408" lon="6.42531">
        <ele>1124</ele>
        <time>2020-08-30T18:27:09Z</time>
      </trkpt>
      <trkpt lat="46.23397" lon="6.42519">
        <ele>1124</ele>
        <time>2020-08-30T18:27:12Z</time>
      </trkpt>
      <trkpt lat="46.23385" lon="6.42514">
        <ele>1123</ele>
        <time>2020-08-30T18:27:15Z</time>
      </trkpt>
      <trkpt lat="46.23348" lon="6.42516">
        <ele>1118</ele>
        <time>2020-08-30T18:27:23Z</time>
      </trkpt>
      <trkpt lat="46.23337" lon="6.42514">
        <ele>1117</ele>
        <time>2020-08-30T18:27:26Z</time>
      </trkpt>
      <trkpt lat="46.23231" lon="6.42437">
        <ele>1114</ele>
        <time>2020-08-30T18:27:54Z</time>
      </trkpt>
      <trkpt lat="46.23224" lon="6.4243">
        <ele>1114</ele>
        <time>2020-08-30T18:27:56Z</time>
      </trkpt>
      <trkpt lat="46.23218" lon="6.42419">
        <ele>1114</ele>
        <time>2020-08-30T18:27:58Z</time>
      </trkpt>
      <trkpt lat="46.23196" lon="6.4235">
        <ele>1118</ele>
        <time>2020-08-30T18:28:10Z</time>
      </trkpt>
      <trkpt lat="46.23181" lon="6.42333">
        <ele>1118</ele>
        <time>2020-08-30T18:28:15Z</time>
      </trkpt>
      <trkpt lat="46.23113" lon="6.42268">
        <ele>1118</ele>
        <time>2020-08-30T18:28:34Z</time>
      </trkpt>
      <trkpt lat="46.23102" lon="6.42244">
        <ele>1120</ele>
        <time>2020-08-30T18:28:38Z</time>
      </trkpt>
      <trkpt lat="46.231" lon="6.42234">
        <ele>1121</ele>
        <time>2020-08-30T18:28:40Z</time>
      </trkpt>
      <trkpt lat="46.23103" lon="6.42215">
        <ele>1124</ele>
        <time>2020-08-30T18:28:43Z</time>
      </trkpt>
      <trkpt lat="46.23107" lon="6.42207">
        <ele>1126</ele>
        <time>2020-08-30T18:28:45Z</time>
      </trkpt>
      <trkpt lat="46.23125" lon="6.42185">
        <ele>1133</ele>
        <time>2020-08-30T18:28:50Z</time>
      </trkpt>
      <trkpt lat="46.23137" lon="6.42129">
        <ele>1142</ele>
        <time>2020-08-30T18:29:00Z</time>
      </trkpt>
      <trkpt lat="46.23136" lon="6.42109">
        <ele>1144</ele>
        <time>2020-08-30T18:29:03Z</time>
      </trkpt>
      <trkpt lat="46.23097" lon="6.41967">
        <ele>1148</ele>
        <time>2020-08-30T18:29:28Z</time>
      </trkpt>
      <trkpt lat="46.23095" lon="6.41951">
        <ele>1149</ele>
        <time>2020-08-30T18:29:30Z</time>
      </trkpt>
      <trkpt lat="46.23096" lon="6.41939">
        <ele>1151</ele>
        <time>2020-08-30T18:29:32Z</time>
      </trkpt>
      <trkpt lat="46.231" lon="6.41929">
        <ele>1153</ele>
        <time>2020-08-30T18:29:34Z</time>
      </trkpt>
      <trkpt lat="46.23208" lon="6.41805">
        <ele>1166</ele>
        <time>2020-08-30T18:30:06Z</time>
      </trkpt>
      <trkpt lat="46.23216" lon="6.41802">
        <ele>1167</ele>
        <time>2020-08-30T18:30:08Z</time>
      </trkpt>
      <trkpt lat="46.23251" lon="6.41799">
        <ele>1172</ele>
        <time>2020-08-30T18:30:16Z</time>
      </trkpt>
      <trkpt lat="46.23296" lon="6.41784">
        <ele>1179</ele>
        <time>2020-08-30T18:30:27Z</time>
      </trkpt>
      <trkpt lat="46.23318" lon="6.41772">
        <ele>1182</ele>
        <time>2020-08-30T18:30:33Z</time>
      </trkpt>
      <trkpt lat="46.23432" lon="6.41671">
        <ele>1194</ele>
        <time>2020-08-30T18:31:04Z</time>
      </trkpt>
      <trkpt lat="46.2344" lon="6.41668">
        <ele>1196</ele>
        <time>2020-08-30T18:31:06Z</time>
      </trkpt>
      <trkpt lat="46.23447" lon="6.41674">
        <ele>1198</ele>
        <time>2020-08-30T18:31:08Z</time>
      </trkpt>
      <trkpt lat="46.2345" lon="6.41686">
        <ele>1199</ele>
        <time>2020-08-30T18:31:10Z</time>
      </trkpt>
      <trkpt lat="46.23446" lon="6.41698">
        <ele>1198</ele>
        <time>2020-08-30T18:31:12Z</time>
      </trkpt>
      <trkpt lat="46.23416" lon="6.41738">
        <ele>1192</ele>
        <time>2020-08-30T18:31:22Z</time>
      </trkpt>
      <trkpt lat="46.23409" lon="6.41751">
        <ele>1192</ele>
        <time>2020-08-30T18:31:24Z</time>
      </trkpt>
      <trkpt lat="46.23406" lon="6.41827">
        <ele>1201</ele>
        <time>2020-08-30T18:31:37Z</time>
      </trkpt>
      <trkpt lat="46.23391" lon="6.41873">
        <ele>1201</ele>
        <time>2020-08-30T18:31:45Z</time>
      </trkpt>
      <trkpt lat="46.23389" lon="6.41891">
        <ele>1202</ele>
        <time>2020-08-30T18:31:48Z</time>
      </trkpt>
      <trkpt lat="46.23395" lon="6.41928">
        <ele>1202</ele>
        <time>2020-08-30T18:31:54Z</time>
      </trkpt>
      <trkpt lat="46.23417" lon="6.41966">
        <ele>1201</ele>
        <time>2020-08-30T18:32:02Z</time>
      </trkpt>
      <trkpt lat="46.23544" lon="6.42044">
        <ele>1205</ele>
        <time>2020-08-30T18:32:34Z</time>
      </trkpt>
      <trkpt lat="46.23656" lon="6.42046">
        <ele>1214</ele>
        <time>2020-08-30T18:33:00Z</time>
      </trkpt>
      <trkpt lat="46.23665" lon="6.42047">
        <ele>1214</ele>
        <time>2020-08-30T18:33:02Z</time>
      </trkpt>
      <trkpt lat="46.23672" lon="6.42051">
        <ele>1215</ele>
        <time>2020-08-30T18:33:04Z</time>
      </trkpt>
      <trkpt lat="46.23678" lon="6.42058">
        <ele>1216</ele>
        <time>2020-08-30T18:33:06Z</time>
      </trkpt>
      <trkpt lat="46.23683" lon="6.4207">
        <ele>1217</ele>
        <time>2020-08-30T18:33:08Z</time>
      </trkpt>
      <trkpt lat="46.237" lon="6.42123">
        <ele>1217</ele>
        <time>2020-08-30T18:33:18Z</time>
      </trkpt>
      <trkpt lat="46.23708" lon="6.42138">
        <ele>1218</ele>
        <time>2020-08-30T18:33:21Z</time>
      </trkpt>
      <trkpt lat="46.23776" lon="6.42193">
        <ele>1222</ele>
        <time>2020-08-30T18:33:39Z</time>
      </trkpt>
      <trkpt lat="46.23789" lon="6.42208">
        <ele>1221</ele>
        <time>2020-08-30T18:33:43Z</time>
      </trkpt>
      <trkpt lat="46.23834" lon="6.42277">
        <ele>1214</ele>
        <time>2020-08-30T18:33:58Z</time>
      </trkpt>
      <trkpt lat="46.23888" lon="6.42339">
        <ele>1214</ele>
        <time>2020-08-30T18:34:14Z</time>
      </trkpt>
      <trkpt lat="46.23903" lon="6.42349">
        <ele>1215</ele>
        <time>2020-08-30T18:34:18Z</time>
      </trkpt>
      <trkpt lat="46.23946" lon="6.42356">
        <ele>1217</ele>
        <time>2020-08-30T18:34:28Z</time>
      </trkpt>
      <trkpt lat="46.24003" lon="6.42354">
        <ele>1220</ele>
        <time>2020-08-30T18:34:41Z</time>
      </trkpt>
      <trkpt lat="46.24081" lon="6.4237">
        <ele>1226</ele>
        <time>2020-08-30T18:35:00Z</time>
      </trkpt>
      <trkpt lat="46.24096" lon="6.42378">
        <ele>1226</ele>
        <time>2020-08-30T18:35:04Z</time>
      </trkpt>
      <trkpt lat="46.24115" lon="6.42393">
        <ele>1226</ele>
        <time>2020-08-30T18:35:09Z</time>
      </trkpt>
      <trkpt lat="46.24146" lon="6.42404">
        <ele>1228</ele>
        <time>2020-08-30T18:35:16Z</time>
      </trkpt>
      <trkpt lat="46.24162" lon="6.42413">
        <ele>1228</ele>
        <time>2020-08-30T18:35:20Z</time>
      </trkpt>
      <trkpt lat="46.24189" lon="6.42451">
        <ele>1228</ele>
        <time>2020-08-30T18:35:29Z</time>
      </trkpt>
      <trkpt lat="46.24205" lon="6.42465">
        <ele>1228</ele>
        <time>2020-08-30T18:35:33Z</time>
      </trkpt>
      <trkpt lat="46.24275" lon="6.4251">
        <ele>1226</ele>
        <time>2020-08-30T18:35:51Z</time>
      </trkpt>
      <trkpt lat="46.2431" lon="6.42524">
        <ele>1226</ele>
        <time>2020-08-30T18:36:00Z</time>
      </trkpt>
      <trkpt lat="46.24344" lon="6.42531">
        <ele>1228</ele>
        <time>2020-08-30T18:36:08Z</time>
      </trkpt>
      <trkpt lat="46.24373" lon="6.42549">
        <ele>1229</ele>
        <time>2020-08-30T18:36:15Z</time>
      </trkpt>
      <trkpt lat="46.24416" lon="6.42583">
        <ele>1231</ele>
        <time>2020-08-30T18:36:26Z</time>
      </trkpt>
      <trkpt lat="46.24566" lon="6.42494">
        <ele>1262</ele>
        <time>2020-08-30T18:37:04Z</time>
      </trkpt>
      <trkpt lat="46.24589" lon="6.42456">
        <ele>1269</ele>
        <time>2020-08-30T18:37:12Z</time>
      </trkpt>
      <trkpt lat="46.24593" lon="6.42418">
        <ele>1275</ele>
        <time>2020-08-30T18:37:19Z</time>
      </trkpt>
      <trkpt lat="46.24603" lon="6.42367">
        <ele>1280</ele>
        <time>2020-08-30T18:37:27Z</time>
      </trkpt>
      <trkpt lat="46.24639" lon="6.42339">
        <ele>1286</ele>
        <time>2020-08-30T18:37:37Z</time>
      </trkpt>
      <trkpt lat="46.24702" lon="6.42313">
        <ele>1290</ele>
        <time>2020-08-30T18:37:52Z</time>
      </trkpt>
      <trkpt lat="46.24829" lon="6.42392">
        <ele>1296</ele>
        <time>2020-08-30T18:38:24Z</time>
      </trkpt>
      <trkpt lat="46.24918" lon="6.42425">
        <ele>1295</ele>
        <time>2020-08-30T18:38:46Z</time>
      </trkpt>
      <trkpt lat="46.25001" lon="6.42436">
        <ele>1297</ele>
        <time>2020-08-30T18:39:05Z</time>
      </trkpt>
      <trkpt lat="46.25034" lon="6.42459">
        <ele>1292</ele>
        <time>2020-08-30T18:39:14Z</time>
      </trkpt>
      <trkpt lat="46.2508" lon="6.42459">
        <ele>1284</ele>
        <time>2020-08-30T18:39:25Z</time>
      </trkpt>
      <trkpt lat="46.25134" lon="6.4249">
        <ele>1278</ele>
        <time>2020-08-30T18:39:38Z</time>
      </trkpt>
      <trkpt lat="46.2516" lon="6.42483">
        <ele>1272</ele>
        <time>2020-08-30T18:39:44Z</time>
      </trkpt>
      <trkpt lat="46.25221" lon="6.42513">
        <ele>1270</ele>
        <time>2020-08-30T18:39:59Z</time>
      </trkpt>
      <trkpt lat="46.25272" lon="6.42545">
        <ele>1264</ele>
        <time>2020-08-30T18:40:12Z</time>
      </trkpt>
      <trkpt lat="46.25319" lon="6.42585">
        <ele>1257</ele>
        <time>2020-08-30T18:40:25Z</time>
      </trkpt>
      <trkpt lat="46.25354" lon="6.42633">
        <ele>1245</ele>
        <time>2020-08-30T18:40:36Z</time>
      </trkpt>
      <trkpt lat="46.25372" lon="6.42639">
        <ele>1239</ele>
        <time>2020-08-30T18:40:41Z</time>
      </trkpt>
      <trkpt lat="46.25384" lon="6.42688">
        <ele>1239</ele>
        <time>2020-08-30T18:40:49Z</time>
      </trkpt>
      <trkpt lat="46.25395" lon="6.42713">
        <ele>1237</ele>
        <time>2020-08-30T18:40:54Z</time>
      </trkpt>
      <trkpt lat="46.25445" lon="6.4278">
        <ele>1233</ele>
        <time>2020-08-30T18:41:10Z</time>
      </trkpt>
      <trkpt lat="46.2552" lon="6.4284">
        <ele>1227</ele>
        <time>2020-08-30T18:41:30Z</time>
      </trkpt>
      <trkpt lat="46.25556" lon="6.42879">
        <ele>1223</ele>
        <time>2020-08-30T18:41:40Z</time>
      </trkpt>
      <trkpt lat="46.25598" lon="6.42916">
        <ele>1221</ele>
        <time>2020-08-30T18:41:52Z</time>
      </trkpt>
      <trkpt lat="46.25642" lon="6.42981">
        <ele>1218</ele>
        <time>2020-08-30T18:42:06Z</time>
      </trkpt>
      <trkpt lat="46.25679" lon="6.42999">
        <ele>1217</ele>
        <time>2020-08-30T18:42:16Z</time>
      </trkpt>
      <trkpt lat="46.25706" lon="6.43036">
        <ele>1212</ele>
        <time>2020-08-30T18:42:24Z</time>
      </trkpt>
      <trkpt lat="46.25731" lon="6.43049">
        <ele>1210</ele>
        <time>2020-08-30T18:42:30Z</time>
      </trkpt>
      <trkpt lat="46.25747" lon="6.43075">
        <ele>1210</ele>
        <time>2020-08-30T18:42:36Z</time>
      </trkpt>
      <trkpt lat="46.25771" lon="6.43036">
        <ele>1204</ele>
        <time>2020-08-30T18:42:45Z</time>
      </trkpt>
      <trkpt lat="46.25794" lon="6.4302">
        <ele>1198</ele>
        <time>2020-08-30T18:42:50Z</time>
      </trkpt>
      <trkpt lat="46.25817" lon="6.43015">
        <ele>1193</ele>
        <time>2020-08-30T18:42:56Z</time>
      </trkpt>
      <trkpt lat="46.25842" lon="6.43028">
        <ele>1187</ele>
        <time>2020-08-30T18:43:02Z</time>
      </trkpt>
      <trkpt lat="46.25863" lon="6.43027">
        <ele>1182</ele>
        <time>2020-08-30T18:43:07Z</time>
      </trkpt>
      <trkpt lat="46.25883" lon="6.4299">
        <ele>1174</ele>
        <time>2020-08-30T18:43:15Z</time>
      </trkpt>
      <trkpt lat="46.25923" lon="6.42988">
        <ele>1163</ele>
        <time>2020-08-30T18:43:24Z</time>
      </trkpt>
      <trkpt lat="46.25955" lon="6.42981">
        <ele>1155</ele>
        <time>2020-08-30T18:43:31Z</time>
      </trkpt>
      <trkpt lat="46.25971" lon="6.42971">
        <ele>1149</ele>
        <time>2020-08-30T18:43:36Z</time>
      </trkpt>
      <trkpt lat="46.25965" lon="6.42962">
        <ele>1147</ele>
        <time>2020-08-30T18:43:38Z</time>
      </trkpt>
      <trkpt lat="46.25963" lon="6.42948">
        <ele>1143</ele>
        <time>2020-08-30T18:43:40Z</time>
      </trkpt>
      <trkpt lat="46.25918" lon="6.42905">
        <ele>1137</ele>
        <time>2020-08-30T18:43:52Z</time>
      </trkpt>
      <trkpt lat="46.25905" lon="6.42879">
        <ele>1131</ele>
        <time>2020-08-30T18:43:58Z</time>
      </trkpt>
      <trkpt lat="46.25904" lon="6.42862">
        <ele>1124</ele>
        <time>2020-08-30T18:44:00Z</time>
      </trkpt>
      <trkpt lat="46.25896" lon="6.42839">
        <ele>1118</ele>
        <time>2020-08-30T18:44:05Z</time>
      </trkpt>
      <trkpt lat="46.25898" lon="6.42761">
        <ele>1092</ele>
        <time>2020-08-30T18:44:17Z</time>
      </trkpt>
      <trkpt lat="46.2589" lon="6.4275">
        <ele>1090</ele>
        <time>2020-08-30T18:44:20Z</time>
      </trkpt>
      <trkpt lat="46.25833" lon="6.42721">
        <ele>1093</ele>
        <time>2020-08-30T18:44:34Z</time>
      </trkpt>
      <trkpt lat="46.2582" lon="6.42707">
        <ele>1095</ele>
        <time>2020-08-30T18:44:38Z</time>
      </trkpt>
      <trkpt lat="46.25808" lon="6.42685">
        <ele>1093</ele>
        <time>2020-08-30T18:44:42Z</time>
      </trkpt>
      <trkpt lat="46.25794" lon="6.42648">
        <ele>1087</ele>
        <time>2020-08-30T18:44:49Z</time>
      </trkpt>
      <trkpt lat="46.25752" lon="6.42617">
        <ele>1094</ele>
        <time>2020-08-30T18:45:00Z</time>
      </trkpt>
      <trkpt lat="46.25734" lon="6.42593">
        <ele>1094</ele>
        <time>2020-08-30T18:45:06Z</time>
      </trkpt>
      <trkpt lat="46.25718" lon="6.42555">
        <ele>1090</ele>
        <time>2020-08-30T18:45:13Z</time>
      </trkpt>
      <trkpt lat="46.25684" lon="6.42491">
        <ele>1089</ele>
        <time>2020-08-30T18:45:26Z</time>
      </trkpt>
      <trkpt lat="46.25643" lon="6.42439">
        <ele>1090</ele>
        <time>2020-08-30T18:45:39Z</time>
      </trkpt>
      <trkpt lat="46.25639" lon="6.42421">
        <ele>1088</ele>
        <time>2020-08-30T18:45:42Z</time>
      </trkpt>
      <trkpt lat="46.25644" lon="6.42382">
        <ele>1085</ele>
        <time>2020-08-30T18:45:48Z</time>
      </trkpt>
      <trkpt lat="46.25651" lon="6.42352">
        <ele>1082</ele>
        <time>2020-08-30T18:45:53Z</time>
      </trkpt>
      <trkpt lat="46.25648" lon="6.42335">
        <ele>1082</ele>
        <time>2020-08-30T18:45:56Z</time>
      </trkpt>
      <trkpt lat="46.25649" lon="6.42316">
        <ele>1080</ele>
        <time>2020-08-30T18:45:59Z</time>
      </trkpt>
      <trkpt lat="46.25656" lon="6.42289">
        <ele>1077</ele>
        <time>2020-08-30T18:46:04Z</time>
      </trkpt>
      <trkpt lat="46.25656" lon="6.42264">
        <ele>1074</ele>
        <time>2020-08-30T18:46:08Z</time>
      </trkpt>
      <trkpt lat="46.25679" lon="6.42188">
        <ele>1064</ele>
        <time>2020-08-30T18:46:21Z</time>
      </trkpt>
      <trkpt lat="46.2568" lon="6.42162">
        <ele>1063</ele>
        <time>2020-08-30T18:46:25Z</time>
      </trkpt>
      <trkpt lat="46.25677" lon="6.42145">
        <ele>1063</ele>
        <time>2020-08-30T18:46:28Z</time>
      </trkpt>
      <trkpt lat="46.25649" lon="6.42099">
        <ele>1071</ele>
        <time>2020-08-30T18:46:38Z</time>
      </trkpt>
      <trkpt lat="46.25634" lon="6.42039">
        <ele>1073</ele>
        <time>2020-08-30T18:46:48Z</time>
      </trkpt>
      <trkpt lat="46.25603" lon="6.41934">
        <ele>1076</ele>
        <time>2020-08-30T18:47:07Z</time>
      </trkpt>
      <trkpt lat="46.25578" lon="6.41887">
        <ele>1079</ele>
        <time>2020-08-30T18:47:16Z</time>
      </trkpt>
      <trkpt lat="46.2557" lon="6.41865">
        <ele>1080</ele>
        <time>2020-08-30T18:47:20Z</time>
      </trkpt>
      <trkpt lat="46.25557" lon="6.41815">
        <ele>1078</ele>
        <time>2020-08-30T18:47:29Z</time>
      </trkpt>
      <trkpt lat="46.25576" lon="6.41785">
        <ele>1071</ele>
        <time>2020-08-30T18:47:36Z</time>
      </trkpt>
      <trkpt lat="46.25624" lon="6.41747">
        <ele>1060</ele>
        <time>2020-08-30T18:47:48Z</time>
      </trkpt>
      <trkpt lat="46.25706" lon="6.41727">
        <ele>1047</ele>
        <time>2020-08-30T18:48:08Z</time>
      </trkpt>
      <trkpt lat="46.25732" lon="6.41749">
        <ele>1045</ele>
        <time>2020-08-30T18:48:15Z</time>
      </trkpt>
      <trkpt lat="46.25754" lon="6.41781">
        <ele>1040</ele>
        <time>2020-08-30T18:48:22Z</time>
      </trkpt>
      <trkpt lat="46.25773" lon="6.41759">
        <ele>1032</ele>
        <time>2020-08-30T18:48:28Z</time>
      </trkpt>
      <trkpt lat="46.25808" lon="6.41708">
        <ele>1017</ele>
        <time>2020-08-30T18:48:40Z</time>
      </trkpt>
      <trkpt lat="46.25808" lon="6.41681">
        <ele>1016</ele>
        <time>2020-08-30T18:48:44Z</time>
      </trkpt>
      <trkpt lat="46.25803" lon="6.41634">
        <ele>1014</ele>
        <time>2020-08-30T18:48:52Z</time>
      </trkpt>
      <trkpt lat="46.25782" lon="6.4158">
        <ele>1017</ele>
        <time>2020-08-30T18:49:02Z</time>
      </trkpt>
      <trkpt lat="46.25707" lon="6.41489">
        <ele>1014</ele>
        <time>2020-08-30T18:49:24Z</time>
      </trkpt>
      <trkpt lat="46.2569" lon="6.41459">
        <ele>1009</ele>
        <time>2020-08-30T18:49:31Z</time>
      </trkpt>
      <trkpt lat="46.25636" lon="6.41455">
        <ele>1008</ele>
        <time>2020-08-30T18:49:43Z</time>
      </trkpt>
      <trkpt lat="46.25635" lon="6.41464">
        <ele>1010</ele>
        <time>2020-08-30T18:49:45Z</time>
      </trkpt>
      <trkpt lat="46.25527" lon="6.41449">
        <ele>999</ele>
        <time>2020-08-30T18:50:10Z</time>
      </trkpt>
      <trkpt lat="46.25496" lon="6.41439">
        <ele>995</ele>
        <time>2020-08-30T18:50:18Z</time>
      </trkpt>
      <trkpt lat="46.25446" lon="6.41364">
        <ele>980</ele>
        <time>2020-08-30T18:50:34Z</time>
      </trkpt>
      <trkpt lat="46.25421" lon="6.41342">
        <ele>977</ele>
        <time>2020-08-30T18:50:41Z</time>
      </trkpt>
      <trkpt lat="46.25378" lon="6.41328">
        <ele>983</ele>
        <time>2020-08-30T18:50:51Z</time>
      </trkpt>
      <trkpt lat="46.25365" lon="6.41307">
        <ele>983</ele>
        <time>2020-08-30T18:50:56Z</time>
      </trkpt>
      <trkpt lat="46.25317" lon="6.41108">
        <ele>962</ele>
        <time>2020-08-30T18:51:30Z</time>
      </trkpt>
      <trkpt lat="46.25317" lon="6.41082">
        <ele>959</ele>
        <time>2020-08-30T18:51:34Z</time>
      </trkpt>
      <trkpt lat="46.25338" lon="6.41014">
        <ele>951</ele>
        <time>2020-08-30T18:51:46Z</time>
      </trkpt>
      <trkpt lat="46.25341" lon="6.40988">
        <ele>950</ele>
        <time>2020-08-30T18:51:51Z</time>
      </trkpt>
      <trkpt lat="46.25337" lon="6.40977">
        <ele>951</ele>
        <time>2020-08-30T18:51:53Z</time>
      </trkpt>
      <trkpt lat="46.25333" lon="6.40973">
        <ele>951</ele>
        <time>2020-08-30T18:51:54Z</time>
      </trkpt>
      <trkpt lat="46.25308" lon="6.40967">
        <ele>959</ele>
        <time>2020-08-30T18:52:00Z</time>
      </trkpt>
      <trkpt lat="46.25292" lon="6.40948">
        <ele>963</ele>
        <time>2020-08-30T18:52:04Z</time>
      </trkpt>
      <trkpt lat="46.25287" lon="6.40913">
        <ele>964</ele>
        <time>2020-08-30T18:52:10Z</time>
      </trkpt>
      <trkpt lat="46.25307" lon="6.40872">
        <ele>960</ele>
        <time>2020-08-30T18:52:18Z</time>
      </trkpt>
      <trkpt lat="46.25307" lon="6.40865">
        <ele>960</ele>
        <time>2020-08-30T18:52:19Z</time>
      </trkpt>
      <trkpt lat="46.25257" lon="6.40814">
        <ele>970</ele>
        <time>2020-08-30T18:52:34Z</time>
      </trkpt>
      <trkpt lat="46.25206" lon="6.40729">
        <ele>970</ele>
        <time>2020-08-30T18:52:52Z</time>
      </trkpt>
      <trkpt lat="46.252" lon="6.40694">
        <ele>970</ele>
        <time>2020-08-30T18:52:58Z</time>
      </trkpt>
      <trkpt lat="46.25206" lon="6.40669">
        <ele>968</ele>
        <time>2020-08-30T18:53:02Z</time>
      </trkpt>
      <trkpt lat="46.25243" lon="6.40613">
        <ele>959</ele>
        <time>2020-08-30T18:53:15Z</time>
      </trkpt>
      <trkpt lat="46.25258" lon="6.4058">
        <ele>954</ele>
        <time>2020-08-30T18:53:21Z</time>
      </trkpt>
      <trkpt lat="46.25264" lon="6.40546">
        <ele>951</ele>
        <time>2020-08-30T18:53:27Z</time>
      </trkpt>
      <trkpt lat="46.25258" lon="6.4049">
        <ele>949</ele>
        <time>2020-08-30T18:53:36Z</time>
      </trkpt>
      <trkpt lat="46.25251" lon="6.40466">
        <ele>949</ele>
        <time>2020-08-30T18:53:40Z</time>
      </trkpt>
      <trkpt lat="46.25234" lon="6.4044">
        <ele>950</ele>
        <time>2020-08-30T18:53:46Z</time>
      </trkpt>
      <trkpt lat="46.2521" lon="6.40386">
        <ele>949</ele>
        <time>2020-08-30T18:53:56Z</time>
      </trkpt>
      <trkpt lat="46.25186" lon="6.40299">
        <ele>943</ele>
        <time>2020-08-30T18:54:11Z</time>
      </trkpt>
      <trkpt lat="46.25185" lon="6.40261">
        <ele>940</ele>
        <time>2020-08-30T18:54:17Z</time>
      </trkpt>
      <trkpt lat="46.25187" lon="6.40259">
        <ele>940</ele>
        <time>2020-08-30T18:54:18Z</time>
      </trkpt>
      <trkpt lat="46.25081" lon="6.40082">
        <ele>939</ele>
        <time>2020-08-30T18:54:56Z</time>
      </trkpt>
      <trkpt lat="46.25072" lon="6.4007">
        <ele>939</ele>
        <time>2020-08-30T18:54:59Z</time>
      </trkpt>
      <trkpt lat="46.25052" lon="6.40051">
        <ele>941</ele>
        <time>2020-08-30T18:55:04Z</time>
      </trkpt>
      <trkpt lat="46.25052" lon="6.40041">
        <ele>940</ele>
        <time>2020-08-30T18:55:06Z</time>
      </trkpt>
      <trkpt lat="46.25045" lon="6.40037">
        <ele>940</ele>
        <time>2020-08-30T18:55:08Z</time>
      </trkpt>
      <trkpt lat="46.24966" lon="6.39966">
        <ele>945</ele>
        <time>2020-08-30T18:55:29Z</time>
      </trkpt>
      <trkpt lat="46.24927" lon="6.39891">
        <ele>946</ele>
        <time>2020-08-30T18:55:44Z</time>
      </trkpt>
      <trkpt lat="46.2491" lon="6.39867">
        <ele>945</ele>
        <time>2020-08-30T18:55:50Z</time>
      </trkpt>
      <trkpt lat="46.24797" lon="6.39789">
        <ele>947</ele>
        <time>2020-08-30T18:56:19Z</time>
      </trkpt>
      <trkpt lat="46.24772" lon="6.39774">
        <ele>947</ele>
        <time>2020-08-30T18:56:25Z</time>
      </trkpt>
      <trkpt lat="46.24773" lon="6.39767">
        <ele>947</ele>
        <time>2020-08-30T18:56:27Z</time>
      </trkpt>
      <trkpt lat="46.24789" lon="6.39736">
        <ele>947</ele>
        <time>2020-08-30T18:56:33Z</time>
      </trkpt>
      <trkpt lat="46.24886" lon="6.39605">
        <ele>956</ele>
        <time>2020-08-30T18:57:04Z</time>
      </trkpt>
      <trkpt lat="46.24895" lon="6.3959">
        <ele>958</ele>
        <time>2020-08-30T18:57:07Z</time>
      </trkpt>
      <trkpt lat="46.24902" lon="6.39558">
        <ele>960</ele>
        <time>2020-08-30T18:57:13Z</time>
      </trkpt>
      <trkpt lat="46.24901" lon="6.39542">
        <ele>960</ele>
        <time>2020-08-30T18:57:15Z</time>
      </trkpt>
      <trkpt lat="46.24883" lon="6.39456">
        <ele>963</ele>
        <time>2020-08-30T18:57:30Z</time>
      </trkpt>
      <trkpt lat="46.24873" lon="6.39421">
        <ele>966</ele>
        <time>2020-08-30T18:57:36Z</time>
      </trkpt>
      <trkpt lat="46.24817" lon="6.39312">
        <ele>968</ele>
        <time>2020-08-30T18:57:58Z</time>
      </trkpt>
      <trkpt lat="46.24807" lon="6.39285">
        <ele>969</ele>
        <time>2020-08-30T18:58:03Z</time>
      </trkpt>
      <trkpt lat="46.24803" lon="6.39255">
        <ele>972</ele>
        <time>2020-08-30T18:58:08Z</time>
      </trkpt>
      <trkpt lat="46.24805" lon="6.39241">
        <ele>973</ele>
        <time>2020-08-30T18:58:10Z</time>
      </trkpt>
      <trkpt lat="46.2482" lon="6.39215">
        <ele>977</ele>
        <time>2020-08-30T18:58:15Z</time>
      </trkpt>
      <trkpt lat="46.24829" lon="6.39194">
        <ele>979</ele>
        <time>2020-08-30T18:58:19Z</time>
      </trkpt>
      <trkpt lat="46.24833" lon="6.39136">
        <ele>979</ele>
        <time>2020-08-30T18:58:29Z</time>
      </trkpt>
      <trkpt lat="46.2483" lon="6.39118">
        <ele>979</ele>
        <time>2020-08-30T18:58:32Z</time>
      </trkpt>
      <trkpt lat="46.24824" lon="6.39102">
        <ele>978</ele>
        <time>2020-08-30T18:58:35Z</time>
      </trkpt>
      <trkpt lat="46.24813" lon="6.39082">
        <ele>977</ele>
        <time>2020-08-30T18:58:39Z</time>
      </trkpt>
      <trkpt lat="46.24779" lon="6.39039">
        <ele>979</ele>
        <time>2020-08-30T18:58:49Z</time>
      </trkpt>
      <trkpt lat="46.24769" lon="6.39021">
        <ele>982</ele>
        <time>2020-08-30T18:58:53Z</time>
      </trkpt>
      <trkpt lat="46.24763" lon="6.39005">
        <ele>985</ele>
        <time>2020-08-30T18:58:56Z</time>
      </trkpt>
      <trkpt lat="46.24752" lon="6.38953">
        <ele>988</ele>
        <time>2020-08-30T18:59:05Z</time>
      </trkpt>
      <trkpt lat="46.24742" lon="6.38924">
        <ele>989</ele>
        <time>2020-08-30T18:59:10Z</time>
      </trkpt>
      <trkpt lat="46.24726" lon="6.38906">
        <ele>990</ele>
        <time>2020-08-30T18:59:15Z</time>
      </trkpt>
      <trkpt lat="46.2466" lon="6.38848">
        <ele>991</ele>
        <time>2020-08-30T18:59:33Z</time>
      </trkpt>
      <trkpt lat="46.24643" lon="6.38828">
        <ele>987</ele>
        <time>2020-08-30T18:59:38Z</time>
      </trkpt>
      <trkpt lat="46.24631" lon="6.388">
        <ele>984</ele>
        <time>2020-08-30T18:59:43Z</time>
      </trkpt>
      <trkpt lat="46.24609" lon="6.38725">
        <ele>981</ele>
        <time>2020-08-30T18:59:56Z</time>
      </trkpt>
      <trkpt lat="46.24588" lon="6.38694">
        <ele>983</ele>
        <time>2020-08-30T19:00:03Z</time>
      </trkpt>
      <trkpt lat="46.24566" lon="6.38667">
        <ele>987</ele>
        <time>2020-08-30T19:00:10Z</time>
      </trkpt>
      <trkpt lat="46.24517" lon="6.38595">
        <ele>992</ele>
        <time>2020-08-30T19:00:26Z</time>
      </trkpt>
      <trkpt lat="46.24459" lon="6.38476">
        <ele>1000</ele>
        <time>2020-08-30T19:00:50Z</time>
      </trkpt>
      <trkpt lat="46.24448" lon="6.38388">
        <ele>1000</ele>
        <time>2020-08-30T19:01:04Z</time>
      </trkpt>
      <trkpt lat="46.24441" lon="6.38373">
        <ele>1000</ele>
        <time>2020-08-30T19:01:07Z</time>
      </trkpt>
      <trkpt lat="46.24432" lon="6.38363">
        <ele>1001</ele>
        <time>2020-08-30T19:01:10Z</time>
      </trkpt>
      <trkpt lat="46.24368" lon="6.38324">
        <ele>1009</ele>
        <time>2020-08-30T19:01:26Z</time>
      </trkpt>
      <trkpt lat="46.24352" lon="6.38319">
        <ele>1012</ele>
        <time>2020-08-30T19:01:30Z</time>
      </trkpt>
      <trkpt lat="46.24344" lon="6.3832">
        <ele>1013</ele>
        <time>2020-08-30T19:01:32Z</time>
      </trkpt>
      <trkpt lat="46.24333" lon="6.3833">
        <ele>1014</ele>
        <time>2020-08-30T19:01:35Z</time>
      </trkpt>
      <trkpt lat="46.24331" lon="6.38344">
        <ele>1014</ele>
        <time>2020-08-30T19:01:37Z</time>
      </trkpt>
      <trkpt lat="46.24349" lon="6.38395">
        <ele>1011</ele>
        <time>2020-08-30T19:01:46Z</time>
      </trkpt>
      <trkpt lat="46.24349" lon="6.38411">
        <ele>1011</ele>
        <time>2020-08-30T19:01:49Z</time>
      </trkpt>
      <trkpt lat="46.24345" lon="6.38419">
        <ele>1011</ele>
        <time>2020-08-30T19:01:51Z</time>
      </trkpt>
      <trkpt lat="46.24338" lon="6.38424">
        <ele>1011</ele>
        <time>2020-08-30T19:01:52Z</time>
      </trkpt>
      <trkpt lat="46.24328" lon="6.38421">
        <ele>1013</ele>
        <time>2020-08-30T19:01:55Z</time>
      </trkpt>
      <trkpt lat="46.24323" lon="6.38415">
        <ele>1015</ele>
        <time>2020-08-30T19:01:56Z</time>
      </trkpt>
      <trkpt lat="46.24311" lon="6.38367">
        <ele>1020</ele>
        <time>2020-08-30T19:02:05Z</time>
      </trkpt>
      <trkpt lat="46.24299" lon="6.38341">
        <ele>1024</ele>
        <time>2020-08-30T19:02:10Z</time>
      </trkpt>
      <trkpt lat="46.2428" lon="6.38316">
        <ele>1030</ele>
        <time>2020-08-30T19:02:16Z</time>
      </trkpt>
      <trkpt lat="46.24208" lon="6.38238">
        <ele>1043</ele>
        <time>2020-08-30T19:02:37Z</time>
      </trkpt>
      <trkpt lat="46.24202" lon="6.38226">
        <ele>1044</ele>
        <time>2020-08-30T19:02:39Z</time>
      </trkpt>
      <trkpt lat="46.24193" lon="6.38225">
        <ele>1046</ele>
        <time>2020-08-30T19:02:41Z</time>
      </trkpt>
      <trkpt lat="46.24178" lon="6.38207">
        <ele>1048</ele>
        <time>2020-08-30T19:02:46Z</time>
      </trkpt>
      <trkpt lat="46.24131" lon="6.3816">
        <ele>1051</ele>
        <time>2020-08-30T19:02:59Z</time>
      </trkpt>
      <trkpt lat="46.24119" lon="6.38128">
        <ele>1053</ele>
        <time>2020-08-30T19:03:05Z</time>
      </trkpt>
      <trkpt lat="46.24104" lon="6.38106">
        <ele>1054</ele>
        <time>2020-08-30T19:03:10Z</time>
      </trkpt>
      <trkpt lat="46.24098" lon="6.38078">
        <ele>1054</ele>
        <time>2020-08-30T19:03:15Z</time>
      </trkpt>
      <trkpt lat="46.24089" lon="6.38057">
        <ele>1056</ele>
        <time>2020-08-30T19:03:19Z</time>
      </trkpt>
      <trkpt lat="46.24064" lon="6.38021">
        <ele>1059</ele>
        <time>2020-08-30T19:03:27Z</time>
      </trkpt>
      <trkpt lat="46.24032" lon="6.37996">
        <ele>1060</ele>
        <time>2020-08-30T19:03:35Z</time>
      </trkpt>
      <trkpt lat="46.2401" lon="6.37972">
        <ele>1064</ele>
        <time>2020-08-30T19:03:42Z</time>
      </trkpt>
      <trkpt lat="46.23962" lon="6.37938">
        <ele>1069</ele>
        <time>2020-08-30T19:03:54Z</time>
      </trkpt>
      <trkpt lat="46.23925" lon="6.37906">
        <ele>1073</ele>
        <time>2020-08-30T19:04:04Z</time>
      </trkpt>
      <trkpt lat="46.23914" lon="6.379">
        <ele>1074</ele>
        <time>2020-08-30T19:04:07Z</time>
      </trkpt>
      <trkpt lat="46.23973" lon="6.37884">
        <ele>1076</ele>
        <time>2020-08-30T19:04:21Z</time>
      </trkpt>
      <trkpt lat="46.23994" lon="6.37854">
        <ele>1078</ele>
        <time>2020-08-30T19:04:28Z</time>
      </trkpt>
      <trkpt lat="46.23997" lon="6.37829">
        <ele>1079</ele>
        <time>2020-08-30T19:04:32Z</time>
      </trkpt>
      <trkpt lat="46.23995" lon="6.37776">
        <ele>1079</ele>
        <time>2020-08-30T19:04:41Z</time>
      </trkpt>
      <trkpt lat="46.23987" lon="6.3775">
        <ele>1079</ele>
        <time>2020-08-30T19:04:45Z</time>
      </trkpt>
      <trkpt lat="46.23979" lon="6.37734">
        <ele>1081</ele>
        <time>2020-08-30T19:04:49Z</time>
      </trkpt>
      <trkpt lat="46.23974" lon="6.37707">
        <ele>1082</ele>
        <time>2020-08-30T19:04:53Z</time>
      </trkpt>
      <trkpt lat="46.23978" lon="6.37684">
        <ele>1082</ele>
        <time>2020-08-30T19:04:57Z</time>
      </trkpt>
      <trkpt lat="46.2399" lon="6.37648">
        <ele>1082</ele>
        <time>2020-08-30T19:05:03Z</time>
      </trkpt>
      <trkpt lat="46.2399" lon="6.37625">
        <ele>1084</ele>
        <time>2020-08-30T19:05:07Z</time>
      </trkpt>
      <trkpt lat="46.23984" lon="6.37603">
        <ele>1088</ele>
        <time>2020-08-30T19:05:11Z</time>
      </trkpt>
      <trkpt lat="46.23975" lon="6.37583">
        <ele>1092</ele>
        <time>2020-08-30T19:05:15Z</time>
      </trkpt>
      <trkpt lat="46.23966" lon="6.37539">
        <ele>1098</ele>
        <time>2020-08-30T19:05:22Z</time>
      </trkpt>
      <trkpt lat="46.2395" lon="6.37511">
        <ele>1104</ele>
        <time>2020-08-30T19:05:28Z</time>
      </trkpt>
      <trkpt lat="46.23932" lon="6.37491">
        <ele>1107</ele>
        <time>2020-08-30T19:05:33Z</time>
      </trkpt>
      <trkpt lat="46.23869" lon="6.37437">
        <ele>1114</ele>
        <time>2020-08-30T19:05:50Z</time>
      </trkpt>
      <trkpt lat="46.23864" lon="6.37424">
        <ele>1114</ele>
        <time>2020-08-30T19:05:53Z</time>
      </trkpt>
      <trkpt lat="46.23858" lon="6.37322">
        <ele>1112</ele>
        <time>2020-08-30T19:06:09Z</time>
      </trkpt>
      <trkpt lat="46.23819" lon="6.37254">
        <ele>1116</ele>
        <time>2020-08-30T19:06:24Z</time>
      </trkpt>
      <trkpt lat="46.23786" lon="6.37212">
        <ele>1120</ele>
        <time>2020-08-30T19:06:34Z</time>
      </trkpt>
      <trkpt lat="46.23764" lon="6.37196">
        <ele>1124</ele>
        <time>2020-08-30T19:06:40Z</time>
      </trkpt>
      <trkpt lat="46.23715" lon="6.37154">
        <ele>1125</ele>
        <time>2020-08-30T19:06:53Z</time>
      </trkpt>
      <trkpt lat="46.23718" lon="6.37139">
        <ele>1126</ele>
        <time>2020-08-30T19:06:55Z</time>
      </trkpt>
      <trkpt lat="46.23537" lon="6.37059">
        <ele>1130</ele>
        <time>2020-08-30T19:07:40Z</time>
      </trkpt>
      <trkpt lat="46.23483" lon="6.37049">
        <ele>1132</ele>
        <time>2020-08-30T19:07:52Z</time>
      </trkpt>
      <trkpt lat="46.23414" lon="6.37062">
        <ele>1130</ele>
        <time>2020-08-30T19:08:09Z</time>
      </trkpt>
      <trkpt lat="46.23336" lon="6.3709">
        <ele>1137</ele>
        <time>2020-08-30T19:08:27Z</time>
      </trkpt>
      <trkpt lat="46.23285" lon="6.37138">
        <ele>1144</ele>
        <time>2020-08-30T19:08:42Z</time>
      </trkpt>
      <trkpt lat="46.23207" lon="6.37273">
        <ele>1130</ele>
        <time>2020-08-30T19:09:10Z</time>
      </trkpt>
      <trkpt lat="46.2317" lon="6.3737">
        <ele>1110</ele>
        <time>2020-08-30T19:09:28Z</time>
      </trkpt>
      <trkpt lat="46.23126" lon="6.37419">
        <ele>1110</ele>
        <time>2020-08-30T19:09:41Z</time>
      </trkpt>
      <trkpt lat="46.23084" lon="6.37437">
        <ele>1112</ele>
        <time>2020-08-30T19:09:51Z</time>
      </trkpt>
      <trkpt lat="46.23033" lon="6.37447">
        <ele>1105</ele>
        <time>2020-08-30T19:10:03Z</time>
      </trkpt>
      <trkpt lat="46.22987" lon="6.37434">
        <ele>1104</ele>
        <time>2020-08-30T19:10:14Z</time>
      </trkpt>
      <trkpt lat="46.2295" lon="6.37411">
        <ele>1104</ele>
        <time>2020-08-30T19:10:23Z</time>
      </trkpt>
      <trkpt lat="46.22898" lon="6.37373">
        <ele>1108</ele>
        <time>2020-08-30T19:10:37Z</time>
      </trkpt>
      <trkpt lat="46.22853" lon="6.37375">
        <ele>1105</ele>
        <time>2020-08-30T19:10:48Z</time>
      </trkpt>
      <trkpt lat="46.22817" lon="6.37388">
        <ele>1102</ele>
        <time>2020-08-30T19:10:56Z</time>
      </trkpt>
      <trkpt lat="46.22729" lon="6.37401">
        <ele>1106</ele>
        <time>2020-08-30T19:11:17Z</time>
      </trkpt>
      <trkpt lat="46.2269" lon="6.37409">
        <ele>1102</ele>
        <time>2020-08-30T19:11:26Z</time>
      </trkpt>
      <trkpt lat="46.22648" lon="6.37396">
        <ele>1109</ele>
        <time>2020-08-30T19:11:36Z</time>
      </trkpt>
      <trkpt lat="46.22611" lon="6.37432">
        <ele>1101</ele>
        <time>2020-08-30T19:11:47Z</time>
      </trkpt>
      <trkpt lat="46.22563" lon="6.3747">
        <ele>1096</ele>
        <time>2020-08-30T19:11:59Z</time>
      </trkpt>
      <trkpt lat="46.22521" lon="6.37475">
        <ele>1100</ele>
        <time>2020-08-30T19:12:09Z</time>
      </trkpt>
      <trkpt lat="46.22478" lon="6.37498">
        <ele>1095</ele>
        <time>2020-08-30T19:12:20Z</time>
      </trkpt>
      <trkpt lat="46.2245" lon="6.37536">
        <ele>1088</ele>
        <time>2020-08-30T19:12:29Z</time>
      </trkpt>
      <trkpt lat="46.22434" lon="6.37575">
        <ele>1082</ele>
        <time>2020-08-30T19:12:36Z</time>
      </trkpt>
      <trkpt lat="46.22409" lon="6.37574">
        <ele>1084</ele>
        <time>2020-08-30T19:12:42Z</time>
      </trkpt>
      <trkpt lat="46.22383" lon="6.37562">
        <ele>1088</ele>
        <time>2020-08-30T19:12:48Z</time>
      </trkpt>
      <trkpt lat="46.22348" lon="6.37552">
        <ele>1092</ele>
        <time>2020-08-30T19:12:57Z</time>
      </trkpt>
      <trkpt lat="46.22309" lon="6.37523">
        <ele>1098</ele>
        <time>2020-08-30T19:13:07Z</time>
      </trkpt>
      <trkpt lat="46.22291" lon="6.37539">
        <ele>1094</ele>
        <time>2020-08-30T19:13:12Z</time>
      </trkpt>
      <trkpt lat="46.22281" lon="6.37557">
        <ele>1091</ele>
        <time>2020-08-30T19:13:16Z</time>
      </trkpt>
      <trkpt lat="46.22277" lon="6.37572">
        <ele>1088</ele>
        <time>2020-08-30T19:13:18Z</time>
      </trkpt>
      <trkpt lat="46.22261" lon="6.37549">
        <ele>1092</ele>
        <time>2020-08-30T19:13:23Z</time>
      </trkpt>
      <trkpt lat="46.22224" lon="6.37539">
        <ele>1090</ele>
        <time>2020-08-30T19:13:32Z</time>
      </trkpt>
      <trkpt lat="46.22206" lon="6.37531">
        <ele>1089</ele>
        <time>2020-08-30T19:13:37Z</time>
      </trkpt>
      <trkpt lat="46.22196" lon="6.37508">
        <ele>1092</ele>
        <time>2020-08-30T19:13:41Z</time>
      </trkpt>
      <trkpt lat="46.22164" lon="6.37457">
        <ele>1095</ele>
        <time>2020-08-30T19:13:52Z</time>
      </trkpt>
      <trkpt lat="46.22159" lon="6.37429">
        <ele>1097</ele>
        <time>2020-08-30T19:13:57Z</time>
      </trkpt>
      <trkpt lat="46.22159" lon="6.37368">
        <ele>1101</ele>
        <time>2020-08-30T19:14:07Z</time>
      </trkpt>
      <trkpt lat="46.22168" lon="6.37335">
        <ele>1105</ele>
        <time>2020-08-30T19:14:12Z</time>
      </trkpt>
      <trkpt lat="46.22162" lon="6.37291">
        <ele>1113</ele>
        <time>2020-08-30T19:14:20Z</time>
      </trkpt>
      <trkpt lat="46.22164" lon="6.37179">
        <ele>1144</ele>
        <time>2020-08-30T19:14:38Z</time>
      </trkpt>
      <trkpt lat="46.22152" lon="6.37125">
        <ele>1152</ele>
        <time>2020-08-30T19:14:47Z</time>
      </trkpt>
      <trkpt lat="46.22139" lon="6.3709">
        <ele>1155</ele>
        <time>2020-08-30T19:14:53Z</time>
      </trkpt>
      <trkpt lat="46.22141" lon="6.37046">
        <ele>1162</ele>
        <time>2020-08-30T19:15:01Z</time>
      </trkpt>
      <trkpt lat="46.22159" lon="6.37">
        <ele>1174</ele>
        <time>2020-08-30T19:15:09Z</time>
      </trkpt>
      <trkpt lat="46.22194" lon="6.36942">
        <ele>1176</ele>
        <time>2020-08-30T19:15:21Z</time>
      </trkpt>
      <trkpt lat="46.22233" lon="6.36901">
        <ele>1179</ele>
        <time>2020-08-30T19:15:33Z</time>
      </trkpt>
      <trkpt lat="46.22305" lon="6.36834">
        <ele>1185</ele>
        <time>2020-08-30T19:15:53Z</time>
      </trkpt>
      <trkpt lat="46.22452" lon="6.3676">
        <ele>1206</ele>
        <time>2020-08-30T19:16:29Z</time>
      </trkpt>
      <trkpt lat="46.22519" lon="6.36755">
        <ele>1218</ele>
        <time>2020-08-30T19:16:45Z</time>
      </trkpt>
      <trkpt lat="46.22575" lon="6.36715">
        <ele>1224</ele>
        <time>2020-08-30T19:16:59Z</time>
      </trkpt>
      <trkpt lat="46.22621" lon="6.36661">
        <ele>1227</ele>
        <time>2020-08-30T19:17:13Z</time>
      </trkpt>
      <trkpt lat="46.22625" lon="6.36623">
        <ele>1233</ele>
        <time>2020-08-30T19:17:19Z</time>
      </trkpt>
      <trkpt lat="46.22635" lon="6.36634">
        <ele>1232</ele>
        <time>2020-08-30T19:17:22Z</time>
      </trkpt>
      <trkpt lat="46.22661" lon="6.36627">
        <ele>1235</ele>
        <time>2020-08-30T19:17:29Z</time>
      </trkpt>
      <trkpt lat="46.22698" lon="6.36613">
        <ele>1234</ele>
        <time>2020-08-30T19:17:37Z</time>
      </trkpt>
      <trkpt lat="46.22734" lon="6.36595">
        <ele>1233</ele>
        <time>2020-08-30T19:17:46Z</time>
      </trkpt>
      <trkpt lat="46.22745" lon="6.36597">
        <ele>1231</ele>
        <time>2020-08-30T19:17:49Z</time>
      </trkpt>
      <trkpt lat="46.22762" lon="6.36607">
        <ele>1229</ele>
        <time>2020-08-30T19:17:53Z</time>
      </trkpt>
      <trkpt lat="46.22779" lon="6.36613">
        <ele>1227</ele>
        <time>2020-08-30T19:17:57Z</time>
      </trkpt>
      <trkpt lat="46.22788" lon="6.36614">
        <ele>1227</ele>
        <time>2020-08-30T19:17:59Z</time>
      </trkpt>
      <trkpt lat="46.22809" lon="6.36608">
        <ele>1227</ele>
        <time>2020-08-30T19:18:04Z</time>
      </trkpt>
      <trkpt lat="46.2289" lon="6.36571">
        <ele>1232</ele>
        <time>2020-08-30T19:18:24Z</time>
      </trkpt>
      <trkpt lat="46.22983" lon="6.36504">
        <ele>1240</ele>
        <time>2020-08-30T19:18:49Z</time>
      </trkpt>
      <trkpt lat="46.2301" lon="6.36492">
        <ele>1241</ele>
        <time>2020-08-30T19:18:55Z</time>
      </trkpt>
      <trkpt lat="46.2311" lon="6.36459">
        <ele>1242</ele>
        <time>2020-08-30T19:19:19Z</time>
      </trkpt>
      <trkpt lat="46.23127" lon="6.3645">
        <ele>1240</ele>
        <time>2020-08-30T19:19:23Z</time>
      </trkpt>
      <trkpt lat="46.23141" lon="6.36437">
        <ele>1240</ele>
        <time>2020-08-30T19:19:27Z</time>
      </trkpt>
      <trkpt lat="46.23158" lon="6.36415">
        <ele>1242</ele>
        <time>2020-08-30T19:19:33Z</time>
      </trkpt>
      <trkpt lat="46.23175" lon="6.36412">
        <ele>1241</ele>
        <time>2020-08-30T19:19:37Z</time>
      </trkpt>
      <trkpt lat="46.23186" lon="6.36416">
        <ele>1239</ele>
        <time>2020-08-30T19:19:39Z</time>
      </trkpt>
      <trkpt lat="46.23192" lon="6.36422">
        <ele>1237</ele>
        <time>2020-08-30T19:19:41Z</time>
      </trkpt>
      <trkpt lat="46.23235" lon="6.36384">
        <ele>1244</ele>
        <time>2020-08-30T19:19:53Z</time>
      </trkpt>
      <trkpt lat="46.23247" lon="6.36378">
        <ele>1246</ele>
        <time>2020-08-30T19:19:56Z</time>
      </trkpt>
      <trkpt lat="46.23296" lon="6.36365">
        <ele>1250</ele>
        <time>2020-08-30T19:20:07Z</time>
      </trkpt>
      <trkpt lat="46.23332" lon="6.36371">
        <ele>1247</ele>
        <time>2020-08-30T19:20:16Z</time>
      </trkpt>
      <trkpt lat="46.23361" lon="6.36358">
        <ele>1253</ele>
        <time>2020-08-30T19:20:23Z</time>
      </trkpt>
      <trkpt lat="46.23374" lon="6.36347">
        <ele>1257</ele>
        <time>2020-08-30T19:20:26Z</time>
      </trkpt>
      <trkpt lat="46.23418" lon="6.36294">
        <ele>1267</ele>
        <time>2020-08-30T19:20:40Z</time>
      </trkpt>
      <trkpt lat="46.23469" lon="6.36246">
        <ele>1268</ele>
        <time>2020-08-30T19:20:54Z</time>
      </trkpt>
      <trkpt lat="46.23539" lon="6.3621">
        <ele>1267</ele>
        <time>2020-08-30T19:21:11Z</time>
      </trkpt>
      <trkpt lat="46.23545" lon="6.36203">
        <ele>1268</ele>
        <time>2020-08-30T19:21:13Z</time>
      </trkpt>
      <trkpt lat="46.23551" lon="6.3619">
        <ele>1269</ele>
        <time>2020-08-30T19:21:16Z</time>
      </trkpt>
      <trkpt lat="46.23551" lon="6.36172">
        <ele>1271</ele>
        <time>2020-08-30T19:21:18Z</time>
      </trkpt>
      <trkpt lat="46.23548" lon="6.36165">
        <ele>1271</ele>
        <time>2020-08-30T19:21:20Z</time>
      </trkpt>
      <trkpt lat="46.23542" lon="6.36157">
        <ele>1273</ele>
        <time>2020-08-30T19:21:22Z</time>
      </trkpt>
      <trkpt lat="46.23534" lon="6.36152">
        <ele>1274</ele>
        <time>2020-08-30T19:21:24Z</time>
      </trkpt>
      <trkpt lat="46.23526" lon="6.36151">
        <ele>1274</ele>
        <time>2020-08-30T19:21:26Z</time>
      </trkpt>
      <trkpt lat="46.23527" lon="6.36132">
        <ele>1277</ele>
        <time>2020-08-30T19:21:29Z</time>
      </trkpt>
      <trkpt lat="46.23523" lon="6.36119">
        <ele>1280</ele>
        <time>2020-08-30T19:21:31Z</time>
      </trkpt>
      <trkpt lat="46.2349" lon="6.36098">
        <ele>1287</ele>
        <time>2020-08-30T19:21:39Z</time>
      </trkpt>
      <trkpt lat="46.23474" lon="6.36047">
        <ele>1300</ele>
        <time>2020-08-30T19:21:48Z</time>
      </trkpt>
      <trkpt lat="46.23449" lon="6.36024">
        <ele>1307</ele>
        <time>2020-08-30T19:21:55Z</time>
      </trkpt>
      <trkpt lat="46.2342" lon="6.36004">
        <ele>1313</ele>
        <time>2020-08-30T19:22:03Z</time>
      </trkpt>
      <trkpt lat="46.23382" lon="6.35984">
        <ele>1324</ele>
        <time>2020-08-30T19:22:12Z</time>
      </trkpt>
      <trkpt lat="46.23296" lon="6.35986">
        <ele>1339</ele>
        <time>2020-08-30T19:22:32Z</time>
      </trkpt>
      <trkpt lat="46.23269" lon="6.35975">
        <ele>1346</ele>
        <time>2020-08-30T19:22:39Z</time>
      </trkpt>
      <trkpt lat="46.23209" lon="6.35987">
        <ele>1354</ele>
        <time>2020-08-30T19:22:53Z</time>
      </trkpt>
      <trkpt lat="46.23192" lon="6.35994">
        <ele>1355</ele>
        <time>2020-08-30T19:22:57Z</time>
      </trkpt>
      <trkpt lat="46.23165" lon="6.36">
        <ele>1359</ele>
        <time>2020-08-30T19:23:04Z</time>
      </trkpt>
      <trkpt lat="46.23157" lon="6.35999">
        <ele>1361</ele>
        <time>2020-08-30T19:23:05Z</time>
      </trkpt>
      <trkpt lat="46.23139" lon="6.35993">
        <ele>1364</ele>
        <time>2020-08-30T19:23:10Z</time>
      </trkpt>
      <trkpt lat="46.23077" lon="6.3594">
        <ele>1383</ele>
        <time>2020-08-30T19:23:27Z</time>
      </trkpt>
      <trkpt lat="46.23038" lon="6.35917">
        <ele>1395</ele>
        <time>2020-08-30T19:23:36Z</time>
      </trkpt>
      <trkpt lat="46.23018" lon="6.3592">
        <ele>1397</ele>
        <time>2020-08-30T19:23:41Z</time>
      </trkpt>
      <trkpt lat="46.23002" lon="6.35932">
        <ele>1397</ele>
        <time>2020-08-30T19:23:45Z</time>
      </trkpt>
      <trkpt lat="46.22972" lon="6.35964">
        <ele>1397</ele>
        <time>2020-08-30T19:23:54Z</time>
      </trkpt>
      <trkpt lat="46.22952" lon="6.3601">
        <ele>1390</ele>
        <time>2020-08-30T19:24:03Z</time>
      </trkpt>
      <trkpt lat="46.22937" lon="6.36021">
        <ele>1390</ele>
        <time>2020-08-30T19:24:07Z</time>
      </trkpt>
      <trkpt lat="46.22916" lon="6.36026">
        <ele>1393</ele>
        <time>2020-08-30T19:24:12Z</time>
      </trkpt>
      <trkpt lat="46.229" lon="6.36034">
        <ele>1390</ele>
        <time>2020-08-30T19:24:16Z</time>
      </trkpt>
      <trkpt lat="46.22861" lon="6.3604">
        <ele>1387</ele>
        <time>2020-08-30T19:24:25Z</time>
      </trkpt>
      <trkpt lat="46.22829" lon="6.36058">
        <ele>1380</ele>
        <time>2020-08-30T19:24:33Z</time>
      </trkpt>
      <trkpt lat="46.22798" lon="6.3605">
        <ele>1374</ele>
        <time>2020-08-30T19:24:40Z</time>
      </trkpt>
      <trkpt lat="46.22749" lon="6.35966">
        <ele>1373</ele>
        <time>2020-08-30T19:24:58Z</time>
      </trkpt>
      <trkpt lat="46.22737" lon="6.35934">
        <ele>1375</ele>
        <time>2020-08-30T19:25:04Z</time>
      </trkpt>
      <trkpt lat="46.22672" lon="6.35878">
        <ele>1366</ele>
        <time>2020-08-30T19:25:22Z</time>
      </trkpt>
      <trkpt lat="46.22676" lon="6.35857">
        <ele>1372</ele>
        <time>2020-08-30T19:25:25Z</time>
      </trkpt>
      <trkpt lat="46.22674" lon="6.35845">
        <ele>1374</ele>
        <time>2020-08-30T19:25:27Z</time>
      </trkpt>
      <trkpt lat="46.22661" lon="6.3581">
        <ele>1379</ele>
        <time>2020-08-30T19:25:33Z</time>
      </trkpt>
      <trkpt lat="46.22629" lon="6.35779">
        <ele>1382</ele>
        <time>2020-08-30T19:25:42Z</time>
      </trkpt>
      <trkpt lat="46.22601" lon="6.35768">
        <ele>1381</ele>
        <time>2020-08-30T19:25:49Z</time>
      </trkpt>
      <trkpt lat="46.22569" lon="6.35759">
        <ele>1380</ele>
        <time>2020-08-30T19:25:57Z</time>
      </trkpt>
      <trkpt lat="46.22613" lon="6.35773">
        <ele>1381</ele>
        <time>2020-08-30T19:26:07Z</time>
      </trkpt>
      <trkpt lat="46.22629" lon="6.35772">
        <ele>1383</ele>
        <time>2020-08-30T19:26:11Z</time>
      </trkpt>
      <trkpt lat="46.22651" lon="6.35777">
        <ele>1385</ele>
        <time>2020-08-30T19:26:16Z</time>
      </trkpt>
      <trkpt lat="46.22669" lon="6.35764">
        <ele>1390</ele>
        <time>2020-08-30T19:26:21Z</time>
      </trkpt>
      <trkpt lat="46.22681" lon="6.35765">
        <ele>1392</ele>
        <time>2020-08-30T19:26:24Z</time>
      </trkpt>
      <trkpt lat="46.22704" lon="6.35758">
        <ele>1396</ele>
        <time>2020-08-30T19:26:29Z</time>
      </trkpt>
      <trkpt lat="46.2271" lon="6.35749">
        <ele>1398</ele>
        <time>2020-08-30T19:26:31Z</time>
      </trkpt>
      <trkpt lat="46.22726" lon="6.35741">
        <ele>1402</ele>
        <time>2020-08-30T19:26:35Z</time>
      </trkpt>
      <trkpt lat="46.22731" lon="6.35735">
        <ele>1403</ele>
        <time>2020-08-30T19:26:37Z</time>
      </trkpt>
      <trkpt lat="46.22731" lon="6.35726">
        <ele>1405</ele>
        <time>2020-08-30T19:26:38Z</time>
      </trkpt>
      <trkpt lat="46.22765" lon="6.35738">
        <ele>1408</ele>
        <time>2020-08-30T19:26:46Z</time>
      </trkpt>
      <trkpt lat="46.22771" lon="6.35741">
        <ele>1409</ele>
        <time>2020-08-30T19:26:48Z</time>
      </trkpt>
      <trkpt lat="46.22781" lon="6.35752">
        <ele>1410</ele>
        <time>2020-08-30T19:26:51Z</time>
      </trkpt>
      <trkpt lat="46.22788" lon="6.35766">
        <ele>1412</ele>
        <time>2020-08-30T19:26:54Z</time>
      </trkpt>
      <trkpt lat="46.22798" lon="6.35764">
        <ele>1414</ele>
        <time>2020-08-30T19:26:56Z</time>
      </trkpt>
      <trkpt lat="46.22805" lon="6.35811">
        <ele>1416</ele>
        <time>2020-08-30T19:27:04Z</time>
      </trkpt>
      <trkpt lat="46.22803" lon="6.35829">
        <ele>1416</ele>
        <time>2020-08-30T19:27:07Z</time>
      </trkpt>
      <trkpt lat="46.22805" lon="6.35858">
        <ele>1413</ele>
        <time>2020-08-30T19:27:11Z</time>
      </trkpt>
      <trkpt lat="46.22799" lon="6.35868">
        <ele>1410</ele>
        <time>2020-08-30T19:27:14Z</time>
      </trkpt>
      <trkpt lat="46.22804" lon="6.35761">
        <ele>1416</ele>
        <time>2020-08-30T19:27:31Z</time>
      </trkpt>
      <trkpt lat="46.22771" lon="6.35709">
        <ele>1413</ele>
        <time>2020-08-30T19:27:42Z</time>
      </trkpt>
      <trkpt lat="46.22741" lon="6.35675">
        <ele>1413</ele>
        <time>2020-08-30T19:27:51Z</time>
      </trkpt>
      <trkpt lat="46.22697" lon="6.35572">
        <ele>1429</ele>
        <time>2020-08-30T19:28:11Z</time>
      </trkpt>
      <trkpt lat="46.22625" lon="6.35546">
        <ele>1431</ele>
        <time>2020-08-30T19:28:28Z</time>
      </trkpt>
      <trkpt lat="46.22569" lon="6.35516">
        <ele>1433</ele>
        <time>2020-08-30T19:28:42Z</time>
      </trkpt>
      <trkpt lat="46.22539" lon="6.35478">
        <ele>1434</ele>
        <time>2020-08-30T19:28:51Z</time>
      </trkpt>
      <trkpt lat="46.22492" lon="6.35482">
        <ele>1428</ele>
        <time>2020-08-30T19:29:02Z</time>
      </trkpt>
      <trkpt lat="46.22447" lon="6.35469">
        <ele>1421</ele>
        <time>2020-08-30T19:29:13Z</time>
      </trkpt>
      <trkpt lat="46.22415" lon="6.35452">
        <ele>1418</ele>
        <time>2020-08-30T19:29:21Z</time>
      </trkpt>
      <trkpt lat="46.22382" lon="6.35409">
        <ele>1413</ele>
        <time>2020-08-30T19:29:31Z</time>
      </trkpt>
      <trkpt lat="46.2234" lon="6.3537">
        <ele>1401</ele>
        <time>2020-08-30T19:29:43Z</time>
      </trkpt>
      <trkpt lat="46.22284" lon="6.35323">
        <ele>1388</ele>
        <time>2020-08-30T19:29:58Z</time>
      </trkpt>
      <trkpt lat="46.22251" lon="6.35289">
        <ele>1375</ele>
        <time>2020-08-30T19:30:08Z</time>
      </trkpt>
      <trkpt lat="46.22204" lon="6.35272">
        <ele>1379</ele>
        <time>2020-08-30T19:30:19Z</time>
      </trkpt>
      <trkpt lat="46.22156" lon="6.35246">
        <ele>1385</ele>
        <time>2020-08-30T19:30:31Z</time>
      </trkpt>
      <trkpt lat="46.22118" lon="6.35229">
        <ele>1382</ele>
        <time>2020-08-30T19:30:40Z</time>
      </trkpt>
      <trkpt lat="46.22052" lon="6.3528">
        <ele>1395</ele>
        <time>2020-08-30T19:30:58Z</time>
      </trkpt>
      <trkpt lat="46.21993" lon="6.35267">
        <ele>1399</ele>
        <time>2020-08-30T19:31:12Z</time>
      </trkpt>
      <trkpt lat="46.2188" lon="6.35276">
        <ele>1408</ele>
        <time>2020-08-30T19:31:38Z</time>
      </trkpt>
      <trkpt lat="46.21776" lon="6.35323">
        <ele>1422</ele>
        <time>2020-08-30T19:32:03Z</time>
      </trkpt>
      <trkpt lat="46.21711" lon="6.35336">
        <ele>1433</ele>
        <time>2020-08-30T19:32:19Z</time>
      </trkpt>
      <trkpt lat="46.21637" lon="6.35375">
        <ele>1436</ele>
        <time>2020-08-30T19:32:37Z</time>
      </trkpt>
      <trkpt lat="46.21586" lon="6.35426">
        <ele>1436</ele>
        <time>2020-08-30T19:32:52Z</time>
      </trkpt>
      <trkpt lat="46.21527" lon="6.35469">
        <ele>1442</ele>
        <time>2020-08-30T19:33:07Z</time>
      </trkpt>
      <trkpt lat="46.21349" lon="6.35443">
        <ele>1444</ele>
        <time>2020-08-30T19:33:49Z</time>
      </trkpt>
      <trkpt lat="46.21283" lon="6.3543">
        <ele>1437</ele>
        <time>2020-08-30T19:34:04Z</time>
      </trkpt>
      <trkpt lat="46.2123" lon="6.35405">
        <ele>1427</ele>
        <time>2020-08-30T19:34:17Z</time>
      </trkpt>
      <trkpt lat="46.21179" lon="6.35396">
        <ele>1421</ele>
        <time>2020-08-30T19:34:29Z</time>
      </trkpt>
      <trkpt lat="46.21123" lon="6.35319">
        <ele>1407</ele>
        <time>2020-08-30T19:34:48Z</time>
      </trkpt>
      <trkpt lat="46.21078" lon="6.3531">
        <ele>1405</ele>
        <time>2020-08-30T19:34:58Z</time>
      </trkpt>
      <trkpt lat="46.21031" lon="6.35289">
        <ele>1399</ele>
        <time>2020-08-30T19:35:10Z</time>
      </trkpt>
      <trkpt lat="46.20974" lon="6.3528">
        <ele>1395</ele>
        <time>2020-08-30T19:35:23Z</time>
      </trkpt>
      <trkpt lat="46.20927" lon="6.35246">
        <ele>1395</ele>
        <time>2020-08-30T19:35:35Z</time>
      </trkpt>
      <trkpt lat="46.20871" lon="6.35211">
        <ele>1388</ele>
        <time>2020-08-30T19:35:50Z</time>
      </trkpt>
      <trkpt lat="46.20814" lon="6.3519">
        <ele>1386</ele>
        <time>2020-08-30T19:36:03Z</time>
      </trkpt>
      <trkpt lat="46.20767" lon="6.35143">
        <ele>1384</ele>
        <time>2020-08-30T19:36:17Z</time>
      </trkpt>
      <trkpt lat="46.20686" lon="6.35108">
        <ele>1380</ele>
        <time>2020-08-30T19:36:36Z</time>
      </trkpt>
      <trkpt lat="46.20654" lon="6.35091">
        <ele>1382</ele>
        <time>2020-08-30T19:36:44Z</time>
      </trkpt>
      <trkpt lat="46.20597" lon="6.351">
        <ele>1379</ele>
        <time>2020-08-30T19:36:58Z</time>
      </trkpt>
      <trkpt lat="46.20565" lon="6.35091">
        <ele>1380</ele>
        <time>2020-08-30T19:37:05Z</time>
      </trkpt>
      <trkpt lat="46.20523" lon="6.35083">
        <ele>1379</ele>
        <time>2020-08-30T19:37:15Z</time>
      </trkpt>
      <trkpt lat="46.20478" lon="6.35061">
        <ele>1375</ele>
        <time>2020-08-30T19:37:26Z</time>
      </trkpt>
      <trkpt lat="46.20431" lon="6.35027">
        <ele>1373</ele>
        <time>2020-08-30T19:37:39Z</time>
      </trkpt>
      <trkpt lat="46.20378" lon="6.3498">
        <ele>1370</ele>
        <time>2020-08-30T19:37:53Z</time>
      </trkpt>
      <trkpt lat="46.20318" lon="6.3498">
        <ele>1367</ele>
        <time>2020-08-30T19:38:07Z</time>
      </trkpt>
      <trkpt lat="46.20271" lon="6.3495">
        <ele>1366</ele>
        <time>2020-08-30T19:38:19Z</time>
      </trkpt>
      <trkpt lat="46.20229" lon="6.34933">
        <ele>1367</ele>
        <time>2020-08-30T19:38:29Z</time>
      </trkpt>
      <trkpt lat="46.20149" lon="6.34954">
        <ele>1366</ele>
        <time>2020-08-30T19:38:48Z</time>
      </trkpt>
      <trkpt lat="46.20098" lon="6.34963">
        <ele>1365</ele>
        <time>2020-08-30T19:39:00Z</time>
      </trkpt>
      <trkpt lat="46.20048" lon="6.35005">
        <ele>1370</ele>
        <time>2020-08-30T19:39:14Z</time>
      </trkpt>
      <trkpt lat="46.20024" lon="6.35018">
        <ele>1372</ele>
        <time>2020-08-30T19:39:20Z</time>
      </trkpt>
      <trkpt lat="46.19944" lon="6.34988">
        <ele>1385</ele>
        <time>2020-08-30T19:39:39Z</time>
      </trkpt>
      <trkpt lat="46.19881" lon="6.34975">
        <ele>1386</ele>
        <time>2020-08-30T19:39:54Z</time>
      </trkpt>
      <trkpt lat="46.19849" lon="6.34941">
        <ele>1388</ele>
        <time>2020-08-30T19:40:03Z</time>
      </trkpt>
      <trkpt lat="46.1978" lon="6.34933">
        <ele>1391</ele>
        <time>2020-08-30T19:40:19Z</time>
      </trkpt>
      <trkpt lat="46.19733" lon="6.34911">
        <ele>1391</ele>
        <time>2020-08-30T19:40:31Z</time>
      </trkpt>
      <trkpt lat="46.19688" lon="6.34851">
        <ele>1381</ele>
        <time>2020-08-30T19:40:45Z</time>
      </trkpt>
      <trkpt lat="46.19641" lon="6.34821">
        <ele>1371</ele>
        <time>2020-08-30T19:40:57Z</time>
      </trkpt>
      <trkpt lat="46.19546" lon="6.34782">
        <ele>1349</ele>
        <time>2020-08-30T19:41:20Z</time>
      </trkpt>
      <trkpt lat="46.19513" lon="6.34782">
        <ele>1343</ele>
        <time>2020-08-30T19:41:28Z</time>
      </trkpt>
      <trkpt lat="46.19472" lon="6.34748">
        <ele>1332</ele>
        <time>2020-08-30T19:41:39Z</time>
      </trkpt>
      <trkpt lat="46.19415" lon="6.34791">
        <ele>1319</ele>
        <time>2020-08-30T19:41:54Z</time>
      </trkpt>
      <trkpt lat="46.19382" lon="6.34847">
        <ele>1312</ele>
        <time>2020-08-30T19:42:06Z</time>
      </trkpt>
      <trkpt lat="46.19341" lon="6.34898">
        <ele>1301</ele>
        <time>2020-08-30T19:42:19Z</time>
      </trkpt>
      <trkpt lat="46.19295" lon="6.34939">
        <ele>1292</ele>
        <time>2020-08-30T19:42:31Z</time>
      </trkpt>
      <trkpt lat="46.19272" lon="6.34974">
        <ele>1289</ele>
        <time>2020-08-30T19:42:39Z</time>
      </trkpt>
      <trkpt lat="46.19275" lon="6.35008">
        <ele>1289</ele>
        <time>2020-08-30T19:42:45Z</time>
      </trkpt>
      <trkpt lat="46.19327" lon="6.34987">
        <ele>1292</ele>
        <time>2020-08-30T19:42:57Z</time>
      </trkpt>
      <trkpt lat="46.19349" lon="6.3497">
        <ele>1295</ele>
        <time>2020-08-30T19:43:03Z</time>
      </trkpt>
      <trkpt lat="46.19416" lon="6.34926">
        <ele>1308</ele>
        <time>2020-08-30T19:43:20Z</time>
      </trkpt>
      <trkpt lat="46.19469" lon="6.34967">
        <ele>1313</ele>
        <time>2020-08-30T19:43:34Z</time>
      </trkpt>
      <trkpt lat="46.19508" lon="6.35005">
        <ele>1317</ele>
        <time>2020-08-30T19:43:45Z</time>
      </trkpt>
      <trkpt lat="46.1957" lon="6.35097">
        <ele>1329</ele>
        <time>2020-08-30T19:44:06Z</time>
      </trkpt>
      <trkpt lat="46.19598" lon="6.35161">
        <ele>1329</ele>
        <time>2020-08-30T19:44:18Z</time>
      </trkpt>
      <trkpt lat="46.19614" lon="6.35219">
        <ele>1326</ele>
        <time>2020-08-30T19:44:28Z</time>
      </trkpt>
      <trkpt lat="46.19671" lon="6.35242">
        <ele>1328</ele>
        <time>2020-08-30T19:44:42Z</time>
      </trkpt>
      <trkpt lat="46.19642" lon="6.3528">
        <ele>1324</ele>
        <time>2020-08-30T19:44:51Z</time>
      </trkpt>
      <trkpt lat="46.19621" lon="6.35326">
        <ele>1321</ele>
        <time>2020-08-30T19:45:00Z</time>
      </trkpt>
      <trkpt lat="46.196" lon="6.35326">
        <ele>1321</ele>
        <time>2020-08-30T19:45:05Z</time>
      </trkpt>
      <trkpt lat="46.19549" lon="6.35362">
        <ele>1316</ele>
        <time>2020-08-30T19:45:18Z</time>
      </trkpt>
      <trkpt lat="46.19533" lon="6.35393">
        <ele>1314</ele>
        <time>2020-08-30T19:45:25Z</time>
      </trkpt>
      <trkpt lat="46.19535" lon="6.35436">
        <ele>1313</ele>
        <time>2020-08-30T19:45:32Z</time>
      </trkpt>
      <trkpt lat="46.19529" lon="6.35477">
        <ele>1312</ele>
        <time>2020-08-30T19:45:38Z</time>
      </trkpt>
      <trkpt lat="46.19545" lon="6.35533">
        <ele>1313</ele>
        <time>2020-08-30T19:45:48Z</time>
      </trkpt>
      <trkpt lat="46.19577" lon="6.35571">
        <ele>1315</ele>
        <time>2020-08-30T19:45:58Z</time>
      </trkpt>
      <trkpt lat="46.19609" lon="6.35622">
        <ele>1310</ele>
        <time>2020-08-30T19:46:09Z</time>
      </trkpt>
      <trkpt lat="46.19618" lon="6.35668">
        <ele>1306</ele>
        <time>2020-08-30T19:46:17Z</time>
      </trkpt>
      <trkpt lat="46.19618" lon="6.35717">
        <ele>1301</ele>
        <time>2020-08-30T19:46:25Z</time>
      </trkpt>
      <trkpt lat="46.19649" lon="6.3576">
        <ele>1298</ele>
        <time>2020-08-30T19:46:35Z</time>
      </trkpt>
      <trkpt lat="46.19718" lon="6.35875">
        <ele>1286</ele>
        <time>2020-08-30T19:46:59Z</time>
      </trkpt>
      <trkpt lat="46.19777" lon="6.35944">
        <ele>1279</ele>
        <time>2020-08-30T19:47:17Z</time>
      </trkpt>
      <trkpt lat="46.19838" lon="6.35959">
        <ele>1269</ele>
        <time>2020-08-30T19:47:31Z</time>
      </trkpt>
      <trkpt lat="46.19891" lon="6.3599">
        <ele>1250</ele>
        <time>2020-08-30T19:47:45Z</time>
      </trkpt>
      <trkpt lat="46.19923" lon="6.36054">
        <ele>1236</ele>
        <time>2020-08-30T19:47:57Z</time>
      </trkpt>
      <trkpt lat="46.19946" lon="6.36112">
        <ele>1225</ele>
        <time>2020-08-30T19:48:08Z</time>
      </trkpt>
      <trkpt lat="46.19948" lon="6.36194">
        <ele>1211</ele>
        <time>2020-08-30T19:48:22Z</time>
      </trkpt>
      <trkpt lat="46.19971" lon="6.36191">
        <ele>1208</ele>
        <time>2020-08-30T19:48:27Z</time>
      </trkpt>
      <trkpt lat="46.19967" lon="6.36151">
        <ele>1215</ele>
        <time>2020-08-30T19:48:33Z</time>
      </trkpt>
      <trkpt lat="46.19997" lon="6.36123">
        <ele>1211</ele>
        <time>2020-08-30T19:48:42Z</time>
      </trkpt>
      <trkpt lat="46.20026" lon="6.36089">
        <ele>1205</ele>
        <time>2020-08-30T19:48:51Z</time>
      </trkpt>
      <trkpt lat="46.20033" lon="6.36056">
        <ele>1202</ele>
        <time>2020-08-30T19:48:56Z</time>
      </trkpt>
      <trkpt lat="46.20027" lon="6.36026">
        <ele>1202</ele>
        <time>2020-08-30T19:49:01Z</time>
      </trkpt>
      <trkpt lat="46.20036" lon="6.35985">
        <ele>1199</ele>
        <time>2020-08-30T19:49:08Z</time>
      </trkpt>
      <trkpt lat="46.20049" lon="6.35946">
        <ele>1196</ele>
        <time>2020-08-30T19:49:15Z</time>
      </trkpt>
      <trkpt lat="46.20066" lon="6.35929">
        <ele>1192</ele>
        <time>2020-08-30T19:49:20Z</time>
      </trkpt>
      <trkpt lat="46.20126" lon="6.35946">
        <ele>1182</ele>
        <time>2020-08-30T19:49:34Z</time>
      </trkpt>
      <trkpt lat="46.20236" lon="6.35937">
        <ele>1166</ele>
        <time>2020-08-30T19:50:00Z</time>
      </trkpt>
      <trkpt lat="46.20239" lon="6.3591">
        <ele>1169</ele>
        <time>2020-08-30T19:50:04Z</time>
      </trkpt>
      <trkpt lat="46.20256" lon="6.3589">
        <ele>1168</ele>
        <time>2020-08-30T19:50:09Z</time>
      </trkpt>
      <trkpt lat="46.20276" lon="6.35884">
        <ele>1169</ele>
        <time>2020-08-30T19:50:14Z</time>
      </trkpt>
      <trkpt lat="46.20273" lon="6.35888">
        <ele>1169</ele>
        <time>2020-08-30T19:50:15Z</time>
      </trkpt>
      <trkpt lat="46.20267" lon="6.35926">
        <ele>1165</ele>
        <time>2020-08-30T19:50:22Z</time>
      </trkpt>
      <trkpt lat="46.20261" lon="6.35941">
        <ele>1164</ele>
        <time>2020-08-30T19:50:24Z</time>
      </trkpt>
      <trkpt lat="46.2025" lon="6.35954">
        <ele>1162</ele>
        <time>2020-08-30T19:50:28Z</time>
      </trkpt>
      <trkpt lat="46.20195" lon="6.36006">
        <ele>1166</ele>
        <time>2020-08-30T19:50:43Z</time>
      </trkpt>
      <trkpt lat="46.20181" lon="6.36029">
        <ele>1166</ele>
        <time>2020-08-30T19:50:48Z</time>
      </trkpt>
      <trkpt lat="46.20169" lon="6.3609">
        <ele>1163</ele>
        <time>2020-08-30T19:50:58Z</time>
      </trkpt>
      <trkpt lat="46.20163" lon="6.36173">
        <ele>1159</ele>
        <time>2020-08-30T19:51:12Z</time>
      </trkpt>
      <trkpt lat="46.20155" lon="6.3619">
        <ele>1159</ele>
        <time>2020-08-30T19:51:15Z</time>
      </trkpt>
      <trkpt lat="46.20114" lon="6.36258">
        <ele>1164</ele>
        <time>2020-08-30T19:51:30Z</time>
      </trkpt>
      <trkpt lat="46.2011" lon="6.36267">
        <ele>1164</ele>
        <time>2020-08-30T19:51:31Z</time>
      </trkpt>
      <trkpt lat="46.20105" lon="6.36297">
        <ele>1158</ele>
        <time>2020-08-30T19:51:36Z</time>
      </trkpt>
      <trkpt lat="46.20099" lon="6.36315">
        <ele>1155</ele>
        <time>2020-08-30T19:51:40Z</time>
      </trkpt>
      <trkpt lat="46.20086" lon="6.36325">
        <ele>1157</ele>
        <time>2020-08-30T19:51:43Z</time>
      </trkpt>
      <trkpt lat="46.20066" lon="6.36326">
        <ele>1159</ele>
        <time>2020-08-30T19:51:48Z</time>
      </trkpt>
      <trkpt lat="46.20024" lon="6.36321">
        <ele>1167</ele>
        <time>2020-08-30T19:51:57Z</time>
      </trkpt>
      <trkpt lat="46.19971" lon="6.36327">
        <ele>1167</ele>
        <time>2020-08-30T19:52:10Z</time>
      </trkpt>
      <trkpt lat="46.19917" lon="6.3631">
        <ele>1172</ele>
        <time>2020-08-30T19:52:23Z</time>
      </trkpt>
      <trkpt lat="46.19902" lon="6.36308">
        <ele>1174</ele>
        <time>2020-08-30T19:52:26Z</time>
      </trkpt>
      <trkpt lat="46.19894" lon="6.3631">
        <ele>1174</ele>
        <time>2020-08-30T19:52:28Z</time>
      </trkpt>
      <trkpt lat="46.19878" lon="6.36325">
        <ele>1170</ele>
        <time>2020-08-30T19:52:33Z</time>
      </trkpt>
      <trkpt lat="46.19811" lon="6.3637">
        <ele>1163</ele>
        <time>2020-08-30T19:52:50Z</time>
      </trkpt>
      <trkpt lat="46.19764" lon="6.36375">
        <ele>1166</ele>
        <time>2020-08-30T19:53:01Z</time>
      </trkpt>
      <trkpt lat="46.19778" lon="6.36393">
        <ele>1160</ele>
        <time>2020-08-30T19:53:05Z</time>
      </trkpt>
      <trkpt lat="46.19736" lon="6.36475">
        <ele>1148</ele>
        <time>2020-08-30T19:53:22Z</time>
      </trkpt>
      <trkpt lat="46.19704" lon="6.36475">
        <ele>1148</ele>
        <time>2020-08-30T19:53:29Z</time>
      </trkpt>
      <trkpt lat="46.19692" lon="6.3649">
        <ele>1145</ele>
        <time>2020-08-30T19:53:33Z</time>
      </trkpt>
      <trkpt lat="46.19704" lon="6.36505">
        <ele>1142</ele>
        <time>2020-08-30T19:53:37Z</time>
      </trkpt>
      <trkpt lat="46.19793" lon="6.36541">
        <ele>1130</ele>
        <time>2020-08-30T19:53:58Z</time>
      </trkpt>
      <trkpt lat="46.19902" lon="6.36564">
        <ele>1110</ele>
        <time>2020-08-30T19:54:24Z</time>
      </trkpt>
      <trkpt lat="46.1995" lon="6.36561">
        <ele>1101</ele>
        <time>2020-08-30T19:54:35Z</time>
      </trkpt>
      <trkpt lat="46.19997" lon="6.36531">
        <ele>1098</ele>
        <time>2020-08-30T19:54:47Z</time>
      </trkpt>
      <trkpt lat="46.20057" lon="6.36533">
        <ele>1089</ele>
        <time>2020-08-30T19:55:01Z</time>
      </trkpt>
      <trkpt lat="46.20086" lon="6.36526">
        <ele>1087</ele>
        <time>2020-08-30T19:55:08Z</time>
      </trkpt>
      <trkpt lat="46.2013" lon="6.36556">
        <ele>1075</ele>
        <time>2020-08-30T19:55:19Z</time>
      </trkpt>
      <trkpt lat="46.2019" lon="6.36564">
        <ele>1069</ele>
        <time>2020-08-30T19:55:34Z</time>
      </trkpt>
      <trkpt lat="46.20216" lon="6.36538">
        <ele>1075</ele>
        <time>2020-08-30T19:55:41Z</time>
      </trkpt>
      <trkpt lat="46.20273" lon="6.3649">
        <ele>1089</ele>
        <time>2020-08-30T19:55:56Z</time>
      </trkpt>
      <trkpt lat="46.20291" lon="6.36569">
        <ele>1084</ele>
        <time>2020-08-30T19:56:10Z</time>
      </trkpt>
      <trkpt lat="46.20294" lon="6.36618">
        <ele>1082</ele>
        <time>2020-08-30T19:56:18Z</time>
      </trkpt>
      <trkpt lat="46.20294" lon="6.36674">
        <ele>1077</ele>
        <time>2020-08-30T19:56:27Z</time>
      </trkpt>
      <trkpt lat="46.20305" lon="6.36722">
        <ele>1078</ele>
        <time>2020-08-30T19:56:35Z</time>
      </trkpt>
      <trkpt lat="46.20312" lon="6.36883">
        <ele>1071</ele>
        <time>2020-08-30T19:57:01Z</time>
      </trkpt>
      <trkpt lat="46.20296" lon="6.36914">
        <ele>1068</ele>
        <time>2020-08-30T19:57:07Z</time>
      </trkpt>
      <trkpt lat="46.20328" lon="6.36952">
        <ele>1075</ele>
        <time>2020-08-30T19:57:17Z</time>
      </trkpt>
      <trkpt lat="46.20398" lon="6.36975">
        <ele>1080</ele>
        <time>2020-08-30T19:57:34Z</time>
      </trkpt>
      <trkpt lat="46.20518" lon="6.37085">
        <ele>1081</ele>
        <time>2020-08-30T19:58:07Z</time>
      </trkpt>
      <trkpt lat="46.20548" lon="6.37128">
        <ele>1079</ele>
        <time>2020-08-30T19:58:17Z</time>
      </trkpt>
      <trkpt lat="46.20607" lon="6.37182">
        <ele>1077</ele>
        <time>2020-08-30T19:58:33Z</time>
      </trkpt>
      <trkpt lat="46.20679" lon="6.37182">
        <ele>1085</ele>
        <time>2020-08-30T19:58:50Z</time>
      </trkpt>
      <trkpt lat="46.20732" lon="6.37197">
        <ele>1088</ele>
        <time>2020-08-30T19:59:02Z</time>
      </trkpt>
      <trkpt lat="46.20769" lon="6.37166">
        <ele>1102</ele>
        <time>2020-08-30T19:59:12Z</time>
      </trkpt>
      <trkpt lat="46.20822" lon="6.37161">
        <ele>1101</ele>
        <time>2020-08-30T19:59:25Z</time>
      </trkpt>
      <trkpt lat="46.20866" lon="6.37207">
        <ele>1094</ele>
        <time>2020-08-30T19:59:38Z</time>
      </trkpt>
      <trkpt lat="46.20872" lon="6.37263">
        <ele>1081</ele>
        <time>2020-08-30T19:59:47Z</time>
      </trkpt>
      <trkpt lat="46.2091" lon="6.37278">
        <ele>1088</ele>
        <time>2020-08-30T19:59:56Z</time>
      </trkpt>
      <trkpt lat="46.20948" lon="6.37309">
        <ele>1086</ele>
        <time>2020-08-30T20:00:06Z</time>
      </trkpt>
      <trkpt lat="46.20993" lon="6.37365">
        <ele>1076</ele>
        <time>2020-08-30T20:00:20Z</time>
      </trkpt>
      <trkpt lat="46.21099" lon="6.37391">
        <ele>1072</ele>
        <time>2020-08-30T20:00:45Z</time>
      </trkpt>
      <trkpt lat="46.21121" lon="6.37342">
        <ele>1086</ele>
        <time>2020-08-30T20:00:55Z</time>
      </trkpt>
      <trkpt lat="46.21152" lon="6.3733">
        <ele>1092</ele>
        <time>2020-08-30T20:01:02Z</time>
      </trkpt>
      <trkpt lat="46.21212" lon="6.37373">
        <ele>1079</ele>
        <time>2020-08-30T20:01:18Z</time>
      </trkpt>
      <trkpt lat="46.21272" lon="6.37363">
        <ele>1083</ele>
        <time>2020-08-30T20:01:32Z</time>
      </trkpt>
      <trkpt lat="46.21322" lon="6.37434">
        <ele>1068</ele>
        <time>2020-08-30T20:01:48Z</time>
      </trkpt>
      <trkpt lat="46.21299" lon="6.37488">
        <ele>1049</ele>
        <time>2020-08-30T20:01:58Z</time>
      </trkpt>
      <trkpt lat="46.21274" lon="6.37508">
        <ele>1043</ele>
        <time>2020-08-30T20:02:05Z</time>
      </trkpt>
      <trkpt lat="46.21264" lon="6.37536">
        <ele>1034</ele>
        <time>2020-08-30T20:02:10Z</time>
      </trkpt>
      <trkpt lat="46.21272" lon="6.37559">
        <ele>1028</ele>
        <time>2020-08-30T20:02:14Z</time>
      </trkpt>
      <trkpt lat="46.21301" lon="6.37595">
        <ele>1017</ele>
        <time>2020-08-30T20:02:23Z</time>
      </trkpt>
      <trkpt lat="46.21325" lon="6.37643">
        <ele>1001</ele>
        <time>2020-08-30T20:02:33Z</time>
      </trkpt>
      <trkpt lat="46.21325" lon="6.37674">
        <ele>992</ele>
        <time>2020-08-30T20:02:38Z</time>
      </trkpt>
      <trkpt lat="46.21373" lon="6.37636">
        <ele>1000</ele>
        <time>2020-08-30T20:02:51Z</time>
      </trkpt>
      <trkpt lat="46.21408" lon="6.376">
        <ele>1008</ele>
        <time>2020-08-30T20:03:01Z</time>
      </trkpt>
      <trkpt lat="46.2143" lon="6.37569">
        <ele>1013</ele>
        <time>2020-08-30T20:03:08Z</time>
      </trkpt>
      <trkpt lat="46.2144" lon="6.37536">
        <ele>1022</ele>
        <time>2020-08-30T20:03:14Z</time>
      </trkpt>
      <trkpt lat="46.2144" lon="6.375">
        <ele>1035</ele>
        <time>2020-08-30T20:03:19Z</time>
      </trkpt>
      <trkpt lat="46.21484" lon="6.37442">
        <ele>1046</ele>
        <time>2020-08-30T20:03:33Z</time>
      </trkpt>
      <trkpt lat="46.21525" lon="6.37409">
        <ele>1047</ele>
        <time>2020-08-30T20:03:44Z</time>
      </trkpt>
      <trkpt lat="46.21541" lon="6.37373">
        <ele>1052</ele>
        <time>2020-08-30T20:03:51Z</time>
      </trkpt>
      <trkpt lat="46.21543" lon="6.37332">
        <ele>1063</ele>
        <time>2020-08-30T20:03:58Z</time>
      </trkpt>
      <trkpt lat="46.21596" lon="6.3722">
        <ele>1083</ele>
        <time>2020-08-30T20:04:20Z</time>
      </trkpt>
      <trkpt lat="46.2164" lon="6.37227">
        <ele>1075</ele>
        <time>2020-08-30T20:04:30Z</time>
      </trkpt>
      <trkpt lat="46.21677" lon="6.37215">
        <ele>1072</ele>
        <time>2020-08-30T20:04:39Z</time>
      </trkpt>
      <trkpt lat="46.21691" lon="6.37153">
        <ele>1083</ele>
        <time>2020-08-30T20:04:50Z</time>
      </trkpt>
      <trkpt lat="46.21714" lon="6.37128">
        <ele>1079</ele>
        <time>2020-08-30T20:04:56Z</time>
      </trkpt>
      <trkpt lat="46.21716" lon="6.37069">
        <ele>1088</ele>
        <time>2020-08-30T20:05:06Z</time>
      </trkpt>
      <trkpt lat="46.21737" lon="6.37026">
        <ele>1083</ele>
        <time>2020-08-30T20:05:14Z</time>
      </trkpt>
      <trkpt lat="46.21751" lon="6.36982">
        <ele>1081</ele>
        <time>2020-08-30T20:05:22Z</time>
      </trkpt>
      <trkpt lat="46.21795" lon="6.36908">
        <ele>1079</ele>
        <time>2020-08-30T20:05:38Z</time>
      </trkpt>
      <trkpt lat="46.21829" lon="6.3688">
        <ele>1073</ele>
        <time>2020-08-30T20:05:47Z</time>
      </trkpt>
      <trkpt lat="46.2185" lon="6.36801">
        <ele>1075</ele>
        <time>2020-08-30T20:06:01Z</time>
      </trkpt>
      <trkpt lat="46.21912" lon="6.3676">
        <ele>1076</ele>
        <time>2020-08-30T20:06:17Z</time>
      </trkpt>
      <trkpt lat="46.21928" lon="6.36735">
        <ele>1079</ele>
        <time>2020-08-30T20:06:22Z</time>
      </trkpt>
      <trkpt lat="46.21984" lon="6.36694">
        <ele>1087</ele>
        <time>2020-08-30T20:06:37Z</time>
      </trkpt>
      <trkpt lat="46.21988" lon="6.36763">
        <ele>1087</ele>
        <time>2020-08-30T20:06:48Z</time>
      </trkpt>
      <trkpt lat="46.21996" lon="6.36806">
        <ele>1092</ele>
        <time>2020-08-30T20:06:55Z</time>
      </trkpt>
      <trkpt lat="46.21996" lon="6.36855">
        <ele>1097</ele>
        <time>2020-08-30T20:07:03Z</time>
      </trkpt>
      <trkpt lat="46.21979" lon="6.36888">
        <ele>1097</ele>
        <time>2020-08-30T20:07:10Z</time>
      </trkpt>
      <trkpt lat="46.21968" lon="6.36919">
        <ele>1096</ele>
        <time>2020-08-30T20:07:15Z</time>
      </trkpt>
      <trkpt lat="46.21963" lon="6.36949">
        <ele>1093</ele>
        <time>2020-08-30T20:07:20Z</time>
      </trkpt>
      <trkpt lat="46.21977" lon="6.3697">
        <ele>1098</ele>
        <time>2020-08-30T20:07:25Z</time>
      </trkpt>
      <trkpt lat="46.2197" lon="6.37011">
        <ele>1092</ele>
        <time>2020-08-30T20:07:32Z</time>
      </trkpt>
      <trkpt lat="46.21988" lon="6.37054">
        <ele>1093</ele>
        <time>2020-08-30T20:07:40Z</time>
      </trkpt>
      <trkpt lat="46.22018" lon="6.37097">
        <ele>1098</ele>
        <time>2020-08-30T20:07:50Z</time>
      </trkpt>
      <trkpt lat="46.22037" lon="6.37143">
        <ele>1095</ele>
        <time>2020-08-30T20:07:59Z</time>
      </trkpt>
      <trkpt lat="46.22051" lon="6.37202">
        <ele>1088</ele>
        <time>2020-08-30T20:08:09Z</time>
      </trkpt>
      <trkpt lat="46.22056" lon="6.37263">
        <ele>1079</ele>
        <time>2020-08-30T20:08:19Z</time>
      </trkpt>
      <trkpt lat="46.22095" lon="6.37409">
        <ele>1082</ele>
        <time>2020-08-30T20:08:44Z</time>
      </trkpt>
      <trkpt lat="46.22099" lon="6.37442">
        <ele>1083</ele>
        <time>2020-08-30T20:08:49Z</time>
      </trkpt>
      <trkpt lat="46.22145" lon="6.37511">
        <ele>1085</ele>
        <time>2020-08-30T20:09:05Z</time>
      </trkpt>
      <trkpt lat="46.22199" lon="6.37534">
        <ele>1087</ele>
        <time>2020-08-30T20:09:18Z</time>
      </trkpt>
      <trkpt lat="46.22276" lon="6.3758">
        <ele>1087</ele>
        <time>2020-08-30T20:09:37Z</time>
      </trkpt>
      <trkpt lat="46.22321" lon="6.37567">
        <ele>1090</ele>
        <time>2020-08-30T20:09:48Z</time>
      </trkpt>
      <trkpt lat="46.2237" lon="6.37568">
        <ele>1088</ele>
        <time>2020-08-30T20:09:59Z</time>
      </trkpt>
      <trkpt lat="46.2242" lon="6.37585">
        <ele>1081</ele>
        <time>2020-08-30T20:10:11Z</time>
      </trkpt>
      <trkpt lat="46.2247" lon="6.37576">
        <ele>1077</ele>
        <time>2020-08-30T20:10:23Z</time>
      </trkpt>
      <trkpt lat="46.22504" lon="6.37556">
        <ele>1078</ele>
        <time>2020-08-30T20:10:32Z</time>
      </trkpt>
      <trkpt lat="46.22579" lon="6.37547">
        <ele>1070</ele>
        <time>2020-08-30T20:10:49Z</time>
      </trkpt>
      <trkpt lat="46.2263" lon="6.3756">
        <ele>1057</ele>
        <time>2020-08-30T20:11:01Z</time>
      </trkpt>
      <trkpt lat="46.22675" lon="6.37592">
        <ele>1041</ele>
        <time>2020-08-30T20:11:13Z</time>
      </trkpt>
      <trkpt lat="46.22716" lon="6.37629">
        <ele>1030</ele>
        <time>2020-08-30T20:11:24Z</time>
      </trkpt>
      <trkpt lat="46.22748" lon="6.37671">
        <ele>1016</ele>
        <time>2020-08-30T20:11:35Z</time>
      </trkpt>
      <trkpt lat="46.22789" lon="6.37691">
        <ele>1013</ele>
        <time>2020-08-30T20:11:45Z</time>
      </trkpt>
      <trkpt lat="46.22815" lon="6.37718">
        <ele>1009</ele>
        <time>2020-08-30T20:11:52Z</time>
      </trkpt>
      <trkpt lat="46.22823" lon="6.37741">
        <ele>1006</ele>
        <time>2020-08-30T20:11:56Z</time>
      </trkpt>
      <trkpt lat="46.22847" lon="6.37768">
        <ele>1001</ele>
        <time>2020-08-30T20:12:03Z</time>
      </trkpt>
      <trkpt lat="46.22869" lon="6.37812">
        <ele>991</ele>
        <time>2020-08-30T20:12:12Z</time>
      </trkpt>
      <trkpt lat="46.22896" lon="6.37824">
        <ele>988</ele>
        <time>2020-08-30T20:12:19Z</time>
      </trkpt>
      <trkpt lat="46.22931" lon="6.37826">
        <ele>986</ele>
        <time>2020-08-30T20:12:27Z</time>
      </trkpt>
      <trkpt lat="46.22941" lon="6.3782">
        <ele>987</ele>
        <time>2020-08-30T20:12:29Z</time>
      </trkpt>
      <trkpt lat="46.22993" lon="6.37816">
        <ele>985</ele>
        <time>2020-08-30T20:12:42Z</time>
      </trkpt>
      <trkpt lat="46.23025" lon="6.37832">
        <ele>978</ele>
        <time>2020-08-30T20:12:50Z</time>
      </trkpt>
      <trkpt lat="46.23101" lon="6.37814">
        <ele>976</ele>
        <time>2020-08-30T20:13:08Z</time>
      </trkpt>
      <trkpt lat="46.23158" lon="6.37807">
        <ele>972</ele>
        <time>2020-08-30T20:13:21Z</time>
      </trkpt>
      <trkpt lat="46.23175" lon="6.37812">
        <ele>970</ele>
        <time>2020-08-30T20:13:25Z</time>
      </trkpt>
      <trkpt lat="46.23217" lon="6.37816">
        <ele>970</ele>
        <time>2020-08-30T20:13:35Z</time>
      </trkpt>
      <trkpt lat="46.23253" lon="6.37826">
        <ele>970</ele>
        <time>2020-08-30T20:13:43Z</time>
      </trkpt>
      <trkpt lat="46.23259" lon="6.37804">
        <ele>974</ele>
        <time>2020-08-30T20:13:47Z</time>
      </trkpt>
      <trkpt lat="46.23321" lon="6.37805">
        <ele>977</ele>
        <time>2020-08-30T20:14:02Z</time>
      </trkpt>
      <trkpt lat="46.23347" lon="6.378">
        <ele>980</ele>
        <time>2020-08-30T20:14:08Z</time>
      </trkpt>
      <trkpt lat="46.23419" lon="6.37854">
        <ele>980</ele>
        <time>2020-08-30T20:14:27Z</time>
      </trkpt>
      <trkpt lat="46.23449" lon="6.37901">
        <ele>984</ele>
        <time>2020-08-30T20:14:37Z</time>
      </trkpt>
      <trkpt lat="46.2348" lon="6.37891">
        <ele>992</ele>
        <time>2020-08-30T20:14:44Z</time>
      </trkpt>
      <trkpt lat="46.23491" lon="6.37907">
        <ele>995</ele>
        <time>2020-08-30T20:14:48Z</time>
      </trkpt>
      <trkpt lat="46.23494" lon="6.37924">
        <ele>998</ele>
        <time>2020-08-30T20:14:51Z</time>
      </trkpt>
      <trkpt lat="46.23484" lon="6.37954">
        <ele>1003</ele>
        <time>2020-08-30T20:14:56Z</time>
      </trkpt>
      <trkpt lat="46.23473" lon="6.3796">
        <ele>1001</ele>
        <time>2020-08-30T20:14:59Z</time>
      </trkpt>
      <trkpt lat="46.23458" lon="6.37983">
        <ele>1000</ele>
        <time>2020-08-30T20:15:04Z</time>
      </trkpt>
      <trkpt lat="46.23426" lon="6.38044">
        <ele>1003</ele>
        <time>2020-08-30T20:15:17Z</time>
      </trkpt>
      <trkpt lat="46.23407" lon="6.38074">
        <ele>1005</ele>
        <time>2020-08-30T20:15:23Z</time>
      </trkpt>
      <trkpt lat="46.2339" lon="6.38099">
        <ele>1003</ele>
        <time>2020-08-30T20:15:29Z</time>
      </trkpt>
      <trkpt lat="46.23346" lon="6.38134">
        <ele>993</ele>
        <time>2020-08-30T20:15:40Z</time>
      </trkpt>
      <trkpt lat="46.23327" lon="6.38156">
        <ele>990</ele>
        <time>2020-08-30T20:15:46Z</time>
      </trkpt>
      <trkpt lat="46.23318" lon="6.38183">
        <ele>988</ele>
        <time>2020-08-30T20:15:51Z</time>
      </trkpt>
      <trkpt lat="46.23318" lon="6.38216">
        <ele>988</ele>
        <time>2020-08-30T20:15:56Z</time>
      </trkpt>
      <trkpt lat="46.23329" lon="6.38248">
        <ele>991</ele>
        <time>2020-08-30T20:16:02Z</time>
      </trkpt>
      <trkpt lat="46.23267" lon="6.38195">
        <ele>969</ele>
        <time>2020-08-30T20:16:19Z</time>
      </trkpt>
      <trkpt lat="46.2329" lon="6.38302">
        <ele>977</ele>
        <time>2020-08-30T20:16:37Z</time>
      </trkpt>
      <trkpt lat="46.23294" lon="6.38378">
        <ele>971</ele>
        <time>2020-08-30T20:16:49Z</time>
      </trkpt>
      <trkpt lat="46.23282" lon="6.38417">
        <ele>965</ele>
        <time>2020-08-30T20:16:56Z</time>
      </trkpt>
      <trkpt lat="46.2325" lon="6.38411">
        <ele>963</ele>
        <time>2020-08-30T20:17:04Z</time>
      </trkpt>
      <trkpt lat="46.23223" lon="6.38437">
        <ele>950</ele>
        <time>2020-08-30T20:17:11Z</time>
      </trkpt>
      <trkpt lat="46.23179" lon="6.38447">
        <ele>937</ele>
        <time>2020-08-30T20:17:22Z</time>
      </trkpt>
      <trkpt lat="46.23149" lon="6.38463">
        <ele>928</ele>
        <time>2020-08-30T20:17:29Z</time>
      </trkpt>
      <trkpt lat="46.23135" lon="6.38595">
        <ele>892</ele>
        <time>2020-08-30T20:17:51Z</time>
      </trkpt>
      <trkpt lat="46.23124" lon="6.38656">
        <ele>870</ele>
        <time>2020-08-30T20:18:01Z</time>
      </trkpt>
      <trkpt lat="46.23183" lon="6.38697">
        <ele>870</ele>
        <time>2020-08-30T20:18:16Z</time>
      </trkpt>
      <trkpt lat="46.23222" lon="6.38743">
        <ele>867</ele>
        <time>2020-08-30T20:18:28Z</time>
      </trkpt>
      <trkpt lat="46.23269" lon="6.3881">
        <ele>858</ele>
        <time>2020-08-30T20:18:43Z</time>
      </trkpt>
      <trkpt lat="46.23257" lon="6.3884">
        <ele>850</ele>
        <time>2020-08-30T20:18:49Z</time>
      </trkpt>
      <trkpt lat="46.23202" lon="6.38833">
        <ele>841</ele>
        <time>2020-08-30T20:19:02Z</time>
      </trkpt>
      <trkpt lat="46.23137" lon="6.38807">
        <ele>834</ele>
        <time>2020-08-30T20:19:18Z</time>
      </trkpt>
      <trkpt lat="46.23057" lon="6.38833">
        <ele>818</ele>
        <time>2020-08-30T20:19:37Z</time>
      </trkpt>
      <trkpt lat="46.23031" lon="6.38884">
        <ele>811</ele>
        <time>2020-08-30T20:19:47Z</time>
      </trkpt>
      <trkpt lat="46.23008" lon="6.39052">
        <ele>805</ele>
        <time>2020-08-30T20:20:15Z</time>
      </trkpt>
      <trkpt lat="46.23009" lon="6.39058">
        <ele>805</ele>
        <time>2020-08-30T20:20:16Z</time>
      </trkpt>
      <trkpt lat="46.22997" lon="6.39062">
        <ele>804</ele>
        <time>2020-08-30T20:20:19Z</time>
      </trkpt>
      <trkpt lat="46.22943" lon="6.39109">
        <ele>799</ele>
        <time>2020-08-30T20:20:33Z</time>
      </trkpt>
      <trkpt lat="46.22924" lon="6.3912">
        <ele>797</ele>
        <time>2020-08-30T20:20:38Z</time>
      </trkpt>
      <trkpt lat="46.22904" lon="6.39127">
        <ele>796</ele>
        <time>2020-08-30T20:20:43Z</time>
      </trkpt>
      <trkpt lat="46.22865" lon="6.39132">
        <ele>795</ele>
        <time>2020-08-30T20:20:52Z</time>
      </trkpt>
      <trkpt lat="46.22846" lon="6.39131">
        <ele>794</ele>
        <time>2020-08-30T20:20:57Z</time>
      </trkpt>
      <trkpt lat="46.22818" lon="6.39125">
        <ele>792</ele>
        <time>2020-08-30T20:21:03Z</time>
      </trkpt>
      <trkpt lat="46.22692" lon="6.39122">
        <ele>785</ele>
        <time>2020-08-30T20:21:33Z</time>
      </trkpt>
      <trkpt lat="46.22676" lon="6.39115">
        <ele>784</ele>
        <time>2020-08-30T20:21:36Z</time>
      </trkpt>
      <trkpt lat="46.22638" lon="6.39079">
        <ele>782</ele>
        <time>2020-08-30T20:21:47Z</time>
      </trkpt>
      <trkpt lat="46.22623" lon="6.39073">
        <ele>780</ele>
        <time>2020-08-30T20:21:51Z</time>
      </trkpt>
      <trkpt lat="46.22457" lon="6.39061">
        <ele>771</ele>
        <time>2020-08-30T20:22:30Z</time>
      </trkpt>
      <trkpt lat="46.22423" lon="6.39081">
        <ele>769</ele>
        <time>2020-08-30T20:22:38Z</time>
      </trkpt>
      <trkpt lat="46.22402" lon="6.39099">
        <ele>769</ele>
        <time>2020-08-30T20:22:44Z</time>
      </trkpt>
      <trkpt lat="46.22391" lon="6.39105">
        <ele>769</ele>
        <time>2020-08-30T20:22:47Z</time>
      </trkpt>
      <trkpt lat="46.22379" lon="6.39108">
        <ele>768</ele>
        <time>2020-08-30T20:22:49Z</time>
      </trkpt>
      <trkpt lat="46.22331" lon="6.39112">
        <ele>766</ele>
        <time>2020-08-30T20:23:01Z</time>
      </trkpt>
      <trkpt lat="46.22317" lon="6.39117">
        <ele>766</ele>
        <time>2020-08-30T20:23:04Z</time>
      </trkpt>
      <trkpt lat="46.22304" lon="6.39125">
        <ele>765</ele>
        <time>2020-08-30T20:23:07Z</time>
      </trkpt>
      <trkpt lat="46.22293" lon="6.39136">
        <ele>765</ele>
        <time>2020-08-30T20:23:10Z</time>
      </trkpt>
      <trkpt lat="46.22273" lon="6.39167">
        <ele>766</ele>
        <time>2020-08-30T20:23:17Z</time>
      </trkpt>
      <trkpt lat="46.22262" lon="6.3918">
        <ele>766</ele>
        <time>2020-08-30T20:23:21Z</time>
      </trkpt>
      <trkpt lat="46.22247" lon="6.39187">
        <ele>766</ele>
        <time>2020-08-30T20:23:24Z</time>
      </trkpt>
      <trkpt lat="46.22232" lon="6.39186">
        <ele>764</ele>
        <time>2020-08-30T20:23:28Z</time>
      </trkpt>
      <trkpt lat="46.22138" lon="6.39159">
        <ele>758</ele>
        <time>2020-08-30T20:23:50Z</time>
      </trkpt>
      <trkpt lat="46.22108" lon="6.39153">
        <ele>758</ele>
        <time>2020-08-30T20:23:57Z</time>
      </trkpt>
      <trkpt lat="46.22086" lon="6.39152">
        <ele>758</ele>
        <time>2020-08-30T20:24:02Z</time>
      </trkpt>
      <trkpt lat="46.22003" lon="6.39162">
        <ele>758</ele>
        <time>2020-08-30T20:24:22Z</time>
      </trkpt>
      <trkpt lat="46.21987" lon="6.3917">
        <ele>759</ele>
        <time>2020-08-30T20:24:26Z</time>
      </trkpt>
      <trkpt lat="46.21869" lon="6.39248">
        <ele>756</ele>
        <time>2020-08-30T20:24:56Z</time>
      </trkpt>
      <trkpt lat="46.21751" lon="6.3932">
        <ele>753</ele>
        <time>2020-08-30T20:25:26Z</time>
      </trkpt>
      <trkpt lat="46.21665" lon="6.39448">
        <ele>755</ele>
        <time>2020-08-30T20:25:55Z</time>
      </trkpt>
      <trkpt lat="46.21609" lon="6.39514">
        <ele>754</ele>
        <time>2020-08-30T20:26:12Z</time>
      </trkpt>
      <trkpt lat="46.21552" lon="6.39587">
        <ele>751</ele>
        <time>2020-08-30T20:26:29Z</time>
      </trkpt>
      <trkpt lat="46.21556" lon="6.39582">
        <ele>751</ele>
        <time>2020-08-30T20:26:31Z</time>
      </trkpt>
      <trkpt lat="46.21528" lon="6.39535">
        <ele>752</ele>
        <time>2020-08-30T20:26:41Z</time>
      </trkpt>
      <trkpt lat="46.21509" lon="6.39514">
        <ele>752</ele>
        <time>2020-08-30T20:26:46Z</time>
      </trkpt>
      <trkpt lat="46.2149" lon="6.39498">
        <ele>750</ele>
        <time>2020-08-30T20:26:51Z</time>
      </trkpt>
      <trkpt lat="46.2148" lon="6.39482">
        <ele>749</ele>
        <time>2020-08-30T20:26:55Z</time>
      </trkpt>
      <trkpt lat="46.21478" lon="6.39473">
        <ele>749</ele>
        <time>2020-08-30T20:26:56Z</time>
      </trkpt>
      <trkpt lat="46.21484" lon="6.39448">
        <ele>748</ele>
        <time>2020-08-30T20:27:01Z</time>
      </trkpt>
      <trkpt lat="46.21504" lon="6.39406">
        <ele>748</ele>
        <time>2020-08-30T20:27:09Z</time>
      </trkpt>
      <trkpt lat="46.21503" lon="6.39376">
        <ele>748</ele>
        <time>2020-08-30T20:27:14Z</time>
      </trkpt>
      <trkpt lat="46.21511" lon="6.39327">
        <ele>748</ele>
        <time>2020-08-30T20:27:22Z</time>
      </trkpt>
      <trkpt lat="46.21539" lon="6.39241">
        <ele>751</ele>
        <time>2020-08-30T20:27:37Z</time>
      </trkpt>
      <trkpt lat="46.21541" lon="6.39176">
        <ele>754</ele>
        <time>2020-08-30T20:27:48Z</time>
      </trkpt>
      <trkpt lat="46.21545" lon="6.39133">
        <ele>756</ele>
        <time>2020-08-30T20:27:55Z</time>
      </trkpt>
      <trkpt lat="46.21513" lon="6.39123">
        <ele>757</ele>
        <time>2020-08-30T20:28:02Z</time>
      </trkpt>
      <trkpt lat="46.21402" lon="6.39102">
        <ele>756</ele>
        <time>2020-08-30T20:28:29Z</time>
      </trkpt>
      <trkpt lat="46.2137" lon="6.39109">
        <ele>755</ele>
        <time>2020-08-30T20:28:36Z</time>
      </trkpt>
      <trkpt lat="46.21365" lon="6.39113">
        <ele>755</ele>
        <time>2020-08-30T20:28:38Z</time>
      </trkpt>
      <trkpt lat="46.21362" lon="6.3912">
        <ele>754</ele>
        <time>2020-08-30T20:28:39Z</time>
      </trkpt>
      <trkpt lat="46.2136" lon="6.39179">
        <ele>751</ele>
        <time>2020-08-30T20:28:48Z</time>
      </trkpt>
      <trkpt lat="46.21327" lon="6.39301">
        <ele>745</ele>
        <time>2020-08-30T20:29:10Z</time>
      </trkpt>
      <trkpt lat="46.21263" lon="6.39318">
        <ele>745</ele>
        <time>2020-08-30T20:29:25Z</time>
      </trkpt>
      <trkpt lat="46.21179" lon="6.39396">
        <ele>746</ele>
        <time>2020-08-30T20:29:48Z</time>
      </trkpt>
      <trkpt lat="46.21096" lon="6.39559">
        <ele>749</ele>
        <time>2020-08-30T20:30:21Z</time>
      </trkpt>
      <trkpt lat="46.21058" lon="6.39576">
        <ele>747</ele>
        <time>2020-08-30T20:30:30Z</time>
      </trkpt>
      <trkpt lat="46.21001" lon="6.39576">
        <ele>747</ele>
        <time>2020-08-30T20:30:43Z</time>
      </trkpt>
      <trkpt lat="46.20951" lon="6.39606">
        <ele>743</ele>
        <time>2020-08-30T20:30:56Z</time>
      </trkpt>
      <trkpt lat="46.20882" lon="6.397">
        <ele>735</ele>
        <time>2020-08-30T20:31:18Z</time>
      </trkpt>
      <trkpt lat="46.20832" lon="6.39881">
        <ele>732</ele>
        <time>2020-08-30T20:31:50Z</time>
      </trkpt>
      <trkpt lat="46.20764" lon="6.39962">
        <ele>734</ele>
        <time>2020-08-30T20:32:10Z</time>
      </trkpt>
      <trkpt lat="46.20694" lon="6.40092">
        <ele>739</ele>
        <time>2020-08-30T20:32:37Z</time>
      </trkpt>
      <trkpt lat="46.20721" lon="6.40161">
        <ele>739</ele>
        <time>2020-08-30T20:32:50Z</time>
      </trkpt>
      <trkpt lat="46.20796" lon="6.40337">
        <ele>740</ele>
        <time>2020-08-30T20:33:23Z</time>
      </trkpt>
      <trkpt lat="46.20836" lon="6.40451">
        <ele>740</ele>
        <time>2020-08-30T20:33:44Z</time>
      </trkpt>
      <trkpt lat="46.20857" lon="6.40499">
        <ele>740</ele>
        <time>2020-08-30T20:33:53Z</time>
      </trkpt>
      <trkpt lat="46.20859" lon="6.4051">
        <ele>740</ele>
        <time>2020-08-30T20:33:55Z</time>
      </trkpt>
      <trkpt lat="46.20875" lon="6.40539">
        <ele>741</ele>
        <time>2020-08-30T20:34:01Z</time>
      </trkpt>
      <trkpt lat="46.20878" lon="6.40536">
        <ele>741</ele>
        <time>2020-08-30T20:34:02Z</time>
      </trkpt>
      <trkpt lat="46.20888" lon="6.4057">
        <ele>742</ele>
        <time>2020-08-30T20:34:08Z</time>
      </trkpt>
      <trkpt lat="46.20958" lon="6.40542">
        <ele>743</ele>
        <time>2020-08-30T20:34:25Z</time>
      </trkpt>
      <trkpt lat="46.20959" lon="6.40545">
        <ele>743</ele>
        <time>2020-08-30T20:34:25Z</time>
      </trkpt>
      <trkpt lat="46.20951" lon="6.40548">
        <ele>743</ele>
        <time>2020-08-30T20:34:27Z</time>
      </trkpt>
      <trkpt lat="46.20961" lon="6.40563">
        <ele>743</ele>
        <time>2020-08-30T20:34:30Z</time>
      </trkpt>
      <trkpt lat="46.20976" lon="6.40601">
        <ele>743</ele>
        <time>2020-08-30T20:34:37Z</time>
      </trkpt>
      <trkpt lat="46.21" lon="6.40705">
        <ele>743</ele>
        <time>2020-08-30T20:34:55Z</time>
      </trkpt>
      <trkpt lat="46.21053" lon="6.40861">
        <ele>743</ele>
        <time>2020-08-30T20:35:23Z</time>
      </trkpt>
      <trkpt lat="46.21091" lon="6.4094">
        <ele>743</ele>
        <time>2020-08-30T20:35:39Z</time>
      </trkpt>
      <trkpt lat="46.21183" lon="6.41183">
        <ele>747</ele>
        <time>2020-08-30T20:36:24Z</time>
      </trkpt>
      <trkpt lat="46.21195" lon="6.41203">
        <ele>747</ele>
        <time>2020-08-30T20:36:28Z</time>
      </trkpt>
      <trkpt lat="46.21217" lon="6.41225">
        <ele>748</ele>
        <time>2020-08-30T20:36:34Z</time>
      </trkpt>
      <trkpt lat="46.21216" lon="6.41269">
        <ele>748</ele>
        <time>2020-08-30T20:36:41Z</time>
      </trkpt>
      <trkpt lat="46.21244" lon="6.41333">
        <ele>748</ele>
        <time>2020-08-30T20:36:53Z</time>
      </trkpt>
      <trkpt lat="46.21246" lon="6.41384">
        <ele>752</ele>
        <time>2020-08-30T20:37:02Z</time>
      </trkpt>
      <trkpt lat="46.21232" lon="6.41433">
        <ele>755</ele>
        <time>2020-08-30T20:37:10Z</time>
      </trkpt>
      <trkpt lat="46.21266" lon="6.41481">
        <ele>754</ele>
        <time>2020-08-30T20:37:21Z</time>
      </trkpt>
      <trkpt lat="46.21286" lon="6.41527">
        <ele>755</ele>
        <time>2020-08-30T20:37:30Z</time>
      </trkpt>
      <trkpt lat="46.21294" lon="6.41578">
        <ele>755</ele>
        <time>2020-08-30T20:37:39Z</time>
      </trkpt>
      <trkpt lat="46.21294" lon="6.41627">
        <ele>758</ele>
        <time>2020-08-30T20:37:46Z</time>
      </trkpt>
      <trkpt lat="46.21284" lon="6.41678">
        <ele>763</ele>
        <time>2020-08-30T20:37:55Z</time>
      </trkpt>
      <trkpt lat="46.21281" lon="6.41728">
        <ele>764</ele>
        <time>2020-08-30T20:38:03Z</time>
      </trkpt>
      <trkpt lat="46.21288" lon="6.41768">
        <ele>763</ele>
        <time>2020-08-30T20:38:10Z</time>
      </trkpt>
      <trkpt lat="46.21303" lon="6.41813">
        <ele>761</ele>
        <time>2020-08-30T20:38:18Z</time>
      </trkpt>
      <trkpt lat="46.21305" lon="6.41862">
        <ele>761</ele>
        <time>2020-08-30T20:38:26Z</time>
      </trkpt>
      <trkpt lat="46.21296" lon="6.41947">
        <ele>762</ele>
        <time>2020-08-30T20:38:40Z</time>
      </trkpt>
      <trkpt lat="46.21285" lon="6.41983">
        <ele>764</ele>
        <time>2020-08-30T20:38:46Z</time>
      </trkpt>
      <trkpt lat="46.21282" lon="6.42009">
        <ele>764</ele>
        <time>2020-08-30T20:38:50Z</time>
      </trkpt>
      <trkpt lat="46.21289" lon="6.42038">
        <ele>764</ele>
        <time>2020-08-30T20:38:55Z</time>
      </trkpt>
      <trkpt lat="46.21301" lon="6.42055">
        <ele>764</ele>
        <time>2020-08-30T20:38:59Z</time>
      </trkpt>
      <trkpt lat="46.21321" lon="6.42067">
        <ele>764</ele>
        <time>2020-08-30T20:39:04Z</time>
      </trkpt>
      <trkpt lat="46.21317" lon="6.42115">
        <ele>766</ele>
        <time>2020-08-30T20:39:12Z</time>
      </trkpt>
      <trkpt lat="46.21328" lon="6.42141">
        <ele>766</ele>
        <time>2020-08-30T20:39:17Z</time>
      </trkpt>
      <trkpt lat="46.21337" lon="6.42172">
        <ele>768</ele>
        <time>2020-08-30T20:39:22Z</time>
      </trkpt>
      <trkpt lat="46.21331" lon="6.42226">
        <ele>767</ele>
        <time>2020-08-30T20:39:31Z</time>
      </trkpt>
      <trkpt lat="46.21328" lon="6.4229">
        <ele>767</ele>
        <time>2020-08-30T20:39:42Z</time>
      </trkpt>
      <trkpt lat="46.21316" lon="6.42355">
        <ele>768</ele>
        <time>2020-08-30T20:39:53Z</time>
      </trkpt>
      <trkpt lat="46.21313" lon="6.42414">
        <ele>769</ele>
        <time>2020-08-30T20:40:02Z</time>
      </trkpt>
      <trkpt lat="46.21319" lon="6.42457">
        <ele>769</ele>
        <time>2020-08-30T20:40:09Z</time>
      </trkpt>
      <trkpt lat="46.21333" lon="6.4249">
        <ele>768</ele>
        <time>2020-08-30T20:40:15Z</time>
      </trkpt>
      <trkpt lat="46.21353" lon="6.42569">
        <ele>767</ele>
        <time>2020-08-30T20:40:29Z</time>
      </trkpt>
      <trkpt lat="46.21372" lon="6.42586">
        <ele>768</ele>
        <time>2020-08-30T20:40:34Z</time>
      </trkpt>
      <trkpt lat="46.21464" lon="6.42619">
        <ele>779</ele>
        <time>2020-08-30T20:40:56Z</time>
      </trkpt>
      <trkpt lat="46.21493" lon="6.42777">
        <ele>774</ele>
        <time>2020-08-30T20:41:23Z</time>
      </trkpt>
      <trkpt lat="46.21507" lon="6.42838">
        <ele>772</ele>
        <time>2020-08-30T20:41:33Z</time>
      </trkpt>
      <trkpt lat="46.21521" lon="6.42869">
        <ele>770</ele>
        <time>2020-08-30T20:41:39Z</time>
      </trkpt>
      <trkpt lat="46.21543" lon="6.42883">
        <ele>770</ele>
        <time>2020-08-30T20:41:45Z</time>
      </trkpt>
      <trkpt lat="46.21597" lon="6.42888">
        <ele>772</ele>
        <time>2020-08-30T20:41:57Z</time>
      </trkpt>
      <trkpt lat="46.21629" lon="6.42903">
        <ele>772</ele>
        <time>2020-08-30T20:42:05Z</time>
      </trkpt>
      <trkpt lat="46.21646" lon="6.42935">
        <ele>772</ele>
        <time>2020-08-30T20:42:12Z</time>
      </trkpt>
      <trkpt lat="46.21645" lon="6.42962">
        <ele>771</ele>
        <time>2020-08-30T20:42:16Z</time>
      </trkpt>
      <trkpt lat="46.21663" lon="6.43023">
        <ele>772</ele>
        <time>2020-08-30T20:42:27Z</time>
      </trkpt>
      <trkpt lat="46.21663" lon="6.43052">
        <ele>771</ele>
        <time>2020-08-30T20:42:32Z</time>
      </trkpt>
      <trkpt lat="46.21655" lon="6.43064">
        <ele>771</ele>
        <time>2020-08-30T20:42:34Z</time>
      </trkpt>
      <trkpt lat="46.21641" lon="6.43076">
        <ele>770</ele>
        <time>2020-08-30T20:42:38Z</time>
      </trkpt>
      <trkpt lat="46.21637" lon="6.43126">
        <ele>771</ele>
        <time>2020-08-30T20:42:46Z</time>
      </trkpt>
      <trkpt lat="46.21654" lon="6.43182">
        <ele>773</ele>
        <time>2020-08-30T20:42:56Z</time>
      </trkpt>
      <trkpt lat="46.21661" lon="6.43243">
        <ele>773</ele>
        <time>2020-08-30T20:43:06Z</time>
      </trkpt>
      <trkpt lat="46.21685" lon="6.43267">
        <ele>773</ele>
        <time>2020-08-30T20:43:13Z</time>
      </trkpt>
      <trkpt lat="46.21746" lon="6.43294">
        <ele>773</ele>
        <time>2020-08-30T20:43:28Z</time>
      </trkpt>
      <trkpt lat="46.21767" lon="6.43325">
        <ele>772</ele>
        <time>2020-08-30T20:43:35Z</time>
      </trkpt>
      <trkpt lat="46.21776" lon="6.43358">
        <ele>772</ele>
        <time>2020-08-30T20:43:41Z</time>
      </trkpt>
      <trkpt lat="46.21778" lon="6.43393">
        <ele>772</ele>
        <time>2020-08-30T20:43:46Z</time>
      </trkpt>
      <trkpt lat="46.21784" lon="6.43419">
        <ele>772</ele>
        <time>2020-08-30T20:43:51Z</time>
      </trkpt>
      <trkpt lat="46.21808" lon="6.43432">
        <ele>773</ele>
        <time>2020-08-30T20:43:57Z</time>
      </trkpt>
      <trkpt lat="46.21865" lon="6.4342">
        <ele>773</ele>
        <time>2020-08-30T20:44:10Z</time>
      </trkpt>
      <trkpt lat="46.21945" lon="6.43448">
        <ele>774</ele>
        <time>2020-08-30T20:44:29Z</time>
      </trkpt>
      <trkpt lat="46.21952" lon="6.43419">
        <ele>774</ele>
        <time>2020-08-30T20:44:34Z</time>
      </trkpt>
      <trkpt lat="46.21997" lon="6.43472">
        <ele>775</ele>
        <time>2020-08-30T20:44:48Z</time>
      </trkpt>
      <trkpt lat="46.22025" lon="6.43526">
        <ele>778</ele>
        <time>2020-08-30T20:44:59Z</time>
      </trkpt>
      <trkpt lat="46.22071" lon="6.43573">
        <ele>781</ele>
        <time>2020-08-30T20:45:12Z</time>
      </trkpt>
      <trkpt lat="46.22087" lon="6.43599">
        <ele>782</ele>
        <time>2020-08-30T20:45:17Z</time>
      </trkpt>
      <trkpt lat="46.22121" lon="6.43614">
        <ele>782</ele>
        <time>2020-08-30T20:45:26Z</time>
      </trkpt>
      <trkpt lat="46.22134" lon="6.43633">
        <ele>782</ele>
        <time>2020-08-30T20:45:30Z</time>
      </trkpt>
      <trkpt lat="46.22197" lon="6.43636">
        <ele>783</ele>
        <time>2020-08-30T20:45:45Z</time>
      </trkpt>
      <trkpt lat="46.2223" lon="6.43684">
        <ele>785</ele>
        <time>2020-08-30T20:45:56Z</time>
      </trkpt>
      <trkpt lat="46.22261" lon="6.43689">
        <ele>785</ele>
        <time>2020-08-30T20:46:03Z</time>
      </trkpt>
      <trkpt lat="46.22286" lon="6.43707">
        <ele>786</ele>
        <time>2020-08-30T20:46:10Z</time>
      </trkpt>
      <trkpt lat="46.22312" lon="6.4373">
        <ele>787</ele>
        <time>2020-08-30T20:46:17Z</time>
      </trkpt>
      <trkpt lat="46.22345" lon="6.43812">
        <ele>788</ele>
        <time>2020-08-30T20:46:32Z</time>
      </trkpt>
      <trkpt lat="46.22371" lon="6.43854">
        <ele>788</ele>
        <time>2020-08-30T20:46:41Z</time>
      </trkpt>
      <trkpt lat="46.224" lon="6.4386">
        <ele>787</ele>
        <time>2020-08-30T20:46:48Z</time>
      </trkpt>
      <trkpt lat="46.22412" lon="6.43886">
        <ele>788</ele>
        <time>2020-08-30T20:46:53Z</time>
      </trkpt>
      <trkpt lat="46.22419" lon="6.4391">
        <ele>790</ele>
        <time>2020-08-30T20:46:57Z</time>
      </trkpt>
      <trkpt lat="46.22412" lon="6.43977">
        <ele>790</ele>
        <time>2020-08-30T20:47:08Z</time>
      </trkpt>
      <trkpt lat="46.22469" lon="6.44027">
        <ele>792</ele>
        <time>2020-08-30T20:47:24Z</time>
      </trkpt>
      <trkpt lat="46.22496" lon="6.44074">
        <ele>794</ele>
        <time>2020-08-30T20:47:34Z</time>
      </trkpt>
      <trkpt lat="46.22512" lon="6.44111">
        <ele>794</ele>
        <time>2020-08-30T20:47:41Z</time>
      </trkpt>
      <trkpt lat="46.22539" lon="6.44127">
        <ele>794</ele>
        <time>2020-08-30T20:47:47Z</time>
      </trkpt>
      <trkpt lat="46.22559" lon="6.44112">
        <ele>792</ele>
        <time>2020-08-30T20:47:53Z</time>
      </trkpt>
      <trkpt lat="46.22595" lon="6.44092">
        <ele>791</ele>
        <time>2020-08-30T20:48:02Z</time>
      </trkpt>
      <trkpt lat="46.2262" lon="6.44127">
        <ele>793</ele>
        <time>2020-08-30T20:48:10Z</time>
      </trkpt>
      <trkpt lat="46.22645" lon="6.44168">
        <ele>795</ele>
        <time>2020-08-30T20:48:19Z</time>
      </trkpt>
      <trkpt lat="46.22661" lon="6.44211">
        <ele>798</ele>
        <time>2020-08-30T20:48:27Z</time>
      </trkpt>
      <trkpt lat="46.2268" lon="6.44252">
        <ele>802</ele>
        <time>2020-08-30T20:48:35Z</time>
      </trkpt>
      <trkpt lat="46.22703" lon="6.44287">
        <ele>804</ele>
        <time>2020-08-30T20:48:42Z</time>
      </trkpt>
      <trkpt lat="46.2274" lon="6.44322">
        <ele>806</ele>
        <time>2020-08-30T20:48:53Z</time>
      </trkpt>
      <trkpt lat="46.22748" lon="6.44344">
        <ele>807</ele>
        <time>2020-08-30T20:48:57Z</time>
      </trkpt>
      <trkpt lat="46.22769" lon="6.44359">
        <ele>807</ele>
        <time>2020-08-30T20:49:02Z</time>
      </trkpt>
      <trkpt lat="46.22787" lon="6.44376">
        <ele>807</ele>
        <time>2020-08-30T20:49:07Z</time>
      </trkpt>
      <trkpt lat="46.22831" lon="6.44369">
        <ele>808</ele>
        <time>2020-08-30T20:49:18Z</time>
      </trkpt>
      <trkpt lat="46.22867" lon="6.44385">
        <ele>807</ele>
        <time>2020-08-30T20:49:26Z</time>
      </trkpt>
      <trkpt lat="46.22906" lon="6.44413">
        <ele>807</ele>
        <time>2020-08-30T20:49:36Z</time>
      </trkpt>
      <trkpt lat="46.22918" lon="6.44473">
        <ele>806</ele>
        <time>2020-08-30T20:49:47Z</time>
      </trkpt>
      <trkpt lat="46.22934" lon="6.44478">
        <ele>806</ele>
        <time>2020-08-30T20:49:50Z</time>
      </trkpt>
      <trkpt lat="46.22955" lon="6.44467">
        <ele>806</ele>
        <time>2020-08-30T20:49:56Z</time>
      </trkpt>
      <trkpt lat="46.22975" lon="6.44464">
        <ele>806</ele>
        <time>2020-08-30T20:50:00Z</time>
      </trkpt>
      <trkpt lat="46.22992" lon="6.44482">
        <ele>806</ele>
        <time>2020-08-30T20:50:05Z</time>
      </trkpt>
      <trkpt lat="46.22999" lon="6.44501">
        <ele>807</ele>
        <time>2020-08-30T20:50:09Z</time>
      </trkpt>
      <trkpt lat="46.22993" lon="6.44535">
        <ele>809</ele>
        <time>2020-08-30T20:50:14Z</time>
      </trkpt>
      <trkpt lat="46.23024" lon="6.44516">
        <ele>810</ele>
        <time>2020-08-30T20:50:22Z</time>
      </trkpt>
      <trkpt lat="46.23044" lon="6.44485">
        <ele>811</ele>
        <time>2020-08-30T20:50:29Z</time>
      </trkpt>
      <trkpt lat="46.23056" lon="6.44494">
        <ele>812</ele>
        <time>2020-08-30T20:50:32Z</time>
      </trkpt>
      <trkpt lat="46.23073" lon="6.44519">
        <ele>815</ele>
        <time>2020-08-30T20:50:38Z</time>
      </trkpt>
      <trkpt lat="46.23089" lon="6.44537">
        <ele>816</ele>
        <time>2020-08-30T20:50:43Z</time>
      </trkpt>
      <trkpt lat="46.23127" lon="6.44563">
        <ele>818</ele>
        <time>2020-08-30T20:50:52Z</time>
      </trkpt>
      <trkpt lat="46.23147" lon="6.44592">
        <ele>819</ele>
        <time>2020-08-30T20:50:59Z</time>
      </trkpt>
      <trkpt lat="46.2317" lon="6.44601">
        <ele>819</ele>
        <time>2020-08-30T20:51:05Z</time>
      </trkpt>
      <trkpt lat="46.23184" lon="6.44619">
        <ele>820</ele>
        <time>2020-08-30T20:51:09Z</time>
      </trkpt>
      <trkpt lat="46.23185" lon="6.44655">
        <ele>820</ele>
        <time>2020-08-30T20:51:15Z</time>
      </trkpt>
      <trkpt lat="46.23194" lon="6.44678">
        <ele>820</ele>
        <time>2020-08-30T20:51:19Z</time>
      </trkpt>
      <trkpt lat="46.23186" lon="6.44708">
        <ele>818</ele>
        <time>2020-08-30T20:51:24Z</time>
      </trkpt>
      <trkpt lat="46.23195" lon="6.4473">
        <ele>818</ele>
        <time>2020-08-30T20:51:28Z</time>
      </trkpt>
      <trkpt lat="46.2323" lon="6.44765">
        <ele>820</ele>
        <time>2020-08-30T20:51:38Z</time>
      </trkpt>
      <trkpt lat="46.23267" lon="6.44792">
        <ele>822</ele>
        <time>2020-08-30T20:51:48Z</time>
      </trkpt>
      <trkpt lat="46.23289" lon="6.44796">
        <ele>823</ele>
        <time>2020-08-30T20:51:53Z</time>
      </trkpt>
      <trkpt lat="46.233" lon="6.44822">
        <ele>824</ele>
        <time>2020-08-30T20:51:58Z</time>
      </trkpt>
      <trkpt lat="46.23321" lon="6.44845">
        <ele>825</ele>
        <time>2020-08-30T20:52:04Z</time>
      </trkpt>
      <trkpt lat="46.23336" lon="6.44881">
        <ele>825</ele>
        <time>2020-08-30T20:52:11Z</time>
      </trkpt>
      <trkpt lat="46.23349" lon="6.44886">
        <ele>826</ele>
        <time>2020-08-30T20:52:14Z</time>
      </trkpt>
      <trkpt lat="46.23349" lon="6.44909">
        <ele>826</ele>
        <time>2020-08-30T20:52:18Z</time>
      </trkpt>
      <trkpt lat="46.23354" lon="6.4493">
        <ele>827</ele>
        <time>2020-08-30T20:52:22Z</time>
      </trkpt>
      <trkpt lat="46.23379" lon="6.44934">
        <ele>827</ele>
        <time>2020-08-30T20:52:27Z</time>
      </trkpt>
      <trkpt lat="46.23404" lon="6.44945">
        <ele>828</ele>
        <time>2020-08-30T20:52:34Z</time>
      </trkpt>
      <trkpt lat="46.23414" lon="6.44978">
        <ele>829</ele>
        <time>2020-08-30T20:52:39Z</time>
      </trkpt>
      <trkpt lat="46.23463" lon="6.45009">
        <ele>829</ele>
        <time>2020-08-30T20:52:52Z</time>
      </trkpt>
      <trkpt lat="46.23487" lon="6.45006">
        <ele>829</ele>
        <time>2020-08-30T20:52:57Z</time>
      </trkpt>
      <trkpt lat="46.23508" lon="6.45035">
        <ele>831</ele>
        <time>2020-08-30T20:53:04Z</time>
      </trkpt>
      <trkpt lat="46.23542" lon="6.45051">
        <ele>833</ele>
        <time>2020-08-30T20:53:13Z</time>
      </trkpt>
      <trkpt lat="46.23566" lon="6.45057">
        <ele>833</ele>
        <time>2020-08-30T20:53:18Z</time>
      </trkpt>
      <trkpt lat="46.23587" lon="6.45048">
        <ele>835</ele>
        <time>2020-08-30T20:53:23Z</time>
      </trkpt>
      <trkpt lat="46.23619" lon="6.4508">
        <ele>839</ele>
        <time>2020-08-30T20:53:32Z</time>
      </trkpt>
      <trkpt lat="46.23661" lon="6.45117">
        <ele>843</ele>
        <time>2020-08-30T20:53:44Z</time>
      </trkpt>
      <trkpt lat="46.23696" lon="6.45136">
        <ele>846</ele>
        <time>2020-08-30T20:53:53Z</time>
      </trkpt>
      <trkpt lat="46.23718" lon="6.45167">
        <ele>847</ele>
        <time>2020-08-30T20:54:00Z</time>
      </trkpt>
      <trkpt lat="46.23718" lon="6.45185">
        <ele>848</ele>
        <time>2020-08-30T20:54:03Z</time>
      </trkpt>
      <trkpt lat="46.23755" lon="6.45215">
        <ele>850</ele>
        <time>2020-08-30T20:54:13Z</time>
      </trkpt>
      <trkpt lat="46.23776" lon="6.45247">
        <ele>850</ele>
        <time>2020-08-30T20:54:20Z</time>
      </trkpt>
      <trkpt lat="46.23809" lon="6.45247">
        <ele>852</ele>
        <time>2020-08-30T20:54:28Z</time>
      </trkpt>
      <trkpt lat="46.23839" lon="6.45229">
        <ele>855</ele>
        <time>2020-08-30T20:54:35Z</time>
      </trkpt>
      <trkpt lat="46.23833" lon="6.45252">
        <ele>853</ele>
        <time>2020-08-30T20:54:39Z</time>
      </trkpt>
      <trkpt lat="46.23833" lon="6.45282">
        <ele>851</ele>
        <time>2020-08-30T20:54:44Z</time>
      </trkpt>
      <trkpt lat="46.23841" lon="6.45299">
        <ele>850</ele>
        <time>2020-08-30T20:54:47Z</time>
      </trkpt>
      <trkpt lat="46.2384" lon="6.45326">
        <ele>848</ele>
        <time>2020-08-30T20:54:52Z</time>
      </trkpt>
      <trkpt lat="46.23837" lon="6.45334">
        <ele>848</ele>
        <time>2020-08-30T20:54:53Z</time>
      </trkpt>
      <trkpt lat="46.23839" lon="6.4537">
        <ele>850</ele>
        <time>2020-08-30T20:54:59Z</time>
      </trkpt>
      <trkpt lat="46.23831" lon="6.45464">
        <ele>853</ele>
        <time>2020-08-30T20:55:14Z</time>
      </trkpt>
      <trkpt lat="46.23836" lon="6.45525">
        <ele>853</ele>
        <time>2020-08-30T20:55:24Z</time>
      </trkpt>
      <trkpt lat="46.23852" lon="6.45538">
        <ele>854</ele>
        <time>2020-08-30T20:55:28Z</time>
      </trkpt>
      <trkpt lat="46.2385" lon="6.45564">
        <ele>853</ele>
        <time>2020-08-30T20:55:33Z</time>
      </trkpt>
      <trkpt lat="46.23877" lon="6.45581">
        <ele>853</ele>
        <time>2020-08-30T20:55:40Z</time>
      </trkpt>
      <trkpt lat="46.23904" lon="6.45611">
        <ele>853</ele>
        <time>2020-08-30T20:55:47Z</time>
      </trkpt>
      <trkpt lat="46.23916" lon="6.45652">
        <ele>853</ele>
        <time>2020-08-30T20:55:55Z</time>
      </trkpt>
      <trkpt lat="46.23917" lon="6.45711">
        <ele>859</ele>
        <time>2020-08-30T20:56:04Z</time>
      </trkpt>
      <trkpt lat="46.23923" lon="6.45733">
        <ele>863</ele>
        <time>2020-08-30T20:56:08Z</time>
      </trkpt>
      <trkpt lat="46.23934" lon="6.45736">
        <ele>864</ele>
        <time>2020-08-30T20:56:11Z</time>
      </trkpt>
      <trkpt lat="46.23953" lon="6.45748">
        <ele>866</ele>
        <time>2020-08-30T20:56:15Z</time>
      </trkpt>
      <trkpt lat="46.23991" lon="6.45802">
        <ele>868</ele>
        <time>2020-08-30T20:56:28Z</time>
      </trkpt>
      <trkpt lat="46.23993" lon="6.45822">
        <ele>868</ele>
        <time>2020-08-30T20:56:31Z</time>
      </trkpt>
      <trkpt lat="46.24003" lon="6.45837">
        <ele>868</ele>
        <time>2020-08-30T20:56:35Z</time>
      </trkpt>
      <trkpt lat="46.24002" lon="6.45859">
        <ele>870</ele>
        <time>2020-08-30T20:56:38Z</time>
      </trkpt>
      <trkpt lat="46.24015" lon="6.4588">
        <ele>871</ele>
        <time>2020-08-30T20:56:43Z</time>
      </trkpt>
      <trkpt lat="46.24031" lon="6.4589">
        <ele>870</ele>
        <time>2020-08-30T20:56:47Z</time>
      </trkpt>
      <trkpt lat="46.24045" lon="6.45934">
        <ele>871</ele>
        <time>2020-08-30T20:56:55Z</time>
      </trkpt>
      <trkpt lat="46.24073" lon="6.4594">
        <ele>870</ele>
        <time>2020-08-30T20:57:01Z</time>
      </trkpt>
      <trkpt lat="46.24087" lon="6.45971">
        <ele>872</ele>
        <time>2020-08-30T20:57:07Z</time>
      </trkpt>
      <trkpt lat="46.24116" lon="6.45991">
        <ele>874</ele>
        <time>2020-08-30T20:57:15Z</time>
      </trkpt>
      <trkpt lat="46.24156" lon="6.46003">
        <ele>874</ele>
        <time>2020-08-30T20:57:24Z</time>
      </trkpt>
      <trkpt lat="46.24159" lon="6.46039">
        <ele>878</ele>
        <time>2020-08-30T20:57:30Z</time>
      </trkpt>
      <trkpt lat="46.24179" lon="6.46051">
        <ele>879</ele>
        <time>2020-08-30T20:57:35Z</time>
      </trkpt>
      <trkpt lat="46.24207" lon="6.46085">
        <ele>881</ele>
        <time>2020-08-30T20:57:44Z</time>
      </trkpt>
      <trkpt lat="46.2421" lon="6.46112">
        <ele>882</ele>
        <time>2020-08-30T20:57:48Z</time>
      </trkpt>
      <trkpt lat="46.24218" lon="6.46136">
        <ele>884</ele>
        <time>2020-08-30T20:57:52Z</time>
      </trkpt>
      <trkpt lat="46.24245" lon="6.46147">
        <ele>884</ele>
        <time>2020-08-30T20:57:59Z</time>
      </trkpt>
      <trkpt lat="46.24277" lon="6.4617">
        <ele>885</ele>
        <time>2020-08-30T20:58:07Z</time>
      </trkpt>
      <trkpt lat="46.24283" lon="6.46198">
        <ele>885</ele>
        <time>2020-08-30T20:58:12Z</time>
      </trkpt>
      <trkpt lat="46.24302" lon="6.46217">
        <ele>885</ele>
        <time>2020-08-30T20:58:17Z</time>
      </trkpt>
      <trkpt lat="46.2433" lon="6.46232">
        <ele>886</ele>
        <time>2020-08-30T20:58:24Z</time>
      </trkpt>
      <trkpt lat="46.24358" lon="6.46229">
        <ele>886</ele>
        <time>2020-08-30T20:58:31Z</time>
      </trkpt>
      <trkpt lat="46.24435" lon="6.46289">
        <ele>889</ele>
        <time>2020-08-30T20:58:51Z</time>
      </trkpt>
      <trkpt lat="46.24453" lon="6.46297">
        <ele>890</ele>
        <time>2020-08-30T20:58:56Z</time>
      </trkpt>
      <trkpt lat="46.24496" lon="6.4627">
        <ele>886</ele>
        <time>2020-08-30T20:59:07Z</time>
      </trkpt>
      <trkpt lat="46.24523" lon="6.46259">
        <ele>883</ele>
        <time>2020-08-30T20:59:13Z</time>
      </trkpt>
      <trkpt lat="46.24537" lon="6.46276">
        <ele>884</ele>
        <time>2020-08-30T20:59:17Z</time>
      </trkpt>
      <trkpt lat="46.24576" lon="6.46292">
        <ele>884</ele>
        <time>2020-08-30T20:59:27Z</time>
      </trkpt>
      <trkpt lat="46.24592" lon="6.46306">
        <ele>885</ele>
        <time>2020-08-30T20:59:31Z</time>
      </trkpt>
      <trkpt lat="46.24601" lon="6.46346">
        <ele>889</ele>
        <time>2020-08-30T20:59:38Z</time>
      </trkpt>
      <trkpt lat="46.24629" lon="6.46374">
        <ele>890</ele>
        <time>2020-08-30T20:59:46Z</time>
      </trkpt>
      <trkpt lat="46.24653" lon="6.46412">
        <ele>891</ele>
        <time>2020-08-30T20:59:54Z</time>
      </trkpt>
      <trkpt lat="46.2469" lon="6.46421">
        <ele>893</ele>
        <time>2020-08-30T21:00:03Z</time>
      </trkpt>
      <trkpt lat="46.24737" lon="6.46519">
        <ele>899</ele>
        <time>2020-08-30T21:00:22Z</time>
      </trkpt>
      <trkpt lat="46.24746" lon="6.46613">
        <ele>901</ele>
        <time>2020-08-30T21:00:38Z</time>
      </trkpt>
      <trkpt lat="46.24756" lon="6.46634">
        <ele>902</ele>
        <time>2020-08-30T21:00:42Z</time>
      </trkpt>
      <trkpt lat="46.24798" lon="6.4669">
        <ele>907</ele>
        <time>2020-08-30T21:00:55Z</time>
      </trkpt>
      <trkpt lat="46.24768" lon="6.46898">
        <ele>925</ele>
        <time>2020-08-30T21:01:30Z</time>
      </trkpt>
      <trkpt lat="46.24775" lon="6.46915">
        <ele>927</ele>
        <time>2020-08-30T21:01:33Z</time>
      </trkpt>
      <trkpt lat="46.24849" lon="6.46933">
        <ele>930</ele>
        <time>2020-08-30T21:01:50Z</time>
      </trkpt>
      <trkpt lat="46.24923" lon="6.47">
        <ele>934</ele>
        <time>2020-08-30T21:02:11Z</time>
      </trkpt>
      <trkpt lat="46.24924" lon="6.46996">
        <ele>934</ele>
        <time>2020-08-30T21:02:11Z</time>
      </trkpt>
      <trkpt lat="46.25035" lon="6.47073">
        <ele>943</ele>
        <time>2020-08-30T21:02:40Z</time>
      </trkpt>
      <trkpt lat="46.25028" lon="6.47076">
        <ele>943</ele>
        <time>2020-08-30T21:02:42Z</time>
      </trkpt>
      <trkpt lat="46.24971" lon="6.47084">
        <ele>943</ele>
        <time>2020-08-30T21:02:55Z</time>
      </trkpt>
      <trkpt lat="46.24957" lon="6.47089">
        <ele>944</ele>
        <time>2020-08-30T21:02:58Z</time>
      </trkpt>
      <trkpt lat="46.2494" lon="6.47099">
        <ele>945</ele>
        <time>2020-08-30T21:03:03Z</time>
      </trkpt>
      <trkpt lat="46.24896" lon="6.47141">
        <ele>948</ele>
        <time>2020-08-30T21:03:15Z</time>
      </trkpt>
      <trkpt lat="46.24886" lon="6.47155">
        <ele>948</ele>
        <time>2020-08-30T21:03:18Z</time>
      </trkpt>
      <trkpt lat="46.24873" lon="6.4715">
        <ele>948</ele>
        <time>2020-08-30T21:03:21Z</time>
      </trkpt>
      <trkpt lat="46.24856" lon="6.47166">
        <ele>948</ele>
        <time>2020-08-30T21:03:26Z</time>
      </trkpt>
      <trkpt lat="46.24846" lon="6.47191">
        <ele>949</ele>
        <time>2020-08-30T21:03:31Z</time>
      </trkpt>
      <trkpt lat="46.24852" lon="6.4727">
        <ele>955</ele>
        <time>2020-08-30T21:03:44Z</time>
      </trkpt>
    </trkseg>
  </trk>
</gpx>